[[[{"header":{"parameterUnit":"kt","parameterCategory":2,"dx":1,"dy":1,"la1":29.285339999999998,"la2":30.599998999999997,"lo1":-89.70041500000002,"lo2":-87.6738589999976,"nx":112,"ny":82,"refTime":"2022-09-28T12:00:00:Z","depth":0,"parameterNumber":1,"parameterNumberName":"U-component_of_WINDS"},"data":[14.7458,14.8587,14.7917,13.8036,13.7142,13.6619,12.8459,12.7487,12.8462,12.8988,12.9964,13.2282,13.7285,13.4974,0.0,0.0,0.0,0.0,0.0,13.1469,0.0,0.0,0.0,0.0,0.0,0.0,15.501,16.7348,16.5554,16.8545,17.9246,17.9246,17.9919,18.2092,18.3219,18.4855,18.716,18.7164,18.7164,18.7164,18.7164,18.7164,18.7164,18.7164,18.9071,19.2264,19.2389,19.437,19.7664,19.7854,19.8086,19.806,19.806,19.806,19.806,19.806,19.806,19.806,19.806,19.806,19.806,19.806,19.806,19.806,19.806,19.806,19.791,19.7312,19.7688,19.791,19.7312,19.7688,19.7914,19.6711,19.694,19.6707,19.5195,19.5128,19.5357,19.497,19.5128,19.5733,19.6335,19.694,19.7087,19.6485,19.5579,19.5195,19.6335,19.6489,19.694,19.791,19.7087,19.6489,19.6947,19.5733,19.4981,19.4774,19.4355,19.3797,19.2893,19.2753,19.2692,19.2656,19.2685,19.3343,19.4572,19.5327,19.6308,19.7466,19.7846,19.8059,14.3495,14.3947,14.2754,13.2197,13.1225,13.1007,12.3904,12.3075,12.4197,12.5324,12.7349,12.9518,0.0,0.0,0.0,0.0,0.0,0.0,0.0,0.0,0.0,0.0,0.0,0.0,0.0,0.0,15.59,16.5853,16.5026,16.847,17.842,17.9466,18.0518,18.2088,18.3817,18.5458,18.716,18.7164,18.7164,18.7164,18.7164,18.72,18.7262,18.7262,18.9133,19.2449,19.2649,19.4596,19.7906,19.8094,19.806,19.806,19.806,19.806,19.806,19.806,19.806,19.806,19.806,19.806,19.806,19.806,19.806,19.806,19.806,19.806,19.806,19.806,19.806,19.806,19.806,19.806,19.7914,19.6711,19.694,19.6707,19.5195,19.5128,19.5357,19.4744,19.4748,19.4974,19.6105,19.6331,19.5951,19.4748,19.3763,19.3459,19.4601,19.4752,19.5128,19.6327,19.5959,19.5741,19.597,19.5586,19.4759,19.3721,19.3743,19.2947,19.0908,19.1205,19.1233,19.0602,19.0584,19.1276,19.2501,19.3272,19.4222,19.5527,19.5141,19.5513,13.9834,13.6544,13.3475,12.5166,12.3219,12.2929,12.1226,12.324,12.5474,12.5698,12.8097,13.0275,13.0422,0.0,0.0,0.0,0.0,0.0,0.0,13.1306,13.4141,0.0,0.0,14.7383,15.2408,14.8583,15.1193,16.4349,16.0768,16.361,17.6542,17.8943,18.0592,18.2088,18.3817,18.5532,18.716,18.7164,18.7164,18.7164,18.7164,18.7271,18.7383,18.7383,18.9383,19.2857,19.2857,19.4754,19.806,19.806,19.806,19.806,19.806,19.806,19.806,19.806,19.806,19.806,19.806,19.806,19.806,19.806,19.806,19.806,19.806,19.806,19.806,19.806,19.806,19.806,19.806,19.806,19.806,19.806,19.694,19.6113,19.7688,19.6711,19.5959,19.7688,19.535,19.4064,19.7308,19.5195,19.2857,19.2932,19.2932,19.2857,19.2932,19.2932,19.2929,19.3008,19.4372,19.5357,19.5586,19.6936,19.6699,19.3744,19.3594,19.2256,18.9352,19.0398,19.0315,18.8665,18.8593,18.8514,18.8518,19.0591,19.1622,19.1682,19.1218,19.2876,13.4083,13.393,13.3771,12.6667,12.7562,12.9207,12.5178,12.309,12.3395,12.81,12.6973,0.0,0.0,0.0,13.0272,12.9898,0.0,13.6768,13.2275,13.961,14.567,14.6123,14.7768,15.1731,15.9067,15.854,16.1744,17.1378,16.7494,16.8395,17.6841,17.999,18.1719,18.2092,18.5004,18.672,18.7164,18.7164,18.7164,18.7164,18.7164,18.7271,18.7383,18.7383,18.9383,19.2857,19.2857,19.4754,19.806,19.806,19.806,19.806,19.806,19.806,19.806,19.806,19.806,19.806,19.806,19.806,19.806,19.806,19.806,19.806,19.806,19.806,19.806,19.806,19.806,19.806,19.806,19.806,19.806,19.806,19.7688,19.7459,19.791,19.6711,19.5357,19.4594,19.3684,19.2932,19.2718,19.0913,18.9932,19.1131,19.0308,18.9932,19.121,19.1361,19.1733,19.2932,19.2413,19.2492,19.3616,19.309,19.2865,19.3154,19.315,19.2778,19.1962,19.1214,19.0537,19.0086,18.8887,18.836,18.8514,18.9146,19.021,19.1658,19.1085,19.1891,0.0,0.0,13.2132,12.6895,12.7717,12.8907,12.5321,12.3081,12.2788,12.6524,0.0,0.0,0.0,0.0,0.0,0.0,13.6173,13.9906,13.5565,14.3797,15.0538,15.1137,15.4872,15.8536,16.1158,16.213,16.594,17.414,17.0182,17.0265,17.6915,18.0368,18.2167,18.2167,18.5444,18.7164,18.7164,18.7164,18.7164,18.7164,18.7164,18.7306,18.7489,18.8167,19.0161,19.2951,19.3638,19.5571,19.806,19.806,19.806,19.806,19.806,19.806,19.806,19.806,19.806,19.806,19.806,19.806,19.806,19.806,19.806,19.806,19.806,19.806,19.806,19.806,19.806,19.806,19.806,19.806,19.806,19.806,19.806,19.806,19.806,19.7312,19.6105,19.4372,19.3538,19.2481,19.0985,18.9259,18.8507,18.9485,18.8808,18.8507,18.9481,18.9631,19.0007,19.091,19.0834,19.106,19.1959,19.2492,19.3094,19.4068,19.4068,19.4368,19.5195,19.2936,19.1357,19.0684,18.9033,18.821,18.8364,18.8364,18.9051,19.0201,18.9796,19.0534,0.0,0.0,0.0,0.0,12.5698,12.5396,12.4642,0.0,12.4194,12.5315,0.0,12.7272,12.749,0.0,0.0,13.0269,13.8335,14.3563,13.9984,14.687,15.2703,15.4132,16.2047,16.5703,16.1524,16.2653,16.6837,17.444,17.1008,17.1162,17.7219,18.0443,18.2242,18.2392,18.5523,18.7164,18.7164,18.7164,18.7164,18.7164,18.7164,18.7363,18.7637,18.9362,19.1202,19.3083,19.4752,19.6485,19.806,19.806,19.806,19.806,19.806,19.806,19.806,19.806,19.806,19.806,19.806,19.806,19.806,19.806,19.806,19.806,19.806,19.806,19.806,19.806,19.806,19.806,19.806,19.806,19.806,19.806,19.806,19.806,19.806,19.806,19.7459,19.5962,19.4218,19.2481,19.0985,18.9485,18.8357,18.8206,18.8131,18.8131,18.8131,18.8131,18.8131,18.8131,18.9481,19.0458,19.0684,19.3323,19.5131,19.5586,19.5586,19.6335,19.8064,19.497,19.2485,19.0759,18.9033,18.8131,18.8131,18.8131,18.8131,18.8131,18.8131,18.9109,0.0,0.0,0.0,0.0,0.0,12.6895,0.0,0.0,0.0,13.9304,13.9086,13.7893,13.9304,14.2224,14.3872,14.2149,15.0228,15.5089,15.0389,15.8009,16.4208,16.4507,16.6227,16.7498,16.7955,16.9529,17.2296,17.6467,17.5943,17.6546,17.9167,18.1116,18.2765,18.4116,18.6122,18.7164,18.7164,18.7164,18.7164,18.7164,18.7164,18.7363,18.7637,18.9362,19.1202,19.3083,19.4752,19.6485,19.806,19.806,19.806,19.806,19.806,19.806,19.806,19.806,19.806,19.806,19.806,19.806,19.806,19.806,19.806,19.806,19.806,19.806,19.806,19.806,19.806,19.806,19.806,19.806,19.806,19.806,19.806,19.806,19.806,19.806,19.7459,19.5962,19.4218,19.2481,19.0985,19.0383,18.971,18.8357,18.8131,18.8131,18.8131,18.8131,18.8131,18.8131,18.8432,18.9184,19.0609,19.1286,19.2718,19.5357,19.5586,19.6335,19.8064,19.6105,19.3699,19.0759,18.9033,18.8131,18.8131,18.8131,18.8131,18.8131,18.8131,18.9109,12.592,12.5549,12.6602,12.5773,0.0,0.0,0.0,12.9892,13.1166,13.7731,13.841,13.8937,14.2213,14.551,14.7761,14.7761,15.4644,15.9953,16.0028,16.4287,16.7344,16.7344,16.8096,16.8923,16.9824,17.2138,17.4228,17.5864,17.6766,17.8041,17.9695,18.1265,18.2915,18.4639,18.6346,18.7164,18.7164,18.7164,18.7164,18.7164,18.7164,18.7363,18.7637,19.0199,19.1961,19.3158,19.5729,19.7312,19.806,19.806,19.806,19.806,19.806,19.806,19.806,19.806,19.806,19.806,19.806,19.806,19.806,19.806,19.806,19.806,19.806,19.806,19.806,19.806,19.806,19.806,19.806,19.806,19.806,19.806,19.806,19.806,19.806,19.806,19.7459,19.5962,19.4752,19.4071,19.3248,19.2413,19.1286,18.971,18.9409,18.9105,18.8281,18.8131,18.8131,18.8131,18.8131,18.8507,18.9334,19.0233,19.1364,19.3022,19.4605,19.5962,19.6711,19.694,19.5124,19.1883,18.9409,18.8582,18.9409,18.8582,18.8131,18.8131,18.8131,18.9109,12.2926,12.3078,12.4352,12.3297,12.4047,0.0,12.8387,13.0035,13.2282,13.6833,13.908,14.1401,14.5058,14.8654,15.1428,15.2483,15.756,16.2791,16.6821,16.7648,16.7872,16.7872,16.9371,17.0497,17.0792,17.3252,17.4888,17.5187,17.6467,17.8116,18.0144,18.1494,18.3065,18.5088,18.6496,18.7164,18.7164,18.7164,18.7182,18.7222,18.7222,18.7419,18.7768,19.1156,19.2822,19.3233,19.6553,19.806,19.806,19.806,19.806,19.806,19.806,19.806,19.806,19.806,19.806,19.806,19.806,19.806,19.806,19.806,19.806,19.806,19.806,19.806,19.806,19.806,19.806,19.806,19.806,19.806,19.806,19.806,19.806,19.806,19.806,19.806,19.7688,19.6335,19.5733,19.5357,19.5131,19.4218,19.2861,19.0985,19.0684,19.0233,18.8808,18.8357,18.8281,18.8657,18.8657,18.8808,18.9105,19.0086,19.0834,19.1131,19.3319,19.4755,19.4977,19.6331,19.5722,19.3083,19.0458,18.9631,19.0684,18.9936,18.9409,18.9105,18.8432,18.9255,11.7844,11.8827,12.1525,12.2776,12.3147,0.0,13.8251,14.1095,14.3791,15.2991,15.614,15.7033,15.6136,15.9871,16.2712,16.1382,16.4141,16.675,16.7274,16.8698,16.96,16.96,17.11,17.2666,17.407,17.4514,17.5341,17.6915,17.7219,17.864,18.1719,18.2018,18.3584,18.679,18.7089,18.7164,18.7164,18.7164,18.7253,18.7353,18.7353,18.7543,18.8028,19.1332,19.2852,19.3233,19.6553,19.806,19.806,19.806,19.806,19.806,19.806,19.806,19.806,19.806,19.806,19.806,19.806,19.806,19.806,19.806,19.806,19.806,19.806,19.806,19.806,19.806,19.806,19.806,19.806,19.806,19.806,19.806,19.806,19.806,19.806,19.806,19.806,19.7914,19.6485,19.5131,19.3538,19.4372,19.4229,19.1135,19.0684,19.0609,19.0458,18.9109,18.8733,19.0233,19.0383,19.0981,19.2331,19.1357,19.1286,19.2707,19.1808,19.1887,19.3233,19.3459,19.3383,19.3008,19.2707,19.1883,19.0684,19.3402,19.3925,19.2406,18.9481,18.9782,11.485,11.6731,11.9354,12.0018,0.0,0.0,13.6837,14.1547,14.6479,15.4483,15.673,15.7856,16.0107,16.2937,16.4802,16.4137,16.5105,16.5998,16.5998,16.8246,16.9899,16.9899,17.2213,17.3999,17.4668,17.564,17.6542,17.7215,17.7294,17.7892,17.9242,18.1116,18.3658,18.7085,18.7164,18.7164,18.7164,18.728,18.732,18.7289,18.7434,18.7613,18.7828,19.0257,19.1966,19.3158,19.5579,19.7083,19.806,19.806,19.806,19.806,19.806,19.806,19.806,19.806,19.806,19.806,19.806,19.806,19.806,19.806,19.806,19.806,19.806,19.806,19.806,19.806,19.806,19.806,19.806,19.806,19.806,19.806,19.806,19.806,19.806,19.7312,19.6335,19.535,19.4594,19.4143,19.4372,19.5131,19.5135,19.3699,19.3552,19.2797,19.091,19.0834,19.091,19.0684,19.1507,19.2331,19.2929,19.2406,19.2331,19.3008,19.2406,19.2786,19.4372,19.4601,19.4601,19.4601,19.5575,19.4744,19.203,19.4376,19.4752,19.2929,19.068,19.0831,11.2765,0.0,0.0,0.0,0.0,0.0,13.8264,14.357,14.8879,15.4633,15.6132,15.7403,16.0555,16.287,16.4208,16.368,16.4428,16.5176,16.5625,16.8549,17.0722,17.1166,17.3696,17.5486,17.5486,17.6542,17.7294,17.7294,17.7294,17.7294,17.7294,18.0368,18.3658,18.7085,18.7164,18.694,18.6496,18.6606,18.6433,18.5972,18.6664,18.6979,18.7105,18.9411,19.1106,19.2485,19.4601,19.6335,19.7312,19.7312,19.7688,19.806,19.806,19.806,19.806,19.806,19.806,19.806,19.806,19.806,19.806,19.806,19.806,19.806,19.806,19.806,19.806,19.806,19.806,19.806,19.806,19.806,19.8053,19.8082,19.7654,19.7312,19.7312,19.5733,19.4,19.3162,19.2707,19.2936,19.4601,19.5128,19.5586,19.5586,19.5586,19.4755,19.2342,19.2635,19.2786,19.2116,19.3015,19.3917,19.4365,19.3989,19.3688,19.3688,19.2857,19.2936,19.4154,19.4601,19.4752,19.4752,19.6932,19.6707,19.3688,19.5353,19.5353,19.3688,19.2564,19.2643,0.0,0.0,0.0,12.5782,13.0337,13.5861,14.7241,15.1137,15.338,15.6813,15.8753,15.943,15.8005,16.0406,16.2051,16.0402,16.2862,16.5546,16.7045,17.0202,17.289,17.4444,17.6168,17.7219,17.7219,17.7215,17.7294,17.7294,17.7294,17.7294,17.7294,18.0368,18.3658,18.7085,18.7164,18.6421,18.4793,18.4876,18.4221,18.2896,18.4644,18.5561,18.5793,18.9173,19.068,19.091,19.4154,19.5586,19.5583,19.5583,19.6485,19.806,19.806,19.806,19.806,19.806,19.806,19.806,19.806,19.806,19.806,19.806,19.806,19.806,19.806,19.806,19.806,19.806,19.806,19.806,19.806,19.806,19.8097,19.7704,19.6742,19.5583,19.5583,19.3098,19.1282,19.2707,19.1808,19.1282,19.2857,19.4372,19.5586,19.5586,19.5586,19.5586,19.5357,19.3992,19.3616,19.5131,19.5357,19.6109,19.7914,19.6335,19.5586,19.5586,19.2496,19.0759,19.0834,19.2259,19.3083,19.3083,19.6327,19.7312,19.5586,19.7083,19.7083,19.5586,19.5357,19.5357,11.6667,12.055,12.563,13.2808,13.8713,14.4093,14.9114,15.3227,15.6588,15.8757,15.9579,15.9804,15.928,15.9206,15.9056,15.8532,16.0249,16.2271,16.3921,16.7959,17.132,17.2965,17.5574,17.7294,17.7294,17.7294,17.7294,17.7294,17.7294,17.7742,17.8868,18.0966,18.3139,18.5458,18.5532,18.471,18.299,18.3281,18.3171,18.2602,18.4645,18.5541,18.5569,18.7934,18.9631,19.0759,19.1816,19.2342,19.2417,19.3466,19.4218,19.4741,19.5955,19.6335,19.6485,19.7688,19.806,19.806,19.806,19.806,19.806,19.806,19.806,19.806,19.806,19.806,19.806,19.806,19.806,19.7914,19.6711,19.633,19.5905,19.4615,19.5004,19.5197,19.3995,19.1219,18.9184,18.9707,19.0308,19.121,19.2782,19.4372,19.5962,19.7087,19.7312,19.694,19.5737,19.6105,19.6105,19.5583,19.6485,19.7463,19.806,19.7459,19.7312,19.7312,19.5128,19.3925,19.3925,19.3312,19.3538,19.4752,19.5733,19.6113,19.5586,19.7312,19.7684,19.7083,19.6113,19.5586,11.9874,12.4735,13.0266,13.9161,14.4997,14.9409,15.2255,15.5392,15.7934,15.8906,15.9131,15.9131,15.9131,15.8304,15.7631,15.7631,15.8981,16.0776,16.3094,16.6605,16.982,17.2151,17.4236,17.5723,17.6317,17.6392,17.6616,17.7215,17.7294,17.7742,17.8868,18.0966,18.2392,18.2915,18.4041,18.3817,18.2167,18.1858,18.1751,18.1706,18.3677,18.4948,18.5572,18.7332,18.8733,18.9782,18.9782,19.0158,19.0759,19.1808,19.2481,19.3158,19.4218,19.4977,19.5737,19.6711,19.7459,19.8064,19.7308,19.7459,19.791,19.7312,19.7459,19.791,19.7312,19.7688,19.7914,19.6553,19.7083,19.7459,19.5124,19.496,19.4777,19.3093,19.3515,19.3669,19.1399,18.9441,18.8295,18.8947,18.9936,19.1361,19.3541,19.4752,19.6109,19.7914,19.806,19.7688,19.6485,19.7463,19.7688,19.6485,19.7463,19.806,19.806,19.806,19.806,19.806,19.6489,19.5586,19.5586,19.3917,19.3538,19.4601,19.5128,19.5962,19.6489,19.7459,19.806,19.806,19.6335,19.5962,12.1508,12.6446,13.221,14.5072,14.9488,15.1881,15.6435,15.7557,15.7631,15.7557,15.7557,15.7631,15.7631,15.7631,15.7631,15.7631,15.8903,16.1071,16.4428,16.6223,16.8474,17.1926,17.2375,17.2969,17.4444,17.4743,17.5416,17.699,17.714,17.7215,17.7368,18.0219,18.1265,17.9994,18.2845,18.3667,18.2018,18.0614,17.9963,18.0216,18.2047,18.3859,18.5732,18.7383,18.8131,18.8131,18.8131,18.9109,19.0534,19.0534,19.1436,19.2782,19.2857,19.3842,19.5357,19.5357,19.6485,19.7688,19.6113,19.6485,19.7688,19.6113,19.6711,19.7688,19.5962,19.6556,19.7308,19.3989,19.5346,19.7083,19.3763,19.3818,19.4357,19.3027,19.2357,19.1167,18.8334,18.7836,18.8457,19.0343,19.0831,19.1891,19.4981,19.5583,19.6109,19.7914,19.806,19.806,19.806,19.806,19.806,19.806,19.806,19.806,19.806,19.806,19.806,19.806,19.6485,19.5583,19.5586,19.3917,19.3083,19.3158,19.4752,19.6335,19.7914,19.8064,19.806,19.806,19.6489,19.6485,13.0487,13.8339,14.4773,15.307,15.5463,15.5762,15.5754,15.673,15.7332,15.5979,15.6805,15.7631,15.7631,15.7631,15.7631,15.7631,15.8005,15.943,16.2645,16.4586,16.6825,17.0123,17.1623,17.2599,17.2969,17.4074,17.4892,17.5341,17.5416,17.6467,17.9018,17.8793,17.9466,18.1494,18.1191,18.0817,18.0443,17.8766,17.8717,18.0216,18.2047,18.3859,18.5732,18.7383,18.8131,18.8131,18.8131,18.8432,18.8808,18.8808,18.9033,18.9556,19.0759,19.1511,19.2041,19.324,19.4748,19.6109,19.5737,19.5733,19.6109,19.5737,19.5733,19.5959,19.4143,19.4748,19.5733,19.3613,19.3609,19.3838,19.1808,19.1344,19.1249,19.0919,18.9611,18.864,18.9189,18.838,18.8137,19.0011,19.2493,19.4605,19.5357,19.6485,19.7459,19.8064,19.806,19.806,19.806,19.806,19.806,19.806,19.806,19.806,19.806,19.806,19.806,19.806,19.7688,19.694,19.5586,19.3917,19.3616,19.4981,19.5357,19.5128,19.4289,19.6929,19.806,19.806,19.7688,19.7688,13.0861,14.0507,14.9335,15.5986,15.7631,15.7183,15.553,15.5829,15.6282,15.5302,15.5904,15.6805,15.7482,15.7631,15.7631,15.7631,15.823,15.928,16.1154,16.287,16.4885,16.7423,16.8624,16.9749,17.1174,17.2138,17.2957,17.363,17.4369,17.5565,17.7439,17.812,17.8868,17.999,17.9919,17.9471,17.8719,17.7742,17.8218,18.0068,18.2648,18.4878,18.6687,18.773,18.8131,18.8131,18.8131,18.8131,18.8131,18.8131,18.8131,18.8281,18.9184,19.0007,19.0759,19.1658,19.3015,19.4372,19.3624,19.3846,19.4297,19.3624,19.3849,19.4146,19.2485,19.3165,19.3921,19.1586,19.191,19.2399,19.0143,18.9791,18.9871,18.912,18.8036,18.749,18.8495,18.7988,18.7967,18.9812,19.3055,19.5725,19.6549,19.7463,19.806,19.806,19.806,19.806,19.806,19.806,19.806,19.806,19.806,19.806,19.806,19.806,19.806,19.806,19.806,19.7688,19.6711,19.4974,19.4218,19.4372,19.4372,19.4372,19.4146,19.6105,19.7312,19.806,19.806,19.806,12.9518,13.9239,14.963,15.6061,15.7478,15.6958,15.5452,15.5152,15.5152,15.5152,15.4932,15.5384,15.7332,15.7478,15.7407,15.7631,15.8981,15.9953,15.9953,16.1602,16.3322,16.4582,16.5101,16.6372,16.8998,16.9675,17.0572,17.23,17.3709,17.4668,17.5042,17.7668,17.8569,17.7294,17.8719,17.8793,17.7294,17.7294,17.8116,17.9849,18.3255,18.5988,18.7987,18.8141,18.8131,18.8131,18.8131,18.8131,18.8131,18.8131,18.8131,18.8131,18.8131,18.9033,19.0383,19.0383,19.1357,19.2481,19.1135,19.1583,19.2485,19.1131,19.1583,19.2406,19.0834,19.1432,19.2109,18.9033,19.0126,19.1537,18.8821,18.8812,18.9223,18.7871,18.7345,18.7164,18.7164,18.7298,18.7948,18.9833,19.2799,19.5553,19.7698,19.8049,19.806,19.806,19.806,19.806,19.806,19.806,19.806,19.806,19.806,19.806,19.806,19.806,19.806,19.806,19.806,19.806,19.806,19.6489,19.4752,19.3387,19.3387,19.3992,19.5128,19.5357,19.6335,19.7688,19.791,19.806,14.1554,14.702,15.1058,15.636,15.6581,15.5455,15.5152,15.5152,15.5152,15.5152,15.4042,15.3975,15.7112,15.6506,15.5979,15.7407,15.8981,15.9953,15.9953,16.2638,16.4208,16.3098,16.5333,16.6671,16.5924,16.8325,17.0572,17.23,17.2674,17.4012,17.6691,17.6093,17.6164,17.7215,17.7593,17.7593,17.7294,17.7294,17.8116,17.9849,18.2007,18.4751,18.7987,18.8141,18.8131,18.8131,18.8131,18.8131,18.8131,18.8131,18.8131,18.8131,18.8131,18.836,18.8582,18.8582,18.9631,19.106,19.0759,19.0834,19.106,19.0759,19.0834,19.0759,18.9105,18.9782,19.0684,18.8733,18.8476,18.8663,18.8164,18.7902,18.7766,18.7496,18.7333,18.7164,18.7164,18.7191,18.8165,19.1247,19.2308,19.3807,19.7122,19.7893,19.806,19.806,19.806,19.806,19.806,19.806,19.806,19.806,19.806,19.806,19.806,19.806,19.806,19.806,19.806,19.806,19.806,19.6489,19.5357,19.5131,19.5131,19.4601,19.3462,19.4752,19.5737,19.5959,19.7463,19.806,13.8033,14.4396,14.9709,15.3002,15.5089,15.5983,15.4195,15.4487,15.5152,15.5152,15.4487,15.464,15.7183,15.6955,15.673,15.7482,15.9729,16.1004,16.0103,16.2862,16.4432,16.2728,16.3921,16.4885,16.5022,16.7199,16.9297,17.095,17.2662,17.4303,17.5864,17.6014,17.6467,17.7289,17.7294,17.7294,17.7294,17.8116,17.9392,18.1045,18.2876,18.512,18.7773,18.7847,18.7977,18.8131,18.8131,18.8131,18.8131,18.8131,18.8131,18.8131,18.8131,18.8131,18.8131,18.8131,18.8657,18.9331,18.9331,18.9331,18.9331,18.9331,18.9331,18.9184,18.8432,18.8733,18.9184,18.8432,18.7962,18.7789,18.7961,18.7584,18.7333,18.7362,18.7311,18.7164,18.7164,18.7164,18.8168,19.1488,19.2189,19.3361,19.6898,19.7678,19.7885,19.8049,19.806,19.806,19.806,19.806,19.806,19.806,19.806,19.806,19.806,19.806,19.806,19.806,19.806,19.806,19.806,19.7312,19.6489,19.5586,19.5586,19.4752,19.3008,19.4752,19.5586,19.5586,19.7312,19.806,13.5042,14.2074,14.8733,15.0834,15.3447,15.5018,15.3006,15.3597,15.4782,15.553,15.4782,15.4782,15.7183,15.7033,15.6809,15.7557,16.0406,16.1905,16.0178,16.3161,16.4656,16.2275,16.2578,16.3318,16.3909,16.5998,16.8096,16.9749,17.2878,17.4892,17.5266,17.6542,17.7294,17.7294,17.7294,17.7294,17.7294,17.8569,18.0219,18.2167,18.3586,18.5395,18.7513,18.7586,18.7843,18.8159,18.812,18.8131,18.8131,18.8131,18.8131,18.8131,18.8131,18.8131,18.8131,18.8131,18.8131,18.8131,18.8131,18.8131,18.8131,18.8131,18.8131,18.8131,18.8131,18.8131,18.8128,18.8095,18.7874,18.7586,18.7773,18.753,18.7204,18.7359,18.7276,18.7164,18.7164,18.7463,18.8589,19.151,19.239,19.3718,19.6706,19.7487,19.7672,19.8109,19.806,19.806,19.806,19.806,19.806,19.806,19.806,19.806,19.806,19.806,19.806,19.806,19.806,19.806,19.806,19.806,19.7463,19.6109,19.5737,19.4981,19.3538,19.4601,19.5128,19.5586,19.6936,19.7688,14.4695,14.8138,15.0759,15.3885,15.1645,14.9335,15.1959,15.2711,15.3679,15.6734,15.3821,15.2105,15.6809,15.5171,15.4049,15.7108,16.0406,16.1905,16.0178,16.4137,16.5404,16.0776,16.2937,16.3684,16.0701,16.466,16.8096,16.9749,17.2878,17.5416,17.699,17.7219,17.7294,17.7294,17.7294,17.7294,17.7294,17.7443,17.9088,18.2167,18.2334,18.4159,18.7421,18.7745,18.7976,18.801,18.8073,18.8131,18.8131,18.8131,18.8131,18.8131,18.8131,18.8131,18.8131,18.8131,18.8131,18.8131,18.8131,18.8131,18.8131,18.8131,18.8131,18.8131,18.8131,18.8131,18.8181,18.8044,18.7789,18.7529,18.7472,18.7337,18.7164,18.7187,18.7173,18.7164,18.7164,18.8286,18.9856,19.1735,19.3328,19.4948,19.7084,19.7466,19.7683,19.809,19.806,19.806,19.806,19.806,19.806,19.806,19.806,19.806,19.806,19.806,19.806,19.806,19.806,19.806,19.806,19.806,19.8064,19.7914,19.6335,19.5586,19.5357,19.3917,19.4068,19.5586,19.5737,19.6485,13.0721,13.7003,14.2604,14.1918,14.5514,14.9335,14.9563,14.8138,14.7985,15.2326,15.3223,15.3519,15.4423,15.5171,15.5766,15.6057,15.9729,16.2279,16.1602,16.4885,16.6302,16.3385,16.3314,16.3393,16.3011,16.4802,16.7049,16.9675,17.2878,17.5042,17.5715,17.6691,17.7294,17.7294,17.7294,17.7294,17.7294,17.8266,17.9471,18.0742,18.2799,18.4484,18.5814,18.7142,18.7745,18.7761,18.8025,18.8131,18.8131,18.8131,18.8131,18.8131,18.8131,18.8131,18.8131,18.8131,18.8131,18.8131,18.8131,18.8131,18.8131,18.8131,18.8131,18.8117,18.8104,18.8074,18.804,18.7796,18.7621,18.7472,18.7404,18.7311,18.7164,18.7164,18.7164,18.7164,18.7164,18.8435,19.001,19.1739,19.3384,19.516,19.6945,19.7314,19.7512,19.7658,19.7854,19.806,19.806,19.806,19.806,19.806,19.806,19.806,19.806,19.806,19.806,19.806,19.806,19.806,19.806,19.806,19.806,19.806,19.7463,19.6485,19.5586,19.5955,19.5955,19.5586,19.6485,19.7463,12.2872,12.915,13.5422,13.4593,13.946,14.4705,14.6037,14.4535,14.4239,14.9263,15.1649,15.2991,15.3298,15.4872,15.5911,15.5227,15.8832,16.1905,16.2433,16.4889,16.6223,16.5176,16.3987,16.3543,16.4212,16.5176,16.6671,16.8998,17.2209,17.4294,17.4739,17.5864,17.6766,17.7289,17.7294,17.7294,17.7294,17.8494,17.9317,17.9845,18.2671,18.4014,18.398,18.5932,18.7067,18.7578,18.7946,18.8091,18.8131,18.8131,18.8131,18.8131,18.8131,18.8131,18.8131,18.8131,18.8131,18.8131,18.8131,18.8131,18.8131,18.8131,18.8131,18.8038,18.7484,18.7571,18.7795,18.7089,18.7139,18.737,18.7314,18.7271,18.7164,18.7164,18.7164,18.7164,18.7164,18.8809,19.0608,19.1809,19.3828,19.5562,19.689,19.7323,19.7483,19.7458,19.7878,19.806,19.806,19.806,19.806,19.806,19.806,19.806,19.806,19.806,19.806,19.806,19.806,19.806,19.806,19.806,19.806,19.806,19.806,19.7463,19.6335,19.6936,19.6936,19.6335,19.6932,19.7688,12.8026,12.9225,13.1693,13.6547,13.4158,13.2812,14.1021,14.2886,14.4239,14.9263,14.8961,14.9253,15.4184,15.3747,15.3152,15.4857,15.7852,16.0552,16.2279,16.3987,16.5026,16.5022,16.5022,16.4357,16.2728,16.5412,16.7344,16.7348,17.0501,17.3114,17.4664,17.4739,17.5565,17.7215,17.7294,17.7294,17.7294,17.7294,17.8116,17.9845,18.1419,18.2167,18.2246,18.4078,18.5903,18.757,18.7832,18.807,18.8131,18.8131,18.8131,18.8131,18.8131,18.8131,18.8131,18.8131,18.8131,18.8131,18.8131,18.8131,18.8131,18.8131,18.8131,18.783,18.618,18.6751,18.757,18.5739,18.6319,18.734,18.7218,18.7164,18.7164,18.7164,18.7164,18.7164,18.7164,18.9711,19.2034,19.2038,19.4567,19.6941,19.7294,19.749,19.7525,19.7703,19.7878,19.806,19.806,19.806,19.806,19.806,19.806,19.806,19.806,19.806,19.806,19.806,19.806,19.806,19.806,19.806,19.806,19.806,19.806,19.806,19.806,19.6335,19.6489,19.8064,19.6335,19.6489,12.1298,12.5785,13.0796,13.2366,13.4158,13.7067,14.3114,14.446,14.5589,14.9488,14.7985,14.6856,14.9552,15.3369,15.6214,15.673,15.9579,16.2275,16.3987,16.5629,16.7049,16.825,16.6376,16.5699,16.7431,16.6451,16.6223,16.7274,17.0497,17.2595,17.3114,17.5275,17.6766,17.7289,17.7294,17.7294,17.7294,17.7294,17.7518,17.812,17.9766,18.0518,18.0676,18.3554,18.5162,18.5832,18.7334,18.801,18.8063,18.8091,18.8131,18.8131,18.8131,18.8131,18.8131,18.8131,18.8131,18.8131,18.8131,18.8131,18.8131,18.8131,18.7383,18.6291,18.5546,18.4913,18.444,18.4749,18.5145,18.5542,18.5475,18.6346,18.7164,18.7164,18.7164,18.7164,18.7164,18.9786,19.2038,19.2038,19.4796,19.6899,19.7115,19.7294,19.749,19.7521,19.7703,19.7854,19.8049,19.806,19.806,19.806,19.806,19.806,19.806,19.806,19.806,19.806,19.806,19.806,19.806,19.806,19.806,19.806,19.806,19.806,19.806,19.7459,19.7459,19.806,19.7459,19.7459,11.9647,12.4657,12.9823,13.1088,13.3179,13.6622,14.289,14.289,14.2669,14.6639,14.6785,14.6486,14.7536,15.2101,15.5911,15.6581,15.8906,16.1449,16.3763,16.5479,16.7124,16.8773,16.7722,16.7648,16.9675,16.81,16.7274,16.8246,17.0273,17.1997,17.326,17.52,17.6616,17.7289,17.7294,17.7294,17.7294,17.7294,17.7294,17.7294,17.8345,17.9167,17.9849,18.1985,18.3646,18.492,18.6271,18.7267,18.7916,18.7402,18.755,18.8135,18.7458,18.7605,18.8131,18.8131,18.8131,18.8131,18.8131,18.8131,18.8131,18.8131,18.7007,18.546,18.46,18.3567,18.2707,18.2876,18.372,18.4644,18.4644,18.5458,18.6421,18.7014,18.7164,18.7314,18.7912,19.016,19.2263,19.2861,19.517,19.6875,19.6875,19.7123,19.7093,19.6532,19.672,19.6743,19.6154,19.6098,19.6327,19.7087,19.7087,19.7312,19.806,19.806,19.806,19.806,19.806,19.806,19.806,19.806,19.806,19.806,19.806,19.806,19.806,19.806,19.806,19.806,19.806,19.806,12.225,12.5546,12.8845,13.2123,13.2204,13.3485,14.117,13.9304,13.7285,14.1768,14.5062,14.7312,14.7689,15.0236,15.3002,15.531,15.6655,15.8678,16.2204,16.3913,16.555,16.7344,16.8923,16.9899,17.0049,16.9974,16.9899,16.9899,16.9974,17.1461,17.4593,17.4888,17.564,17.7215,17.7368,17.7368,17.7294,17.7368,17.7368,17.7294,17.7294,17.8116,17.9616,17.9766,18.151,18.4516,18.4753,18.593,18.7664,18.6233,18.6557,18.7834,18.6405,18.6706,18.7981,18.8131,18.8131,18.8131,18.8131,18.8131,18.8131,18.8131,18.6932,18.5102,18.3439,18.2673,18.2048,18.0443,18.2072,18.4345,18.4345,18.449,18.5088,18.6645,18.7089,18.7608,18.9183,19.0833,19.2562,19.4216,19.5768,19.6875,19.6875,19.7109,19.6706,19.5182,19.5132,19.4774,19.3211,19.3008,19.3616,19.5128,19.5357,19.6109,19.7688,19.791,19.791,19.791,19.8064,19.806,19.806,19.806,19.806,19.806,19.806,19.806,19.806,19.806,19.806,19.806,19.806,19.806,12.2848,12.5546,12.8845,13.2123,13.7357,14.1925,14.2666,14.1993,14.1099,14.0959,14.1561,14.3206,14.7016,14.8362,15.1503,15.9508,15.793,15.7773,16.3606,16.3692,16.4664,16.8773,16.9675,17.0422,17.1702,17.0651,16.9899,16.9899,17.11,17.2666,17.4664,17.5939,17.6841,17.7289,17.8569,17.8569,17.7294,17.8569,17.8569,17.7294,17.7294,17.7514,17.7892,17.9246,18.024,18.1115,18.3725,18.5257,18.5988,18.6946,18.6943,18.6334,18.7229,18.7007,18.6405,18.7684,18.8131,18.8131,18.8131,18.8131,18.8131,18.8131,18.6104,18.3581,18.2937,18.0934,17.9021,17.9694,18.0403,18.0971,18.0971,18.2765,18.4793,18.5163,18.6271,18.7608,18.9183,19.0833,19.2562,19.4216,19.5768,19.6875,19.6875,19.6918,19.6543,19.5161,19.4949,19.456,19.3196,19.3008,19.3158,19.3538,19.3613,19.4293,19.5959,19.6109,19.6109,19.6109,19.7312,19.806,19.806,19.806,19.806,19.806,19.806,19.806,19.806,19.806,19.806,19.806,19.806,19.806,12.4948,12.839,13.1388,13.0858,13.4597,13.804,13.6466,13.7207,13.8026,13.7139,13.8719,14.1639,14.5816,14.6561,14.8808,15.5773,15.6513,15.7549,16.1142,16.3389,16.5188,16.6388,16.9155,17.08,17.0198,17.1312,17.1839,17.11,17.1926,17.3418,17.579,17.6014,17.6467,17.7289,17.8191,17.8195,17.7294,17.8943,17.8943,17.7294,17.7294,17.7294,17.7294,17.8266,17.9093,17.9924,18.1747,18.3463,18.5065,18.5392,18.6008,18.6612,18.6079,18.5732,18.5657,18.5807,18.633,18.7082,18.7906,18.8131,18.8131,18.8131,18.5832,18.2961,18.2793,18.0323,17.7715,17.8421,17.8644,17.8793,17.962,18.1116,18.2845,18.4345,18.5387,18.6874,19.001,19.1435,19.2782,19.5174,19.6361,19.6875,19.6875,19.6875,19.6492,19.5156,19.4986,19.4211,19.2218,19.1959,19.1959,19.1959,19.1959,19.2635,19.4222,19.4372,19.4752,19.5586,19.6335,19.7312,19.806,19.806,19.806,19.806,19.806,19.806,19.806,19.806,19.806,19.806,19.806,19.806,12.7349,13.1534,13.3998,12.9593,12.9446,13.0051,12.8474,13.0633,13.2867,13.2646,13.6694,14.1258,14.4314,14.5286,14.6557,14.9413,15.4046,15.7328,15.7631,16.2787,16.5707,16.3173,16.8262,17.1025,16.8399,17.1681,17.3555,17.2525,17.245,17.3713,17.677,17.579,17.579,17.7215,17.7518,17.7518,17.7294,17.8719,17.8719,17.7294,17.7294,17.7294,17.7294,17.7294,17.8041,17.9471,17.9695,18.1448,18.4096,18.3369,18.4732,18.6909,18.4762,18.444,18.5095,18.4221,18.4604,18.5879,18.7608,18.812,18.8095,18.8069,18.5873,18.3185,18.2802,18.0465,17.7819,17.7419,17.7294,17.7593,17.9018,17.962,18.0592,18.3592,18.4639,18.6355,19.1062,19.2258,19.3305,19.6357,19.6875,19.6875,19.6875,19.6875,19.6492,19.5156,19.4986,19.3915,19.1095,19.0684,19.0609,19.0308,19.0308,19.091,19.2556,19.2707,19.324,19.4755,19.4755,19.5733,19.7688,19.7688,19.7914,19.806,19.806,19.806,19.806,19.806,19.806,19.806,19.806,19.806,12.7951,13.0633,13.2799,13.0643,13.0275,13.0051,12.8474,13.0633,13.2571,13.1088,13.5881,14.0959,14.289,14.551,14.7536,14.8063,15.2244,15.5979,15.7482,16.0855,16.3621,16.4507,16.7951,17.0647,17.1552,17.1021,17.117,17.23,17.245,17.3189,17.5042,17.6238,17.699,17.7294,17.8644,17.8719,17.7294,17.7518,17.7518,17.7294,17.7294,17.7294,17.7294,17.7294,17.7443,17.7742,17.9167,18.0172,18.0946,18.3744,18.4357,18.3737,18.6368,18.5717,18.3657,18.643,18.6631,18.5879,18.7608,18.8051,18.7995,18.7769,18.6426,18.4574,18.3059,18.1183,17.9245,17.7719,17.7294,17.7368,17.7588,17.8719,18.0293,18.2092,18.4701,18.7762,19.1286,19.316,19.4805,19.6506,19.6875,19.6875,19.6875,19.6875,19.6492,19.5156,19.4986,19.3915,19.1095,19.0684,19.0158,18.8733,18.8582,18.9259,19.091,19.106,19.1135,19.1436,19.1436,19.2797,19.5733,19.5962,19.6485,19.806,19.806,19.806,19.806,19.806,19.806,19.806,19.806,19.806,12.915,13.1157,13.2571,13.0867,13.1088,13.1384,12.9746,13.1232,13.302,13.3107,13.5575,13.8488,14.1031,14.2754,14.4627,14.7312,14.9627,15.2618,15.7029,16.1225,16.3838,16.3692,16.7356,16.982,16.9675,17.0647,17.1552,17.2375,17.245,17.3114,17.4664,17.5491,17.6313,17.7289,17.8041,17.7593,17.5939,17.5939,17.5939,17.5939,17.5939,17.5499,17.4685,17.4685,17.4685,17.4685,17.5437,17.6829,17.863,18.0317,18.2184,18.3999,18.4854,18.4825,18.4163,18.3939,18.4551,18.5508,18.5276,18.6463,18.7953,18.7622,18.6451,18.4712,18.306,18.192,18.0625,17.7992,17.7294,17.7294,17.7294,17.8569,18.0219,18.1789,18.4701,18.8061,19.1361,19.3384,19.4955,19.6506,19.6875,19.6731,19.5768,19.6361,19.6156,19.3832,19.4327,19.3878,19.0832,19.0632,19.0082,18.836,18.8131,18.8511,18.9255,18.9334,18.9334,18.9334,19.0158,19.1364,19.2872,19.4605,19.5962,19.6711,19.7688,19.806,19.806,19.806,19.806,19.806,19.806,19.806,13.0942,0.0,13.4294,13.2587,13.2877,13.3244,0.0,13.2652,13.3917,13.5192,13.6092,13.7367,13.9844,14.0664,14.2305,14.6489,14.7162,14.9481,15.6132,15.9946,16.2043,16.1901,16.5641,16.7805,16.6896,16.9147,17.0875,17.1174,17.1623,17.2367,17.3551,17.3999,17.4822,17.6097,17.6101,17.5499,17.4224,17.4593,17.4739,17.4739,17.4739,17.4149,17.2969,17.2599,17.245,17.245,17.245,17.3866,17.6189,17.6687,17.9353,18.2993,18.2387,18.2892,18.376,18.163,18.2023,18.3612,18.341,18.478,18.6793,18.7325,18.656,18.5068,18.3047,18.2575,18.2167,17.9242,17.8116,17.7967,17.834,17.9093,18.0293,18.2242,18.5,18.8061,19.1361,19.3384,19.4959,19.6137,19.6731,19.6361,19.4361,19.5324,19.5385,19.2154,19.2931,19.2728,18.9534,18.9389,18.8883,18.7157,18.7308,18.7533,18.7533,18.7909,18.8131,18.8131,18.9406,19.0308,19.0684,19.3395,19.5131,19.5586,19.7312,19.806,19.806,19.806,19.806,19.806,19.806,19.806,0.0,13.7445,13.9396,13.7744,13.6316,13.527,13.512,13.5192,0.0,13.5494,13.7893,14.0069,14.0293,14.1629,14.3264,14.5058,14.5361,14.7679,15.4334,15.427,15.5175,15.9658,16.1831,16.3621,16.5026,16.54,16.6152,16.7648,16.9147,17.0123,17.0198,17.1773,17.2595,17.2749,17.2749,17.2674,17.2599,17.3999,17.4739,17.4739,17.4739,17.4668,17.4519,17.3114,17.245,17.245,17.245,17.2525,17.2915,17.4591,17.628,17.8022,17.9731,18.0359,18.0522,18.1977,18.0772,17.9055,18.3528,18.4099,18.3372,18.6431,18.7196,18.6439,18.3157,18.3227,18.4116,18.2317,18.0742,17.9994,18.1415,18.0817,18.0592,18.3742,18.5902,18.8061,19.1361,19.3384,19.459,19.4735,19.5918,19.5908,19.2782,19.3609,19.3683,19.0582,19.0304,18.9356,18.6158,18.5939,18.5356,18.363,18.4905,18.5807,18.5807,18.7232,18.8131,18.8131,18.8281,18.9033,19.0609,19.2334,19.3917,19.5586,19.7312,19.806,19.806,19.806,19.806,19.806,19.806,19.806,13.5572,13.8641,14.0218,13.9542,13.894,13.8192,13.7142,13.6167,13.5793,13.6765,13.7142,13.7591,13.8566,13.9311,14.0949,14.4613,14.5208,14.7155,15.2774,15.4794,15.6813,15.9654,16.2417,16.4731,16.6298,16.466,16.496,16.8698,16.8549,16.9222,17.1324,17.2076,17.1478,16.9371,16.9297,16.9749,17.0875,17.2441,17.3264,17.3339,17.4298,17.3696,17.1685,17.1095,17.0273,16.9297,16.9297,16.9899,0.0,17.1551,17.3397,17.5877,17.7674,17.8963,17.9952,18.063,18.088,18.0728,18.0389,18.1275,18.2569,18.2609,18.4019,18.5383,18.4116,18.277,18.127,17.9616,17.9471,17.9919,18.0518,18.1719,18.3144,18.434,18.6724,18.8959,19.0234,19.1809,19.301,19.301,19.3454,19.2852,18.9561,19.0389,18.9967,18.5704,18.6093,18.6119,18.4045,18.3838,18.3752,18.3168,18.4604,18.4826,18.2792,18.4074,18.498,18.498,18.6029,18.6856,18.7533,19.0158,19.2334,19.3917,19.5579,19.7087,19.806,19.806,19.806,19.806,19.806,19.806,13.6772,13.9464,14.1109,14.1109,14.1109,14.0585,13.8339,13.6993,13.6391,13.6989,13.6245,13.5943,13.7516,13.7815,13.9086,14.3046,14.4086,14.6034,15.046,15.39,15.6813,15.8981,16.174,16.4058,16.5707,16.3771,16.4294,16.8777,16.7573,16.81,17.1478,17.11,16.9749,16.7419,16.7344,16.7947,16.9072,17.08,17.1926,17.245,17.3484,17.3106,17.139,17.0344,16.9525,16.8923,16.8399,16.8848,16.9899,16.9899,17.1237,17.3326,17.4452,17.6322,17.8195,17.8195,17.902,17.9861,17.8537,17.9323,18.083,18.0631,18.2018,18.3892,18.3892,18.2317,18.0293,17.9167,17.9317,17.9919,18.0443,18.2167,18.3966,18.4494,18.6804,18.8959,18.9407,19.0833,19.2038,19.2038,19.2487,19.1664,18.7837,18.851,18.7842,18.2911,18.3295,18.3622,18.2143,18.2013,18.1955,18.1579,18.3551,18.3924,18.174,18.3025,18.3702,18.3179,18.4228,18.483,18.483,18.806,19.0383,19.1432,19.415,19.6109,19.7312,19.7914,19.806,19.806,19.806,19.806,13.7438,14.028,14.2886,14.2886,14.2886,14.1993,13.856,13.7815,13.7367,13.5793,13.5494,13.5943,13.7516,13.7815,13.8342,14.0065,14.1775,14.4011,14.7312,15.0535,15.3829,15.7257,15.9056,16.063,16.2354,16.2508,16.3846,16.7124,16.592,16.6447,16.9745,16.825,16.7344,16.7344,16.7344,16.7344,16.7344,16.9072,17.0726,17.245,17.245,17.326,17.4664,17.1386,17.0871,17.23,17.0651,16.9899,16.9899,16.9899,16.9899,16.9899,16.9899,17.191,17.4739,17.4739,17.4739,17.5266,17.8569,17.8644,17.7817,18.1041,18.2088,18.2092,18.2088,18.2088,18.2088,18.2088,18.0966,18.0144,18.1719,18.2167,18.2616,18.4265,18.5977,18.7608,18.9183,19.0837,19.1959,19.1959,19.3389,19.2936,18.7987,18.8435,18.7842,18.2911,18.2318,18.1974,18.0414,18.0351,17.9834,17.8411,18.122,18.3104,18.3104,18.4679,18.4905,18.3179,18.3104,18.3104,18.3104,18.6405,18.8131,18.8206,19.3026,19.5586,19.5586,19.7312,19.806,19.806,19.806,19.806,13.8865,14.029,14.1405,14.2591,14.1999,14.0511,13.8342,13.6989,13.5718,13.4067,13.3693,13.3842,13.4291,13.5341,13.6694,13.8342,14.1921,14.5286,14.7383,15.0535,15.4277,15.8757,15.9729,16.1071,16.3987,16.4283,16.518,16.7195,16.592,16.6447,16.9745,16.825,16.7344,16.7344,16.7344,16.7344,16.7344,16.9072,17.0726,17.245,17.3559,17.4298,17.4739,17.3771,17.2957,17.2375,17.1926,17.1702,17.1702,17.1702,17.0946,16.9974,17.1174,17.2296,17.326,17.4369,17.5491,17.6467,17.6317,17.6691,17.7215,17.699,17.8565,18.0293,17.9093,17.8714,17.8714,17.8714,17.8415,17.8415,18.0069,18.2167,18.4041,18.4569,18.5977,18.7314,18.7762,18.8286,18.866,18.866,18.9038,18.8519,18.5831,18.5757,18.5233,18.2537,18.2215,18.2207,18.1977,18.198,18.1968,18.1719,18.3627,18.4382,18.3179,18.3551,18.363,18.3179,18.4228,18.4905,18.4905,18.7007,18.8733,18.9932,19.2489,19.4372,19.5586,19.7312,19.806,19.806,19.806,19.806,13.8791,13.9318,13.9613,14.0575,14.0582,13.9542,13.6541,13.5192,13.3998,13.2279,13.1453,13.1602,13.3618,13.4818,13.6466,13.9379,14.2818,14.6034,14.8437,15.1503,15.5167,15.9505,16.0552,16.2047,16.4727,16.5022,16.4877,16.4432,16.4208,16.518,16.7797,16.6975,16.675,16.7344,16.7344,16.7344,16.7344,16.8395,16.9749,17.1399,17.3036,17.4149,17.4739,17.4739,17.4597,17.4311,17.3638,17.3335,17.3335,17.3335,17.2367,17.1025,17.2001,17.282,17.3484,17.4369,17.5794,17.714,17.6089,17.6392,17.714,17.6089,17.714,17.8565,17.7593,17.7294,17.7294,17.7294,17.7294,17.7518,17.8569,18.0219,18.1868,18.2541,18.4485,18.6201,18.6201,18.7239,18.8136,18.8136,18.8136,18.7617,18.5977,18.5682,18.5084,18.3368,18.3144,18.3274,18.3693,18.3737,18.357,18.3144,18.5206,18.5954,18.4228,18.4153,18.3852,18.3179,18.4078,18.4604,18.4604,18.5582,18.7308,18.9631,19.1282,19.324,19.5586,19.7312,19.806,19.806,19.806,19.806,13.7815,13.7815,13.7815,13.7815,13.9018,13.8865,13.4067,13.2942,13.2422,13.0568,12.9076,12.9521,13.4151,13.527,13.7061,14.1843,14.4314,14.6785,15.0015,15.3141,15.6353,15.9579,16.1228,16.2799,16.4656,16.4802,16.3535,16.0477,16.1606,16.3098,16.4503,16.4877,16.5774,16.727,16.7344,16.7344,16.7344,16.7344,16.8325,17.0123,17.1702,17.3339,17.4963,17.4963,17.5794,17.7219,17.564,17.4963,17.4963,17.4963,17.4078,17.2595,17.2595,17.3484,17.4739,17.4739,17.5794,17.7294,17.7294,17.7294,17.7294,17.7294,17.7294,17.7294,17.7294,17.7294,17.7294,17.7294,17.7294,17.7294,17.7294,17.7294,17.7742,17.9392,18.2321,18.4644,18.4644,18.7103,18.9258,18.9113,18.9183,18.8809,18.7239,18.7089,18.6641,18.5158,18.4864,18.5066,18.5402,18.5454,18.4992,18.3727,18.6323,18.7533,18.6029,18.5879,18.5206,18.3705,18.3551,18.3551,18.3551,18.3551,18.5131,18.836,19.0082,19.2417,19.5586,19.7312,19.806,19.806,19.806,19.806,13.7815,13.7815,13.7815,13.7815,13.8118,13.7438,13.3764,13.2942,13.2123,12.9219,12.8325,12.8776,13.1092,13.3706,13.6694,14.029,14.5521,14.9862,15.1813,15.3818,15.6353,15.9579,15.9206,15.9879,16.2724,16.3027,16.2728,16.2055,16.2283,16.2055,16.1071,16.3606,16.5774,16.727,16.7344,16.7344,16.7344,16.7344,16.8848,17.1847,17.2225,17.3937,17.6766,17.6766,17.6915,17.7289,17.6915,17.6766,17.6766,17.6766,17.5794,17.4219,17.4219,17.4444,17.4739,17.4739,17.5794,17.7294,17.7294,17.7294,17.7294,17.7294,17.7294,17.7294,17.7294,17.7294,17.7294,17.7294,17.7294,17.7294,17.7294,17.7294,17.7742,17.9392,18.2321,18.4644,18.4644,18.6276,18.7314,18.5981,18.6799,18.7169,18.5532,18.6346,18.7085,18.672,18.6641,18.673,18.6884,18.703,18.7046,18.6959,18.7686,18.7981,18.7684,18.7605,18.7458,18.7082,18.7082,18.7082,18.7082,18.7082,18.8056,19.0086,19.1733,19.3541,19.5586,19.7312,19.806,19.806,19.806,19.806,13.7815,13.7815,13.7815,13.7815,13.7815,13.7139,13.4743,13.354,13.2272,12.9746,12.9222,12.9446,13.0272,13.378,13.7666,14.1027,14.6418,15.1058,15.3447,15.5235,15.7254,15.965,15.928,15.943,16.1154,16.1307,16.1004,16.0256,16.0181,15.9804,15.8903,16.2047,16.4885,16.7274,16.7344,16.7344,16.7344,16.7344,16.8246,16.9974,17.1623,17.3343,17.498,17.6546,17.7294,17.7294,17.7294,17.7294,17.7294,17.7294,17.6766,17.5939,17.5939,17.5939,17.5939,17.5939,17.6542,17.7294,17.7294,17.7294,17.7294,17.7294,17.7294,17.7294,17.7294,17.7294,17.7294,17.7294,17.7294,17.7294,17.7294,17.7294,17.7514,17.8415,17.9919,18.134,18.2172,18.3584,18.4481,18.3592,18.4785,18.5682,18.4789,18.6051,18.7164,18.7164,18.7164,18.7236,18.7357,18.7534,18.7673,18.7769,18.7995,18.8131,18.8131,18.8131,18.8131,18.8131,18.8131,18.8131,18.8131,18.7383,18.8507,19.1733,19.1883,19.3541,19.6711,19.7688,19.806,19.806,19.806,19.806,13.7666,13.7815,13.7815,13.7815,13.7815,13.7441,13.5868,13.4369,13.2948,13.1238,13.0867,13.0942,13.1244,13.513,13.946,14.3114,14.7611,15.1806,15.5081,15.6805,15.8155,15.943,15.9576,15.9576,15.9576,15.9576,15.9056,15.7706,15.7631,15.7631,15.7631,16.0481,16.3472,16.6455,16.6821,16.712,16.7344,16.7344,16.7498,16.7797,17.095,17.2525,17.2894,17.5952,17.7294,17.7294,17.7294,17.7294,17.7294,17.7294,17.7294,17.7294,17.7294,17.7294,17.7294,17.7294,17.7294,17.7294,17.7294,17.7294,17.7294,17.7294,17.7294,17.7294,17.7294,17.7294,17.7294,17.7294,17.7294,17.7294,17.7294,17.7294,17.7294,17.7294,17.7294,17.7742,17.9471,18.0817,18.1714,18.1714,18.3293,18.4569,18.4265,18.5902,18.7164,18.7164,18.7164,18.7222,18.7314,18.7514,18.7562,18.7562,18.7943,18.8131,18.8131,18.8131,18.8131,18.8131,18.8131,18.8131,18.8131,18.6856,18.8131,19.2556,19.1357,19.2865,19.7079,19.7079,19.7079,19.7308,19.7459,19.7459,13.7064,13.7815,13.7815,13.7815,13.7815,13.7441,13.5868,13.5341,13.4671,13.2945,13.2646,13.3095,13.4525,13.7672,14.1561,14.634,15.0011,15.3455,15.6809,15.7482,15.7706,15.7934,15.793,15.793,15.793,15.793,15.7856,15.7631,15.7631,15.7631,15.7631,15.9355,16.1154,16.3102,16.4582,16.5998,16.7344,16.7344,16.8096,16.9596,17.1473,17.3114,17.4519,17.6392,17.7294,17.7294,17.7294,17.7294,17.7294,17.7294,17.7294,17.7294,17.7294,17.7294,17.7294,17.7294,17.7294,17.7294,17.7294,17.7294,17.7294,17.7294,17.7294,17.7294,17.7294,17.7294,17.7294,17.7294,17.7294,17.7294,17.7294,17.7294,17.7294,17.7294,17.7294,17.7742,17.9471,17.9994,18.0144,18.0144,18.2616,18.4195,18.2691,18.5075,18.7164,18.7164,18.7164,18.7173,18.72,18.743,18.7562,18.7562,18.7943,18.8131,18.8131,18.8131,18.8131,18.8131,18.8131,18.8131,18.8131,18.7984,18.8808,19.0985,19.0759,19.1658,19.3684,19.3684,19.3684,19.3688,19.5128,19.5128,13.4743,13.6388,13.7815,13.7815,13.7815,13.7669,13.6915,13.6768,13.632,13.4743,13.5042,13.5341,13.4294,13.7516,14.1041,14.3206,14.7091,15.0759,15.3148,15.5089,15.6203,15.6203,15.7033,15.7631,15.7631,15.7631,15.7631,15.7631,15.7631,15.7631,15.7631,15.9127,16.078,16.2429,16.4133,16.5774,16.7344,16.7344,16.7722,16.8474,17.0198,17.1847,17.3484,17.5121,17.6392,17.7294,17.7294,17.7294,17.7294,17.7294,17.7294,17.7294,17.7294,17.7294,17.7294,17.7294,17.7294,17.7294,17.7294,17.7294,17.7294,17.7294,17.7294,17.7294,17.7294,17.7294,17.7294,17.7294,17.7294,17.7294,17.7294,17.7294,17.7294,17.7294,17.7294,17.7439,17.8266,17.8415,17.8415,17.8415,18.0293,18.2018,18.2092,18.4186,18.6126,18.7089,18.7164,18.7164,18.7164,18.7332,18.7534,18.7554,18.7862,18.8115,18.8199,18.8131,18.8131,18.8131,18.8131,18.8131,18.8131,18.8131,18.8958,19.0684,19.0684,19.1432,19.3008,19.3008,19.3008,19.3008,19.3767,19.3763,13.1901,13.4369,13.6768,13.7591,13.7815,13.7815,13.7815,13.7815,13.7516,13.632,13.6993,13.7064,13.4665,13.7594,14.0514,14.0959,14.477,14.8284,15.0015,15.27,15.4637,15.5081,15.6203,15.7183,15.7631,15.7631,15.7631,15.7631,15.7631,15.7631,15.7631,15.8757,16.0327,16.2433,16.3763,16.5329,16.7344,16.7344,16.7344,16.7348,16.9072,17.0576,17.1847,17.385,17.5416,17.6691,17.7065,17.7294,17.7294,17.7294,17.7294,17.7294,17.7294,17.7294,17.7294,17.7294,17.7294,17.7294,17.7294,17.7294,17.7294,17.7294,17.7294,17.7294,17.7294,17.7294,17.7294,17.7294,17.7294,17.7294,17.7294,17.7294,17.7294,17.7294,17.7294,17.7294,17.7294,17.7294,17.7294,17.7294,17.8266,17.9695,18.1265,18.3293,18.5088,18.6346,18.694,18.7014,18.6645,18.6668,18.6922,18.7546,18.78,18.8048,18.812,18.8131,18.7981,18.7533,18.7533,18.7308,18.6932,18.7308,18.8131,18.9331,18.9861,19.0609,19.1808,19.1808,19.1808,19.1808,19.2259,19.218,12.8851,13.1833,13.3917,13.7064,13.7815,13.7815,13.7815,13.7815,13.7815,13.774,13.774,13.774,13.7591,13.9093,14.0888,14.2519,14.5585,14.8284,15.0015,15.1664,15.3302,15.4932,15.5227,15.5904,15.7482,15.7631,15.7631,15.7631,15.7631,15.7631,15.7631,15.7706,15.9206,16.2433,16.2578,16.4145,16.7344,16.7344,16.7344,16.7348,16.9072,16.9899,17.0123,17.3326,17.4813,17.4963,17.6542,17.7294,17.7294,17.7294,17.7294,17.7294,17.7294,17.7294,17.7294,17.7294,17.7294,17.7294,17.7294,17.7294,17.7294,17.7294,17.7294,17.7294,17.7294,17.7294,17.7294,17.7294,17.7294,17.7294,17.7294,17.7294,17.7294,17.7294,17.7294,17.7294,17.7294,17.7294,17.7294,17.7294,17.7364,17.7967,17.9616,18.2541,18.4719,18.4793,18.6201,18.6645,18.5013,18.4951,18.5649,18.7396,18.78,18.8048,18.812,18.8131,18.7454,18.5879,18.5807,18.5055,18.3405,18.4905,18.5807,18.5879,18.7454,18.836,18.8432,18.8432,18.8432,18.8432,19.0082,18.9936,12.5779,12.8543,13.0637,13.3842,13.5491,13.632,13.632,13.7067,13.7815,13.7815,13.7815,13.7815,13.7815,13.8342,13.9239,14.0959,14.2231,14.3951,14.6636,14.8434,15.0082,15.1802,15.3814,15.5381,15.5979,15.7029,15.7631,15.7631,15.7631,15.7631,15.7631,15.7631,15.9131,16.2433,16.2504,16.407,16.7344,16.7344,16.7344,16.7344,16.8021,16.8848,16.9899,17.1091,17.2803,17.4813,17.5416,17.6243,17.7294,17.7294,17.7294,17.7294,17.7294,17.7294,17.7294,17.7294,17.7294,17.7294,17.7294,17.7294,17.7294,17.7294,17.7294,17.7294,17.7294,17.7294,17.7294,17.7294,17.7294,17.7294,17.7294,17.7294,17.7294,17.7294,17.7294,17.7294,17.7294,17.7294,17.7294,17.7294,17.7294,17.7439,17.8041,18.0069,18.1868,18.2915,18.3588,18.3733,18.3139,18.3126,18.3875,18.5884,18.6197,18.627,18.6534,18.6556,18.5807,18.4153,18.4006,18.4228,18.4755,18.5281,18.5657,18.5657,18.7308,18.7605,18.6556,18.7605,18.8131,18.8206,18.8808,18.8733,12.1514,12.5106,12.8624,13.078,13.3023,13.4593,13.4593,13.5419,13.6316,13.6918,13.7067,13.7217,13.774,13.7815,13.8192,13.9318,13.9994,14.1112,14.3274,14.5514,14.7536,14.9185,15.2247,15.4487,15.5081,15.5612,15.6214,15.673,15.6805,15.7033,15.7631,15.7631,15.8906,16.1602,16.2204,16.3846,16.6522,16.712,16.7344,16.7344,16.7344,16.7947,16.9072,16.9675,17.1091,17.3177,17.37,17.4897,17.6392,17.6392,17.6766,17.7294,17.7294,17.7294,17.7294,17.7294,17.6915,17.6392,17.6392,17.6766,17.7294,17.7294,17.7294,17.7294,17.7294,17.7294,17.7294,17.7294,17.7294,17.7294,17.7294,17.7294,17.7294,17.7294,17.7294,17.7294,17.7294,17.7294,17.7294,17.7294,17.7294,17.7294,17.7294,17.8195,17.9466,18.1116,18.1345,18.1116,18.0592,18.0966,18.2156,18.4155,18.4416,18.4478,18.473,18.4755,18.4074,18.2423,18.2345,18.257,18.3097,18.3695,18.3996,18.3996,18.618,18.6781,18.5657,18.7308,18.8131,18.8131,18.8131,18.8131,11.6279,12.1738,12.7801,12.7951,13.0409,13.2796,13.2796,13.2867,13.3394,13.5042,13.5419,13.5871,13.7441,13.774,13.774,13.7815,13.9168,14.0293,14.0368,14.305,14.5735,14.7458,15.046,15.3077,15.4708,15.3522,15.3302,15.4932,15.5007,15.5754,15.7478,15.7557,15.8304,15.9953,16.1602,16.3248,16.4952,16.6522,16.7274,16.7274,16.7344,16.7344,16.7423,16.9076,16.982,16.9974,17.1623,17.326,17.4664,17.4664,17.564,17.7144,17.7144,17.7144,17.7144,17.7144,17.6093,17.4664,17.4664,17.579,17.7144,17.7144,17.7144,17.7144,17.7144,17.7144,17.714,17.7219,17.7219,17.7219,17.7289,17.7294,17.7294,17.7294,17.7294,17.7294,17.7294,17.7294,17.7294,17.7294,17.7294,17.7294,17.7294,17.7294,17.7817,17.9471,17.9695,17.9167,17.7514,17.8719,18.0505,18.2419,18.2612,18.2748,18.2993,18.3025,18.2345,18.0831,18.068,18.0003,17.8353,17.9928,18.0755,18.0755,18.3996,18.5582,18.5582,18.7308,18.8131,18.8131,18.8131,18.8131,12.0162,12.0987,12.1819,12.5402,12.787,12.944,12.944,13.0341,13.1612,13.3319,13.369,13.4141,13.5793,13.6092,13.6466,13.7669,13.8192,13.894,14.014,14.1112,14.2754,14.5589,14.7757,14.926,14.9701,15.1507,15.2785,15.3227,15.3302,15.4046,15.5754,15.5829,15.7104,15.9879,16.0402,16.1528,16.3173,16.4806,16.5695,16.5699,16.6825,16.7344,16.7348,16.7872,16.8698,16.9899,17.0348,17.1548,17.304,17.304,17.3343,17.3792,17.3792,17.3792,17.3792,17.3792,17.3493,17.304,17.304,17.3339,17.3792,17.3792,17.3792,17.3792,17.3792,17.3792,17.4012,17.5121,17.5486,17.5715,17.6995,17.7294,17.7294,17.7294,17.7294,17.7294,17.7294,17.7294,17.7294,17.7294,17.7294,17.7294,17.7294,17.7294,17.7443,17.7892,17.7967,17.7817,17.7368,17.7668,17.8733,18.0534,18.0813,18.0973,18.1103,18.1297,18.0684,17.9029,17.8951,17.9255,18.0079,18.053,18.0755,18.0755,18.3996,18.5055,18.3777,18.6781,18.8131,18.8131,18.8131,18.8131,11.9133,11.9407,11.9,12.108,12.2959,12.4788,12.6611,12.7266,12.8318,13.1269,13.1908,13.2428,13.4145,13.497,13.5793,13.6694,13.7367,13.8189,13.9165,13.9919,14.1037,14.2975,14.4025,14.4919,14.5663,14.7989,14.9787,15.0535,15.1211,15.2333,15.3967,15.4711,15.5979,15.7852,15.928,16.0477,16.1453,16.3094,16.3987,16.3987,16.4889,16.5703,16.6372,16.6372,16.7274,16.8848,16.8848,16.9824,17.1399,17.1399,17.1777,17.245,17.245,17.245,17.2225,17.08,17.0726,17.1399,17.1399,17.1852,17.245,17.245,17.245,17.245,17.245,17.245,17.2599,17.3559,17.3779,17.4008,17.498,17.5204,17.5428,17.6093,17.6238,17.6392,17.714,17.7294,17.7294,17.7294,17.7294,17.7294,17.7294,17.7294,17.7294,17.7294,17.7294,17.7294,17.7294,17.7294,17.7706,17.8788,17.8957,17.9155,17.9382,17.9619,17.933,17.8278,17.8278,17.8725,17.9706,17.9703,17.9703,17.9703,18.2263,18.3093,18.2119,18.4751,18.6033,18.6033,18.6033,18.6033,11.4791,11.6889,11.7951,11.6159,11.7209,11.9523,0.0,12.3141,12.3597,12.7949,12.9146,12.9951,13.1755,13.3547,13.4824,13.512,13.6544,13.7591,13.7591,13.9018,14.0065,14.0065,14.0218,14.0959,14.2441,14.4015,14.566,14.7308,14.8811,15.0464,15.2262,15.3967,15.4932,15.5152,15.793,15.9505,15.9729,16.1228,16.2055,16.2204,16.2433,16.3322,16.4727,16.4727,16.5479,16.6825,16.6825,16.7652,16.9076,16.9297,17.0352,17.1847,17.1847,17.1627,17.0954,16.7951,16.7801,16.9076,16.9076,17.0053,17.1328,17.1328,17.1328,17.1328,17.1328,17.1478,17.1623,17.1777,17.2001,17.2151,17.2375,17.245,17.2745,17.4149,17.4519,17.4892,17.6396,17.6845,17.699,17.699,17.714,17.7294,17.7294,17.7294,17.7294,17.7294,17.7294,17.7294,17.7294,17.7294,17.7294,17.7294,17.7362,17.7585,17.7971,17.8159,17.826,17.8278,17.8278,17.8202,17.7977,17.8127,17.8052,17.7676,17.9552,18.0379,18.0229,18.1969,18.2875,18.2875,18.3029,18.2728,0.0,0.0,0.0,0.0,0.0,0.0,0.0,11.479,11.6184,11.8404,12.1019,12.3709,12.6509,12.8393,13.0415,13.3023,13.4818,13.5943,13.5943,13.7295,13.8342,13.8342,13.9542,14.0514,14.0813,14.237,14.4011,14.5585,14.6034,14.7536,15.0535,15.2258,15.3672,15.5081,15.5754,15.673,15.808,15.8458,15.9206,16.0481,16.1831,16.2653,16.3023,16.3023,16.3177,16.3472,16.3472,16.3625,16.4074,16.5408,16.6896,16.8321,16.8321,16.6758,16.4373,16.3696,16.3625,16.3925,16.3925,16.4149,16.4452,16.4452,16.4452,16.4452,16.4452,16.5412,16.675,16.8021,16.9297,17.0726,17.2076,17.245,17.2525,17.282,17.2894,17.2969,17.3268,17.4382,17.5266,17.5266,17.6313,17.7294,17.7294,17.7294,17.7294,17.7294,17.7294,17.7294,17.7294,17.7294,17.7294,17.7294,17.7323,17.7428,17.7565,17.7934,17.8149,17.8271,17.8278,17.7679,17.6251,17.7529,17.7003,17.4378,17.7228,17.8052,17.6702,17.9781,18.121,18.1285,18.2499,18.0321,0.0,0.0,0.0,0.0,0.0,0.0,0.0,0.0,0.0,0.0,0.0,12.0857,12.0836,0.0,12.8322,12.9135,13.2051,13.4519,13.5344,13.6167,13.6619,13.6619,13.7441,13.8192,13.9018,14.0585,14.1928,14.2751,14.3566,14.5136,14.7611,14.926,15.0905,15.2621,15.3444,15.427,15.5096,15.5096,15.547,15.6297,15.8009,15.928,16.0107,16.0855,16.1677,16.2504,16.2504,16.2504,16.2578,16.3393,16.4216,16.4814,16.3165,16.152,16.0107,16.0107,16.0555,16.1228,16.1228,16.1831,16.2504,16.2504,16.2504,16.2504,16.2504,16.3098,16.3917,16.4739,16.5562,16.6388,16.7215,16.8108,16.8923,16.9749,17.0501,17.1399,17.2225,17.304,17.3559,17.3559,17.4897,17.6014,17.6014,17.5349,17.5129,17.5869,17.6014,17.6317,17.714,17.7294,17.692,17.6089,17.6014,17.609,17.6267,17.6519,17.7103,17.8081,17.7409,17.6251,17.46,17.5355,17.5051,17.3403,17.4979,17.5427,17.4528,17.6254,17.7078,17.7078,17.7912,17.6938,0.0,0.0,0.0,0.0,0.0,0.0,0.0,0.0,0.0,0.0,0.0,0.0,0.0,0.0,0.0,12.5698,12.9434,13.2948,13.4297,13.4525,13.4746,13.5419,13.5494,13.6095,13.7666,13.909,13.9994,14.0293,14.1629,14.3114,14.4684,14.6333,14.7989,14.9712,15.0983,15.1959,15.2561,15.2337,15.2337,15.2636,15.3971,0.0,15.6734,15.8009,15.9288,16.0559,16.0559,16.0559,16.0634,16.0933,16.1083,16.078,15.7785,15.6663,15.6663,15.6663,15.7486,15.8536,15.8536,15.9434,16.0559,16.0559,16.0784,16.1004,16.0709,16.1457,0.0,16.1756,16.25,16.3326,16.2653,16.3763,16.5251,16.6227,16.7427,16.8931,17.0651,17.1253,17.1548,17.1847,17.3185,17.4298,17.4298,17.326,17.2741,17.37,17.407,17.4672,17.5723,17.6097,17.5798,17.4448,17.4298,17.4357,17.4579,17.4146,17.4764,17.6871,17.5304,17.3524,17.1971,17.2272,17.2122,17.152,17.1746,17.2122,17.2423,17.2723,17.2874,17.287,17.0199,17.0326,0.0,0.0,0.0,0.0,0.0,0.0,0.0,0.0,0.0,0.0,0.0,0.0,0.0,0.0,0.0,0.0,12.8471,13.0792,13.0945,13.1017,13.2139,13.5123,13.5494,13.6095,13.7666,13.7968,13.8716,14.0218,14.0517,14.133,14.3039,14.461,0.0,0.0,0.0,14.9712,15.2561,15.1211,15.1211,15.2561,15.2785,15.3006,15.3156,15.3384,15.353,15.3683,15.3683,15.3683,15.3829,15.5313,15.5979,15.5754,15.39,15.3156,15.3156,15.3156,15.3305,15.3455,15.3455,0.0,0.0,15.3683,15.4719,15.5683,15.4199,15.7792,16.1905,15.8981,16.2342,16.6152,16.3251,16.3763,16.4727,16.3397,16.3177,16.3771,16.5479,16.6975,16.8395,16.9899,17.1548,17.2674,17.2674,17.252,17.1997,17.0647,17.1694,17.2221,17.0871,17.1997,17.2898,17.2745,17.2674,0.0,17.2699,17.017,16.9958,17.3178,17.0654,16.8323,16.6695,16.8127,16.7525,16.4677,16.5949,16.7375,16.8875,17.0454,17.1128,17.0896,15.8824,15.6458,0.0,0.0,0.0,0.0,0.0,0.0,0.0,0.0,0.0,0.0,0.0,0.0,0.0,0.0,0.0,0.0,12.4804,12.7649,12.7649,12.8474,12.9973,13.2288,13.34,13.4668,13.6316,13.7292,13.8118,13.8791,13.8869,13.9617,14.133,14.2003,14.3199,14.4837,14.4912,14.5585,14.6938,14.6262,14.6262,14.7009,14.8886,14.9783,14.9862,15.1735,15.2561,15.2561,15.2561,15.2561,15.2632,15.3376,15.3672,15.3223,0.0,0.0,0.0,0.0,14.9559,15.1365,15.2262,15.3227,15.4192,15.5242,15.5986,15.6431,15.5766,15.7486,15.9434,15.8005,15.9576,16.137,16.0028,16.0922,16.1894,16.1228,16.1756,16.2728,16.3393,16.4066,16.4739,16.5491,16.773,0.0,16.6991,16.751,16.8175,16.8399,16.9899,17.1025,17.1328,17.1997,17.2076,17.1025,17.095,17.095,17.095,16.9839,0.0,0.0,0.0,16.8893,16.7368,16.7973,0.0,0.0,0.0,16.1269,16.0955,15.8716,0.0,0.0,15.3847,15.3042,0.0,0.0,0.0,0.0,0.0,0.0,0.0,0.0,0.0,0.0,0.0,0.0,0.0,0.0,0.0,0.0,12.166,12.487,12.487,12.63,12.8026,12.9599,13.1235,13.2724,13.4002,13.5946,13.7139,13.7139,13.7591,13.8342,13.9617,13.9617,14.0436,14.2146,14.2146,14.237,14.2886,14.2886,14.2886,14.2886,14.5286,14.6411,14.6486,14.8811,14.9936,14.9936,14.9936,14.9936,14.9936,14.9936,14.9936,14.9409,14.4688,14.3559,14.4535,14.4535,14.6411,14.911,15.0688,15.2098,15.3291,15.4491,15.5238,15.5616,15.5616,15.6584,15.7557,15.7104,15.7934,15.8757,15.7856,15.8832,15.9729,15.8828,15.9579,16.0481,16.0481,16.0858,16.1307,16.1756,16.3393,16.4058,16.2126,16.3244,16.4731,16.5857,16.7427,16.8998,17.0202,17.08,17.0576,16.9297,16.9222,16.9222,16.9222,16.8449,16.8967,17.1217,16.9089,16.7716,16.7551,16.6656,16.5382,16.3732,16.0048,15.73,0.0,0.0,0.0,0.0,0.0,0.0,0.0,0.0,0.0,0.0,0.0,0.0,0.0,0.0,0.0,0.0,0.0,0.0,0.0,0.0,0.0,0.0,0.0,0.0,12.3144,12.4574,12.6296,12.7951,12.9521,13.0496,13.0571,13.3631,13.5569,13.5569,13.6989,13.7815,13.789,13.789,13.8641,14.0364,14.0443,14.1184,14.2886,14.2886,14.2886,14.2886,14.2961,14.3039,14.3039,14.3111,14.3189,14.3189,14.3189,14.3189,14.3189,14.3189,14.3189,14.3189,14.2961,14.2886,14.2961,14.2961,14.4011,14.5585,14.7308,14.791,14.7985,14.806,14.9185,15.0464,15.0464,15.3821,15.7332,15.568,15.8678,16.1606,15.8454,15.8832,15.9206,15.5979,15.5302,15.5381,15.5381,15.6655,15.823,15.9729,15.8903,15.8379,15.9804,16.1453,16.2578,16.2657,16.4137,0.0,16.5251,16.6597,16.7498,16.7419,16.7419,16.7419,16.7419,16.4523,16.4156,16.7536,16.3196,16.1996,16.5367,16.2453,15.9974,15.8328,15.8096,15.7203,15.5494,0.0,0.0,0.0,0.0,0.0,0.0,0.0,0.0,0.0,0.0,0.0,0.0,0.0,0.0,0.0,0.0,0.0,0.0,0.0,0.0,0.0,0.0,0.0,0.0,12.1508,12.4125,12.4648,12.72,12.8474,12.7349,13.0191,13.2584,13.3768,13.5344,13.6765,13.774,13.7815,13.804,13.8641,13.8641,13.8937,13.9532,13.9532,13.9532,13.9532,14.0657,14.1184,14.1255,14.2366,14.2886,14.2886,14.2886,14.2886,14.2886,14.2886,14.1544,13.9532,13.9532,14.0874,14.2886,14.2886,14.4535,14.6935,14.7536,14.8437,14.9563,15.0609,15.1361,15.1813,15.1813,15.3006,15.4199,15.3601,15.4651,15.5702,15.4577,15.5541,15.6506,15.5381,15.5979,15.6805,15.6805,15.6356,15.6427,15.808,15.5317,15.3227,15.4801,15.7415,15.8906,15.7777,16.0922,16.3397,16.3397,16.3846,16.4145,16.4145,16.518,16.5329,16.422,16.4137,16.4731,16.5956,16.3413,16.2431,16.3703,16.2671,16.1324,15.9739,15.9739,15.6102,14.8839,0.0,0.0,0.0,0.0,0.0,0.0,0.0,0.0,0.0,0.0,0.0,0.0,0.0,0.0,0.0,0.0,0.0,0.0,0.0,0.0,0.0,0.0,0.0,0.0,0.0,0.0,12.2187,12.4654,0.0,12.3159,12.6452,12.8917,12.9353,13.2054,13.4375,13.6017,13.6619,13.7217,13.7815,13.7815,13.7815,13.7815,13.7815,13.7815,13.7815,13.894,13.9467,13.9467,14.0579,14.1099,14.1099,14.1099,14.1099,14.1099,14.1099,13.9454,13.6993,13.6993,13.8335,14.0273,14.0874,14.3192,14.6112,14.6636,14.791,14.9488,15.0535,15.0086,14.9263,14.9787,14.9117,14.8598,15.0389,15.0834,15.1137,15.2258,15.3373,15.4042,15.3519,15.4192,15.4868,15.4266,15.3216,15.3141,15.5392,15.3302,15.1211,15.1664,15.4049,15.5687,15.5231,15.7856,16.0481,16.2279,16.2504,16.2504,16.2504,16.3468,16.3692,16.2578,16.3468,16.4184,16.4225,16.2657,16.18,16.1824,16.1839,16.0572,15.7793,15.7715,15.3631,0.0,0.0,0.0,0.0,0.0,0.0,0.0,0.0,0.0,0.0,0.0,0.0,0.0,0.0,0.0,0.0,0.0,0.0,0.0,0.0,0.0,0.0,0.0,0.0,0.0,0.0,0.0,12.0556,12.1888,0.0,0.0,0.0,0.0,12.2926,12.7275,13.0789,13.2496,13.4219,13.5868,13.7367,13.7519,13.7591,13.7666,13.7815,13.7815,13.7815,13.7815,13.7815,13.7815,13.7815,13.7815,13.7815,13.7815,13.7815,13.7815,13.7666,13.6694,13.5344,13.5195,13.512,13.5419,13.7067,13.9756,14.2737,14.446,14.6109,14.7316,14.7237,14.514,14.2886,14.4161,14.2451,0.0,0.0,14.7088,14.791,15.1211,15.2187,15.1884,15.0538,15.031,14.9936,14.8284,14.7914,14.8736,15.166,15.2109,15.1514,14.994,0.0,15.2479,15.4109,15.4629,15.6581,16.1382,16.213,16.2279,16.2279,16.2354,16.2354,16.2279,16.2354,16.2354,16.2354,16.078,15.9953,16.0103,15.9804,15.734,15.2561,15.2333,0.0,0.0,0.0,0.0,0.0,0.0,0.0,0.0,0.0,0.0,0.0,0.0,0.0,0.0,0.0,0.0,0.0,0.0,0.0,0.0,0.0,0.0,0.0,0.0,0.0,0.0,11.284,11.613,11.8531,11.9198,11.8597,0.0,0.0,0.0,0.0,0.0,0.0,12.7415,12.9066,13.0718,13.2291,13.355,13.4818,13.6092,13.7217,13.7815,13.7815,13.7815,13.7815,13.7815,13.7815,13.7815,13.7815,13.7815,13.7815,13.7591,13.5192,13.3992,13.3394,13.0936,13.0718,13.2064,13.4974,13.6612,13.7958,14.2067,14.2897,14.201,14.081,13.9759,13.8706,13.6684,0.0,0.0,0.0,0.0,13.9681,14.4164,14.6183,14.7608,14.9787,15.1137,15.1884,15.1436,15.046,14.911,14.7383,14.515,14.2985,14.1262,14.2387,0.0,14.4029,0.0,15.2404,15.4805,15.734,15.8906,15.8906,15.9957,16.0181,15.8981,15.9957,16.063,16.063,15.9127,15.9355,16.1756,15.7119,15.3305,15.0912,0.0,0.0,0.0,0.0,0.0,0.0,0.0,0.0,0.0,0.0,0.0,0.0,0.0,0.0,0.0,0.0,0.0,0.0,0.0,0.0,0.0,0.0,0.0,0.0,0.0,0.0,0.0,10.8575,11.1793,11.3593,11.3817,11.3219,0.0,0.0,0.0,0.0,0.0,0.0,0.0,0.0,0.0,12.825,12.9964,13.1306,13.221,13.378,13.4974,13.5715,13.6469,13.7142,13.7815,13.7815,13.7815,13.7815,13.7815,13.6622,13.4528,13.3394,13.1222,12.8456,0.0,0.0,0.0,0.0,13.2057,13.3777,13.7285,13.7883,13.6918,13.6017,0.0,0.0,0.0,0.0,0.0,0.0,0.0,13.5341,13.9603,14.289,14.566,14.7611,14.926,15.0464,15.0464,14.6343,14.2149,14.0198,13.8937,13.7448,13.498,13.6024,0.0,0.0,0.0,14.8362,15.2109,15.5545,15.7631,15.7631,15.8454,15.8607,15.7706,15.8454,15.8981,15.8981,15.7403,15.7033,15.8095,15.2479,14.7914,0.0,0.0,0.0,0.0,0.0,0.0,0.0,0.0,0.0,0.0,0.0,0.0,0.0,0.0,0.0,0.0,0.0,0.0,0.0,0.0,0.0,0.0,0.0,0.0,0.0,0.0,0.0,0.0,0.0,10.7535,10.8211,0.0,0.0,0.0,0.0,0.0,0.0,0.0,0.0,0.0,0.0,0.0,0.0,0.0,12.7128,12.7128,12.9076,13.0715,13.197,13.3699,13.5198,13.6547,13.6547,13.6622,13.6843,13.6394,0.0,13.0496,13.1303,0.0,0.0,0.0,0.0,0.0,0.0,0.0,0.0,0.0,0.0,0.0,0.0,0.0,0.0,0.0,0.0,0.0,0.0,0.0,0.0,0.0,0.0,14.3566,14.3566,14.5065,14.634,14.5888,13.9005,13.2792,13.2422,13.3472,13.3481,0.0,0.0,0.0,0.0,0.0,0.0,15.0837,15.4943,15.7332,15.7332,15.7482,15.7557,15.7328,15.7332,15.7183,15.6958,15.5007,15.3216,15.2038,14.7162,0.0,0.0,0.0,0.0,0.0,0.0,0.0,0.0,0.0,0.0,0.0,0.0,0.0,0.0,0.0,0.0,0.0,0.0,0.0,0.0,0.0,0.0,0.0,0.0,0.0,0.0,0.0,0.0,0.0,0.0,0.0,0.0,0.0,0.0,0.0,0.0,0.0,0.0,0.0,0.0,0.0,0.0,0.0,0.0,0.0,0.0,0.0,0.0,0.0,0.0,12.8618,12.9521,12.9817,12.9817,13.0493,13.1543,12.8842,12.877,13.0123,12.6368,0.0,0.0,0.0,0.0,0.0,0.0,0.0,0.0,0.0,0.0,0.0,0.0,0.0,0.0,0.0,0.0,0.0,0.0,0.0,0.0,0.0,0.0,13.511,13.511,13.736,13.8784,13.6089,0.0,0.0,0.0,0.0,0.0,0.0,0.0,0.0,0.0,0.0,0.0,14.5813,15.1791,15.553,15.553,15.6805,15.7104,15.568,15.553,15.4939,15.353,14.9331,14.7454,0.0,0.0,0.0,0.0,0.0,0.0,0.0,0.0,0.0,0.0,0.0,0.0,0.0,0.0,0.0,0.0,0.0,0.0,0.0,0.0,0.0,0.0,0.0,0.0,0.0,0.0,0.0,0.0,0.0,0.0,0.0,0.0,0.0,0.0,0.0,0.0,0.0,0.0,0.0,0.0,0.0,0.0,0.0,0.0,0.0,0.0,0.0,0.0,0.0,0.0,0.0,0.0,0.0,0.0,0.0,0.0,0.0,0.0,12.3754,12.1286,0.0,0.0,0.0,0.0,0.0,0.0,0.0,0.0,0.0,0.0,0.0,0.0,0.0,0.0,0.0,0.0,0.0,0.0,0.0,0.0,0.0,0.0,0.0,0.0,0.0,0.0,0.0,0.0,0.0,0.0,0.0,0.0,0.0,0.0,0.0,0.0,0.0,0.0,0.0,0.0,14.3338,14.9701,15.3821,15.3821,15.4573,15.4722,15.3896,15.3821,15.2326,14.8957,14.5735,0.0,0.0,0.0,0.0,0.0,0.0,0.0,0.0,0.0,0.0,0.0,0.0,0.0,0.0,0.0,0.0,0.0,0.0,0.0,0.0,0.0,0.0,0.0,0.0,0.0,0.0,0.0,0.0,0.0,0.0,0.0,0.0,0.0,0.0,0.0,0.0,0.0,0.0,0.0,0.0,0.0,0.0,0.0,0.0,0.0,0.0,0.0,0.0,0.0,0.0,0.0,0.0,0.0,0.0,0.0,0.0,0.0,0.0,0.0,11.7994,11.3961,0.0,0.0,0.0,0.0,0.0,0.0,0.0,0.0,0.0,0.0,0.0,0.0,0.0,0.0,0.0,0.0,0.0,0.0,0.0,0.0,0.0,0.0,0.0,0.0,0.0,0.0,0.0,0.0,0.0,0.0,0.0,0.0,0.0,0.0,0.0,0.0,0.0,0.0,0.0,0.0,14.1711,14.8101,15.2178,15.2123,15.2412,15.2486,15.2112,15.2109,14.9862,14.4542,14.1993,0.0,0.0,0.0,0.0,0.0,0.0,0.0,0.0,0.0,0.0,0.0,0.0,0.0,0.0,0.0,0.0,0.0,0.0,0.0,0.0,0.0,0.0,0.0,0.0,0.0,0.0,0.0,0.0,0.0,0.0,0.0,0.0,0.0,0.0,0.0,0.0,0.0,0.0,0.0,0.0,0.0,0.0,0.0,0.0,0.0,0.0,0.0,0.0,0.0,0.0,0.0,0.0,0.0,0.0,0.0,0.0,0.0,0.0,0.0,0.0,0.0,0.0,0.0,0.0,0.0,0.0,0.0,0.0,0.0,0.0,0.0,0.0,0.0,0.0,0.0,0.0,0.0,0.0,0.0,0.0,0.0,0.0,0.0,0.0,0.0,0.0,0.0,0.0,0.0,0.0,0.0,0.0,0.0,0.0,0.0,0.0,0.0,0.0,0.0,0.0,0.0,13.9989,14.6581,15.0736,15.0521,15.1735,15.2038,15.0613,15.0464,14.7697,14.119,0.0,0.0,0.0,0.0,0.0,0.0,0.0,0.0,0.0,0.0,0.0,0.0,0.0,0.0,0.0,0.0,0.0,0.0,0.0,0.0,0.0,0.0,0.0,0.0,0.0,0.0,0.0,0.0,0.0,0.0,0.0,0.0,0.0,0.0,0.0,0.0,0.0,0.0,0.0,0.0,0.0,0.0,0.0,0.0,0.0,0.0,0.0,0.0,0.0,0.0,0.0,0.0,0.0,0.0,0.0,0.0,0.0,0.0,0.0,0.0,0.0,0.0,0.0,0.0,0.0,0.0,0.0,0.0,0.0,0.0,0.0,0.0,0.0,0.0,0.0,0.0,0.0,0.0,0.0,0.0,0.0,0.0,0.0,0.0,0.0,0.0,0.0,0.0,0.0,0.0,0.0,0.0,0.0,0.0,0.0,0.0,0.0,0.0,0.0,0.0,0.0,0.0,13.8659,14.5278,14.9527,14.9423,14.9816,14.9776,14.9179,14.8871,14.5072,13.6466,0.0,0.0,0.0,0.0,0.0,0.0,0.0,0.0,0.0,0.0,0.0,0.0,0.0,0.0,0.0,0.0,0.0,0.0,0.0,0.0,0.0,0.0,0.0,0.0,0.0,0.0,0.0,0.0,0.0,0.0,0.0,0.0,0.0,0.0,0.0,0.0,0.0,0.0,0.0,0.0,0.0,0.0,0.0,0.0,0.0,0.0,0.0,0.0,0.0,0.0,0.0,0.0,0.0,0.0,0.0,0.0,0.0,0.0,0.0,0.0,0.0,0.0,0.0,0.0,0.0,0.0,0.0,0.0,0.0,0.0,0.0,0.0,0.0,0.0,0.0,0.0,0.0,0.0,0.0,0.0,0.0,0.0,0.0,0.0,0.0,0.0,0.0,0.0,0.0,0.0,0.0,0.0,0.0,0.0,0.0,0.0,0.0,0.0,0.0,0.0,0.0,0.0,13.8133,14.4627,14.8927,14.8927,14.8113,14.7611,14.7611,14.6753,14.2299,13.2799,0.0,0.0,0.0,0.0,0.0,0.0,0.0,0.0,0.0,0.0,0.0,0.0,0.0,0.0,0.0,0.0,0.0,0.0,0.0,0.0,0.0,0.0,0.0,0.0,0.0,0.0,0.0,0.0,0.0,0.0,0.0,0.0,0.0,0.0,0.0,0.0,0.0,0.0,0.0,0.0,0.0,0.0,0.0,0.0,0.0,0.0,0.0,0.0,0.0,0.0,0.0,0.0,0.0,0.0,0.0,0.0,0.0,0.0,0.0,0.0,0.0,0.0,0.0,0.0,0.0,0.0,0.0,0.0,0.0,0.0,0.0,0.0,0.0,0.0,0.0,0.0,0.0,0.0,0.0,0.0,0.0,0.0,0.0,0.0,0.0,0.0,0.0,0.0,0.0,0.0,0.0,0.0,0.0,0.0,0.0,0.0,0.0,0.0,0.0,0.0,0.0,0.0,13.8569,14.4767,14.8927,14.8927,14.7063,14.5809,14.5809,14.4052,13.9379,0.0,0.0,0.0,0.0,0.0,0.0,0.0,0.0,0.0,0.0,0.0,0.0,0.0,0.0,0.0,0.0,0.0,0.0,0.0,0.0,0.0,0.0,0.0,0.0,0.0,0.0,0.0,0.0,0.0,0.0,0.0,0.0,0.0,0.0,0.0,0.0,0.0,0.0,0.0,0.0,0.0,0.0,0.0,0.0,0.0,0.0,0.0,0.0,0.0,0.0,0.0,0.0,0.0,0.0,0.0,0.0,0.0,0.0,0.0,0.0,0.0,0.0,0.0,0.0,0.0,0.0,0.0,0.0,0.0,0.0,0.0,0.0,0.0,0.0,0.0,0.0,0.0,0.0,0.0,0.0,0.0,0.0,0.0,0.0,0.0,0.0,0.0,0.0,0.0,0.0,0.0,0.0,0.0,0.0,0.0,0.0,0.0,0.0,0.0,0.0,0.0,0.0,0.0,13.6923,14.2589,14.7066,0.0,14.7526,14.6188,14.6188,14.5091,14.0429,13.102,0.0,0.0,0.0,0.0,0.0,0.0,0.0,0.0,0.0,0.0,0.0,0.0,0.0,0.0,0.0,0.0,0.0,0.0,0.0,0.0,0.0,0.0,0.0,0.0,0.0,0.0,0.0,0.0,0.0,0.0,0.0,0.0,0.0,0.0,0.0,0.0,0.0,0.0,0.0,0.0,0.0,0.0,0.0,0.0,0.0,0.0,0.0,0.0,0.0,0.0,0.0,0.0,0.0,0.0,0.0,0.0,0.0,0.0,0.0,0.0,0.0,0.0,0.0,0.0,0.0,0.0,0.0,0.0,0.0,0.0,0.0,0.0,0.0,0.0,0.0,0.0,0.0,0.0,0.0,0.0,0.0,0.0,0.0,0.0,0.0,0.0,0.0,0.0,0.0,0.0,0.0,0.0,0.0,0.0,0.0,0.0,0.0,0.0,0.0,0.0,0.0,0.0,0.0,14.173,14.6325,0.0,14.5978,14.4962,14.5573,14.4477,14.0053,13.1361,0.0,0.0,0.0,0.0,0.0,0.0,0.0,0.0,0.0,0.0,0.0,0.0,0.0,0.0,0.0,0.0,0.0,0.0,0.0,0.0,0.0,0.0,0.0,0.0,0.0,0.0,0.0,0.0,0.0,0.0,0.0,0.0,0.0,0.0,0.0,0.0,0.0,0.0,0.0,0.0,0.0,0.0,0.0,0.0,0.0,0.0,0.0,0.0,0.0,0.0,0.0,0.0,0.0,0.0,0.0,0.0,0.0,0.0,0.0,0.0,0.0,0.0,0.0,0.0,0.0,0.0,0.0,0.0,0.0,0.0,0.0,0.0,0.0,0.0,0.0,0.0,0.0,0.0,0.0,0.0,0.0,0.0,0.0,0.0,0.0,0.0,0.0,0.0,0.0,0.0,0.0,0.0,0.0,0.0,0.0,0.0,0.0,0.0,0.0,0.0,0.0,0.0,0.0,14.2008,14.6367,14.5308,14.3288,14.2787,14.4462,14.2548,13.8507,13.1795,12.8389,0.0,0.0,0.0,0.0,0.0,0.0,0.0,0.0,0.0,0.0,0.0,0.0,0.0,0.0,0.0,0.0,0.0,0.0,0.0,0.0,0.0,0.0,0.0,0.0,0.0,0.0,0.0,0.0,0.0,0.0,0.0,0.0,0.0,0.0,0.0,0.0,0.0,0.0,0.0,0.0,0.0,0.0,0.0,0.0,0.0,0.0,0.0,0.0,0.0,0.0,0.0,0.0,0.0,0.0,0.0,0.0,0.0,0.0,0.0,0.0,0.0,0.0,0.0,0.0,0.0,0.0,0.0,0.0,0.0,0.0,0.0,0.0,0.0,0.0,0.0,0.0,0.0,0.0,0.0,0.0,0.0,0.0,0.0,0.0,0.0,0.0,0.0,0.0,0.0,0.0,0.0,0.0,0.0,0.0,0.0,0.0,0.0,0.0,0.0,0.0,0.0,0.0,14.2638,14.6196,14.8427,14.5795,14.4538,14.6212,14.3227,13.8495,13.1795,12.838,0.0,0.0,0.0,0.0,0.0,0.0,0.0,0.0,0.0,0.0,0.0,0.0,0.0,0.0,0.0,0.0,0.0,0.0,0.0,0.0,0.0,0.0,0.0,0.0,0.0,0.0,0.0,0.0,0.0,0.0,0.0,0.0,0.0,0.0,0.0,0.0,0.0,0.0,0.0,0.0,0.0,0.0,0.0,0.0,0.0,0.0,0.0,0.0,0.0,0.0,0.0,0.0,0.0,0.0,0.0,0.0,0.0,0.0,0.0,0.0,0.0,0.0,0.0,0.0,0.0,0.0,0.0,0.0,0.0,0.0,0.0,0.0,0.0,0.0,0.0,0.0,0.0,0.0,0.0,0.0,0.0,0.0,0.0,0.0,0.0,0.0,0.0,0.0,0.0,0.0,0.0,0.0,0.0,0.0,0.0,0.0,0.0,0.0,0.0,0.0,0.0,0.0,13.7124,14.1297,14.6989,14.5179,14.4216,14.5814,14.3433,13.8963,13.2307,12.7973,0.0,0.0,0.0,0.0,0.0,0.0,0.0,0.0,0.0,0.0,0.0,0.0,0.0,0.0,0.0,0.0,0.0,0.0,0.0,0.0,0.0,0.0,0.0,0.0,0.0,0.0,0.0,0.0,0.0,0.0,0.0,0.0,0.0,0.0,0.0,0.0,0.0,0.0,0.0,0.0,0.0,0.0,0.0,0.0,0.0,0.0,0.0,0.0,0.0,0.0,0.0,0.0,0.0,0.0,0.0,0.0,0.0,0.0,0.0,0.0,0.0,0.0,0.0,0.0,0.0,0.0,0.0,0.0,0.0,0.0,0.0,0.0,0.0,0.0,0.0,0.0,0.0,0.0,0.0,0.0,0.0,0.0,0.0,0.0,0.0,0.0,0.0,0.0,0.0,0.0,0.0,0.0,0.0,0.0,0.0,0.0,0.0,0.0,0.0,0.0,0.0,0.0,0.0,13.5985,14.3271,14.3118,14.3193,14.5017,14.327,13.9323,13.2797,0.0,0.0,0.0,0.0,0.0,0.0,0.0,0.0,0.0,0.0,0.0,0.0,0.0,0.0,0.0,0.0,0.0,0.0,0.0,0.0,0.0,0.0,0.0,0.0,0.0,0.0,0.0,0.0,0.0,0.0,0.0,0.0,0.0,0.0,0.0,0.0,0.0,0.0,0.0,0.0,0.0,0.0,0.0,0.0,0.0,0.0,0.0,0.0,0.0,0.0,0.0,0.0,0.0,0.0,0.0,0.0,0.0,0.0,0.0,0.0,0.0,0.0,0.0,0.0,0.0,0.0,0.0,0.0,0.0,0.0,0.0,0.0,0.0,0.0,0.0,0.0,0.0,0.0,0.0,0.0,0.0,0.0,0.0,0.0,0.0,0.0,0.0,0.0,0.0,0.0,0.0,0.0,0.0,0.0,0.0,0.0,0.0,0.0,0.0,0.0,0.0,0.0,0.0,0.0,0.0,14.0388,14.1752,14.3725,14.6688,14.2893,13.8035,13.2722,0.0,0.0,0.0,0.0,0.0,0.0,0.0,0.0,0.0,0.0,0.0,0.0,0.0,0.0]}],[{"header":{"parameterUnit":"kt","parameterCategory":2,"dx":1,"dy":1,"la1":29.285339999999998,"la2":30.599998999999997,"lo1":-89.70041500000002,"lo2":-87.6738589999976,"nx":112,"ny":82,"refTime":"2022-09-28T12:00:00:Z","depth":0,"parameterNumber":2,"parameterNumberName":"V-component_of_WINDS"},"data":[2.6022,2.6179,2.604,2.4359,2.4182,2.409,2.2705,2.2533,2.2687,2.2762,2.2916,2.3325,2.4246,2.38,0.0,0.0,0.0,0.0,0.0,2.3126,0.0,0.0,0.0,0.0,0.0,0.0,2.7354,2.9532,2.9215,2.9743,3.1581,3.1581,3.1699,3.2057,3.2229,3.2569,3.3054,3.3028,3.3028,3.3028,3.3028,3.3028,3.3028,3.3028,3.2701,3.2039,3.1279,3.0432,2.9486,2.8715,2.817,2.7808,2.7808,2.7808,2.7808,2.7808,2.7808,2.7808,2.7808,2.7808,2.7808,2.7808,2.7808,2.7808,2.7808,2.7808,2.7787,2.7676,2.7728,2.7787,2.7676,2.7728,2.776,2.7591,2.7596,2.7618,2.746,2.7396,2.7401,2.7428,2.7396,2.7454,2.7538,2.7596,2.7644,2.756,2.746,2.746,2.7538,2.7533,2.7596,2.7787,2.7644,2.7533,2.7542,2.7454,2.7349,2.7184,2.1339,1.5093,0.8791,0.8521,1.1205,1.6908,2.3232,2.6447,2.6426,2.0099,1.4104,0.8514,0.8503,1.1761,2.5322,2.5382,2.5151,2.3366,2.3194,2.3119,2.1865,2.1753,2.1952,2.2116,2.2437,2.2819,0.0,0.0,0.0,0.0,0.0,0.0,0.0,0.0,0.0,0.0,0.0,0.0,0.0,0.0,2.7555,2.9268,2.9145,2.973,3.146,3.1645,3.1805,3.2081,3.2334,3.2649,3.3054,3.3028,3.3028,3.3028,3.3028,3.2824,3.2467,3.2467,3.1889,3.0911,3.0136,2.9462,2.8888,2.8116,2.7808,2.7808,2.7808,2.7808,2.7808,2.7808,2.7808,2.7808,2.7808,2.7808,2.7808,2.7808,2.7808,2.7808,2.7808,2.7808,2.7808,2.7808,2.7808,2.7808,2.7808,2.7808,2.776,2.7591,2.7596,2.7618,2.746,2.7396,2.7401,2.7397,2.737,2.7402,2.7534,2.7565,2.7539,2.737,2.7286,2.727,2.7322,2.7343,2.7396,2.7592,2.7486,2.7401,2.7406,2.7406,2.729,2.7037,2.1352,1.7915,1.7699,1.778,2.0548,2.6311,2.644,2.643,2.6439,2.3437,1.8942,1.3298,1.6376,2.1223,2.4657,2.4076,2.3554,2.2141,2.1813,2.171,2.1307,2.1696,2.2142,2.2182,2.2569,2.2898,2.2942,0.0,0.0,0.0,0.0,0.0,0.0,2.3171,2.3709,0.0,0.0,2.6008,2.6809,2.6199,2.6702,2.9049,2.837,2.8872,3.1179,3.1552,3.1818,3.2081,3.2334,3.2662,3.3054,3.3028,3.3028,3.3028,3.3028,3.2416,3.1305,3.1305,3.0366,2.8769,2.8769,2.8401,2.7808,2.7808,2.7808,2.7808,2.7808,2.7808,2.7808,2.7808,2.7808,2.7808,2.7808,2.7808,2.7808,2.7808,2.7808,2.7808,2.7808,2.7808,2.7808,2.7808,2.7808,2.7808,2.7808,2.7808,2.7808,2.7808,2.7596,2.748,2.7728,2.7591,2.7486,2.7728,2.7455,2.7328,2.7702,2.746,2.7185,2.7195,2.7195,2.7185,2.7195,2.7195,2.7222,2.7206,2.7317,2.7401,2.7406,2.7623,2.7672,2.7418,2.7396,2.71,2.648,2.6679,2.6721,2.6463,2.6426,2.6442,2.6416,1.7827,1.3636,1.385,2.2711,2.7053,2.3605,2.3597,2.3625,2.237,2.2546,2.2837,2.2072,2.1669,2.1688,2.2552,2.2389,0.0,0.0,0.0,2.2916,2.285,0.0,2.4116,2.3361,2.4617,2.5665,2.5724,2.6014,2.6712,2.7958,2.7888,2.852,3.0291,2.9581,2.9716,3.1232,3.1737,3.1991,3.2057,3.2595,3.2924,3.3028,3.3028,3.3028,3.3028,3.3028,3.2416,3.1305,3.1305,3.0366,2.8769,2.8769,2.8401,2.7808,2.7808,2.7808,2.7808,2.7808,2.7808,2.7808,2.7808,2.7808,2.7808,2.7808,2.7808,2.7808,2.7808,2.7808,2.7808,2.7808,2.7808,2.7808,2.7808,2.7808,2.7808,2.7808,2.7808,2.7808,2.7808,2.7728,2.7724,2.7787,2.7591,2.7401,2.7375,2.7301,2.7195,2.7085,2.6831,2.672,2.6915,2.6773,2.672,2.6899,2.6921,2.7,2.7195,2.7069,2.7053,2.7238,2.7164,2.7132,2.7253,2.728,2.72,2.7005,2.6873,2.6778,2.6715,2.652,2.6446,2.6442,2.401,2.2828,2.287,2.5581,2.6968,0.0,0.0,2.3298,2.2393,2.2538,2.2784,2.2133,2.172,2.1634,2.231,0.0,0.0,0.0,0.0,0.0,0.0,2.3992,2.4689,2.3942,2.5355,2.648,2.6586,2.7265,2.791,2.8348,2.8519,2.9213,3.0804,3.0079,3.0046,3.1245,3.1778,3.207,3.207,3.2725,3.3028,3.3028,3.3028,3.3028,3.3028,3.3028,3.2211,3.0666,3.075,2.9826,2.8138,2.8157,2.8057,2.7808,2.7808,2.7808,2.7808,2.7808,2.7808,2.7808,2.7808,2.7808,2.7808,2.7808,2.7808,2.7808,2.7808,2.7808,2.7808,2.7808,2.7808,2.7808,2.7808,2.7808,2.7808,2.7808,2.7808,2.7808,2.7808,2.7808,2.7808,2.7808,2.7676,2.7534,2.7317,2.7254,2.7132,2.6868,2.6599,2.6493,2.663,2.6535,2.6493,2.6656,2.6677,2.673,2.6857,2.6847,2.6878,2.7031,2.7053,2.7138,2.7301,2.7301,2.7344,2.746,2.7169,2.6947,2.6825,2.6567,2.6425,2.642,2.642,2.6438,2.644,2.6595,2.6804,0.0,0.0,0.0,0.0,2.2182,2.2146,2.2048,0.0,2.1969,2.2167,0.0,2.2441,2.2516,0.0,0.0,2.2933,2.4412,2.5375,2.4683,2.5856,2.6883,2.7091,2.855,2.9241,2.8458,2.8612,2.9371,3.0857,3.0201,3.0205,3.1273,3.1792,3.2083,3.2109,3.2713,3.3028,3.3028,3.3028,3.3028,3.3028,3.3028,3.1879,2.9745,3.0018,2.9055,2.7217,2.7343,2.756,2.7808,2.7808,2.7808,2.7808,2.7808,2.7808,2.7808,2.7808,2.7808,2.7808,2.7808,2.7808,2.7808,2.7808,2.7808,2.7808,2.7808,2.7808,2.7808,2.7808,2.7808,2.7808,2.7808,2.7808,2.7808,2.7808,2.7808,2.7808,2.7808,2.7808,2.7724,2.7459,2.7323,2.7132,2.6868,2.663,2.6472,2.6451,2.644,2.644,2.644,2.644,2.644,2.644,2.6656,2.6794,2.6825,2.7143,2.737,2.7406,2.7406,2.7538,2.7781,2.7428,2.7106,2.6836,2.6567,2.644,2.644,2.644,2.644,2.644,2.644,2.6577,0.0,0.0,0.0,0.0,0.0,2.2393,0.0,0.0,0.0,2.4602,2.4525,2.4295,2.4602,2.5098,2.5369,2.5085,2.6489,2.7346,2.6454,2.7839,2.8977,2.903,2.9334,2.9558,2.9591,2.9845,3.0332,3.1165,3.1073,3.1155,3.1592,3.191,3.2175,3.2387,3.2818,3.3028,3.3028,3.3028,3.3028,3.3028,3.3028,3.1879,2.9745,3.0018,2.9055,2.7217,2.7343,2.756,2.7808,2.7808,2.7808,2.7808,2.7808,2.7808,2.7808,2.7808,2.7808,2.7808,2.7808,2.7808,2.7808,2.7808,2.7808,2.7808,2.7808,2.7808,2.7808,2.7808,2.7808,2.7808,2.7808,2.7808,2.7808,2.7808,2.7808,2.7808,2.7808,2.7808,2.7724,2.7459,2.7323,2.7132,2.6868,2.6783,2.6662,2.6472,2.644,2.644,2.644,2.644,2.644,2.644,2.6482,2.6588,2.6815,2.691,2.7085,2.7401,2.7406,2.7538,2.7781,2.7534,2.7196,2.6836,2.6567,2.644,2.644,2.644,2.644,2.644,2.644,2.6577,2.2238,2.2155,2.2305,2.2195,0.0,0.0,0.0,2.2885,2.3091,2.4344,2.4425,2.4498,2.5156,2.5698,2.6054,2.6054,2.7246,2.8182,2.8195,2.8968,2.9554,2.9554,2.9664,2.9786,2.9921,3.0353,3.0746,3.1084,3.1218,3.1419,3.166,3.1937,3.2201,3.2479,3.2858,3.3028,3.3028,3.3028,3.3028,3.3028,3.3028,3.1879,2.9745,3.0071,2.9117,2.7227,2.7481,2.7676,2.7808,2.7808,2.7808,2.7808,2.7808,2.7808,2.7808,2.7808,2.7808,2.7808,2.7808,2.7808,2.7808,2.7808,2.7808,2.7808,2.7808,2.7808,2.7808,2.7808,2.7808,2.7808,2.7808,2.7808,2.7808,2.7808,2.7808,2.7808,2.7808,2.7808,2.7724,2.7459,2.7343,2.7275,2.7132,2.7069,2.691,2.6662,2.662,2.6603,2.6461,2.644,2.644,2.644,2.644,2.6493,2.6609,2.6762,2.6895,2.7101,2.7296,2.7459,2.7591,2.7596,2.7423,2.7021,2.662,2.6504,2.662,2.6504,2.644,2.644,2.644,2.6577,2.1727,2.1737,2.1944,2.181,2.1925,0.0,2.2674,2.2947,2.3325,2.4185,2.4563,2.4953,2.5639,2.6233,2.668,2.6823,2.776,2.8704,2.9462,2.9584,2.9624,2.9624,2.9865,3.0039,3.0115,3.0598,3.0936,3.0989,3.1165,3.1432,3.1739,3.1951,3.2228,3.2558,3.2884,3.3028,3.3028,3.3028,3.2926,3.2697,3.2697,3.1547,2.9399,2.9849,2.9006,2.7238,2.7624,2.7808,2.7808,2.7808,2.7808,2.7808,2.7808,2.7808,2.7808,2.7808,2.7808,2.7808,2.7808,2.7808,2.7808,2.7808,2.7808,2.7808,2.7808,2.7808,2.7808,2.7808,2.7808,2.7808,2.7808,2.7808,2.7808,2.7808,2.7808,2.7808,2.7808,2.7808,2.7728,2.7538,2.7454,2.7401,2.737,2.7323,2.7158,2.6868,2.6825,2.6762,2.6535,2.6472,2.6461,2.6514,2.6514,2.6535,2.6603,2.6715,2.6847,2.6915,2.7169,2.7317,2.7375,2.7565,2.7534,2.7217,2.6794,2.6677,2.6825,2.6694,2.662,2.6603,2.6482,2.6624,2.0812,2.0919,2.136,2.1701,2.1783,0.0,2.4455,2.4938,2.5395,2.6998,2.751,2.7689,2.7531,2.8212,2.8713,2.8388,2.8919,2.9426,2.9518,2.9746,2.9881,2.9881,3.0121,3.0421,3.0767,3.087,3.0991,3.1245,3.1273,3.1524,3.1991,3.2043,3.2345,3.2962,3.3015,3.3028,3.3028,3.3028,3.2518,3.1483,3.1483,3.0333,2.8206,2.8701,2.8285,2.7238,2.7624,2.7808,2.7808,2.7808,2.7808,2.7808,2.7808,2.7808,2.7808,2.7808,2.7808,2.7808,2.7808,2.7808,2.7808,2.7808,2.7808,2.7808,2.7808,2.7808,2.7808,2.7808,2.7808,2.7808,2.7808,2.7808,2.7808,2.7808,2.7808,2.7808,2.7808,2.7808,2.7808,2.776,2.756,2.737,2.7254,2.7317,2.7243,2.6889,2.6825,2.6815,2.6794,2.6577,2.6525,2.6762,2.6783,2.6894,2.7111,2.6947,2.691,2.7164,2.701,2.6995,2.7238,2.727,2.7259,2.7206,2.7164,2.7021,2.6825,2.7127,2.7227,2.7121,2.6656,2.6698,2.03,2.0566,2.0995,2.1162,0.0,0.0,2.4166,2.4998,2.589,2.7283,2.7658,2.7834,2.8186,2.8753,2.9105,2.8942,2.9136,2.9317,2.9317,2.969,2.9934,2.9934,3.0366,3.073,3.0872,3.1044,3.1179,3.1298,3.1287,3.1392,3.1605,3.191,3.2358,3.3041,3.3028,3.3028,3.3028,3.2365,3.2135,3.2314,3.0998,2.9899,2.9014,2.8699,2.8048,2.7227,2.746,2.7671,2.7808,2.7808,2.7808,2.7808,2.7808,2.7808,2.7808,2.7808,2.7808,2.7808,2.7808,2.7808,2.7808,2.7808,2.7808,2.7808,2.7808,2.7808,2.7808,2.7808,2.7808,2.7808,2.7808,2.7808,2.7808,2.7808,2.7808,2.7808,2.7808,2.7676,2.7538,2.7455,2.7375,2.7312,2.7317,2.737,2.7343,2.7196,2.7148,2.7069,2.6857,2.6847,2.6857,2.6825,2.6968,2.7111,2.7222,2.7121,2.7111,2.7206,2.7121,2.7148,2.7317,2.7322,2.7322,2.7322,2.7486,2.7397,2.7068,2.7291,2.7343,2.7222,2.6851,2.6873,1.9883,0.0,0.0,0.0,0.0,0.0,2.438,2.5335,2.6272,2.7309,2.7552,2.7777,2.8265,2.8695,2.8977,2.8907,2.9039,2.9171,2.9251,2.972,3.0079,3.0181,3.0701,3.1042,3.1042,3.1179,3.1287,3.1287,3.1287,3.1287,3.1287,3.1778,3.2358,3.3041,3.3028,3.2989,3.2884,3.1803,3.146,3.1904,3.0061,2.904,2.872,2.8202,2.7629,2.7106,2.7322,2.7538,2.7676,2.7676,2.7728,2.7808,2.7808,2.7808,2.7808,2.7808,2.7808,2.7808,2.7808,2.7808,2.7808,2.7808,2.7808,2.7808,2.7808,2.7808,2.7808,2.7808,2.7808,2.7808,2.7808,2.7808,2.7862,2.8197,2.7971,2.7676,2.7676,2.7454,2.7238,2.7201,2.7164,2.7169,2.7322,2.7396,2.7406,2.7406,2.7406,2.7317,2.7032,2.7127,2.7148,2.7,2.7153,2.728,2.737,2.7317,2.7275,2.7275,2.7185,2.7169,2.7233,2.7322,2.7343,2.7343,2.765,2.7618,2.7275,2.7428,2.7428,2.7275,2.709,2.7074,0.0,0.0,0.0,2.2143,2.2982,2.4013,2.5942,2.6586,2.698,2.7628,2.7992,2.8089,2.7861,2.8239,2.8528,2.8261,2.874,2.926,2.9502,2.9963,3.0461,3.0833,3.1113,3.1273,3.1273,3.1298,3.1287,3.1287,3.1287,3.1287,3.1287,3.1778,3.2358,3.3041,3.3028,3.2871,3.248,3.156,3.0415,2.9096,2.8239,2.7241,2.6163,2.6665,2.6851,2.6857,2.7233,2.7406,2.7433,2.7433,2.756,2.7808,2.7808,2.7808,2.7808,2.7808,2.7808,2.7808,2.7808,2.7808,2.7808,2.7808,2.7808,2.7808,2.7808,2.7808,2.7808,2.7808,2.7808,2.7808,2.7808,2.7808,2.8089,2.9216,2.8444,2.7433,2.7433,2.7111,2.6936,2.7164,2.701,2.6936,2.7185,2.7317,2.7406,2.7406,2.7406,2.7406,2.7401,2.7291,2.7238,2.737,2.7401,2.7507,2.776,2.7538,2.7406,2.7406,2.7027,2.6836,2.6847,2.7074,2.7217,2.7217,2.7592,2.7676,2.7406,2.7671,2.7671,2.7406,2.7401,2.7401,2.049,2.1205,2.2134,2.3399,2.4459,2.5428,2.6251,2.6975,2.7589,2.7971,2.8116,2.8155,2.8063,2.805,2.8023,2.7931,2.8256,2.859,2.8858,2.9568,3.0184,3.0474,3.0983,3.1287,3.1287,3.1287,3.1287,3.1287,3.1287,3.1366,3.1539,3.1884,3.2241,3.2649,3.2662,3.2517,3.2215,3.0517,2.978,2.9969,2.7724,2.6851,2.719,2.6752,2.6677,2.6836,2.6958,2.7032,2.7042,2.7217,2.7323,2.7423,2.7512,2.7538,2.756,2.7728,2.7808,2.7808,2.7808,2.7808,2.7808,2.7808,2.7808,2.7808,2.7808,2.7808,2.7808,2.7808,2.7808,2.776,2.7591,2.8111,2.8923,2.9845,2.9307,2.852,2.8344,2.7379,2.6588,2.6688,2.6773,2.6899,2.7174,2.7317,2.7459,2.7644,2.7676,2.7596,2.7427,2.7534,2.7534,2.7433,2.756,2.7697,2.7808,2.7724,2.7676,2.7676,2.7396,2.7227,2.7227,2.7222,2.7254,2.7343,2.7454,2.748,2.7406,2.7676,2.7755,2.7671,2.748,2.7406,2.1103,2.1959,2.2951,2.4538,2.5547,2.6324,2.6804,2.7378,2.7826,2.7997,2.8037,2.8037,2.8037,2.7913,2.7795,2.7795,2.801,2.8327,2.8735,2.9377,2.9944,3.0282,3.0698,3.1009,3.1139,3.1152,3.1192,3.1298,3.1287,3.1366,3.1539,3.1884,3.2109,3.2201,3.2374,3.2334,3.207,3.028,2.9524,2.9796,2.7527,2.6713,2.7165,2.6667,2.6525,2.6698,2.6698,2.6751,2.6836,2.701,2.7132,2.7227,2.7323,2.7375,2.7427,2.7591,2.7724,2.7781,2.7702,2.7724,2.7787,2.7676,2.7724,2.7787,2.7676,2.7728,2.776,2.7624,2.7671,2.7724,2.7423,2.8566,2.9789,2.9747,3.0001,2.9998,2.9272,2.7995,2.6908,2.6634,2.6694,2.6921,2.7227,2.7343,2.7507,2.776,2.7808,2.7728,2.756,2.7697,2.7728,2.756,2.7697,2.7808,2.7808,2.7808,2.7808,2.7808,2.7533,2.7406,2.7406,2.728,2.7254,2.7322,2.7396,2.7459,2.7533,2.7724,2.7808,2.7808,2.7538,2.7459,2.1459,2.2314,2.3294,2.556,2.6317,2.6738,2.7584,2.7781,2.7795,2.7781,2.7781,2.7795,2.7795,2.7795,2.7795,2.7795,2.8019,2.8401,2.9039,2.9356,2.9707,3.0243,3.0322,3.045,3.0833,3.0886,3.1005,3.1258,3.1284,3.1298,3.13,3.1752,3.1937,3.1713,3.2163,3.2308,3.2043,3.0807,2.9636,2.8543,2.7639,2.6812,2.6051,2.6309,2.644,2.644,2.644,2.6577,2.6804,2.6804,2.6931,2.7174,2.7185,2.727,2.7401,2.7401,2.756,2.7728,2.748,2.756,2.7728,2.748,2.7591,2.7728,2.7459,2.7597,2.7702,2.7317,2.7481,2.7671,2.7286,2.902,3.0512,2.9171,3.052,3.1696,3.0198,2.8963,2.7902,2.7069,2.6873,2.6968,2.7349,2.7433,2.7507,2.776,2.7808,2.7808,2.7808,2.7808,2.7808,2.7808,2.7808,2.7808,2.7808,2.7808,2.7808,2.7808,2.756,2.7433,2.7406,2.728,2.7217,2.7227,2.7343,2.7538,2.776,2.7781,2.7808,2.7808,2.7533,2.756,2.3008,2.4393,2.5507,2.699,2.7412,2.7465,2.7508,2.7658,2.7742,2.7547,2.7671,2.7795,2.7795,2.7795,2.7795,2.7795,2.7861,2.8089,2.8656,2.9021,2.9439,2.9973,3.0214,3.0361,3.045,3.0743,3.0912,3.0991,3.1005,3.1165,3.1566,3.1526,3.1645,3.1951,3.1923,3.1857,3.1792,3.1245,3.0183,2.8543,2.7639,2.6812,2.6051,2.6309,2.644,2.644,2.644,2.6482,2.6535,2.6535,2.6567,2.6667,2.6836,2.6942,2.699,2.7185,2.737,2.7507,2.7427,2.7454,2.7507,2.7427,2.7454,2.7486,2.7312,2.737,2.7454,2.7264,2.7291,2.7296,2.701,2.8623,3.0237,2.9892,3.1331,3.252,3.1553,3.0864,2.9982,2.8291,2.7589,2.7296,2.7401,2.756,2.7724,2.7781,2.7808,2.7808,2.7808,2.7808,2.7808,2.7808,2.7808,2.7808,2.7808,2.7808,2.7808,2.7808,2.7728,2.7596,2.7406,2.728,2.7238,2.7349,2.7401,2.7396,2.736,2.7677,2.7808,2.7808,2.7728,2.7728,2.3074,2.4775,2.6311,2.7505,2.7795,2.7716,2.7468,2.7521,2.7579,2.7449,2.7534,2.7671,2.7768,2.7795,2.7795,2.7795,2.79,2.8063,2.837,2.8695,2.9074,2.9545,2.9733,2.9908,3.0135,3.0353,3.0521,3.064,3.082,3.1031,3.1337,3.1407,3.1539,3.1737,3.1699,3.162,3.1513,3.1366,3.0849,2.9931,2.8724,2.7708,2.6886,2.6566,2.644,2.644,2.644,2.644,2.644,2.644,2.644,2.6461,2.6588,2.673,2.6836,2.6989,2.7153,2.7317,2.7185,2.7243,2.7307,2.7185,2.7217,2.7286,2.7106,2.7174,2.7254,2.6952,2.7372,2.7709,2.6855,2.8735,3.0683,3.0086,3.1545,3.2928,3.2469,3.1827,3.1033,3.009,2.8987,2.8052,2.765,2.7697,2.7808,2.7808,2.7808,2.7808,2.7808,2.7808,2.7808,2.7808,2.7808,2.7808,2.7808,2.7808,2.7808,2.7808,2.7808,2.7728,2.7591,2.7402,2.7323,2.7317,2.7317,2.7317,2.7286,2.7534,2.7676,2.7808,2.7808,2.7808,2.2819,2.4532,2.6384,2.7518,2.779,2.7676,2.7476,2.7423,2.7423,2.7423,2.7362,2.742,2.7742,2.779,2.7755,2.7795,2.801,2.8182,2.8182,2.8449,2.8752,2.9043,2.9158,2.9383,2.9799,2.9894,3.0052,3.0309,3.063,3.0872,3.0938,3.1353,3.1487,3.1287,3.1513,3.1526,3.1287,3.1287,3.1432,3.1662,3.0204,2.899,2.7964,2.6913,2.644,2.644,2.644,2.644,2.644,2.644,2.644,2.644,2.644,2.6567,2.6783,2.6783,2.6947,2.7132,2.6889,2.6978,2.7106,2.6915,2.6978,2.7121,2.6847,2.6957,2.7053,2.6567,2.7514,2.8358,2.6984,2.9114,3.1347,3.0203,3.1535,3.3028,3.3028,3.2262,3.161,3.1847,3.0644,2.9226,2.8197,2.7889,2.7808,2.7808,2.7808,2.7808,2.7808,2.7808,2.7808,2.7808,2.7808,2.7808,2.7808,2.7808,2.7808,2.7808,2.7808,2.7808,2.7808,2.7533,2.7343,2.7233,2.7233,2.7291,2.7396,2.7401,2.7538,2.7728,2.7787,2.7808,2.496,2.5882,2.6593,2.7571,2.7631,2.7455,2.7423,2.7423,2.7423,2.7423,2.7162,2.7107,2.7681,2.7618,2.7547,2.7755,2.801,2.8182,2.8182,2.87,2.8977,2.8713,2.9153,2.9436,2.9303,2.968,3.0052,3.0309,3.0374,3.0659,3.1205,3.1099,3.1137,3.1298,3.1339,3.1339,3.1287,3.1287,3.1432,3.1662,3.0764,2.952,2.7964,2.6913,2.644,2.644,2.644,2.644,2.644,2.644,2.644,2.644,2.644,2.6446,2.6504,2.6504,2.6677,2.6878,2.6836,2.6847,2.6878,2.6836,2.6847,2.6836,2.6603,2.6698,2.6825,2.6525,2.7249,2.8064,2.7807,2.9524,3.1316,3.1087,3.2058,3.3028,3.3028,3.2875,3.2597,3.2138,3.1777,3.1075,2.9515,2.8445,2.7808,2.7808,2.7808,2.7808,2.7808,2.7808,2.7808,2.7808,2.7808,2.7808,2.7808,2.7808,2.7808,2.7808,2.7808,2.7808,2.7808,2.7533,2.7401,2.737,2.737,2.7322,2.7243,2.7343,2.7427,2.7486,2.7697,2.7808,2.4378,2.5461,2.6377,2.6935,2.7346,2.7526,2.7167,2.7262,2.7423,2.7423,2.7262,2.7267,2.7716,2.7697,2.7658,2.7768,2.8142,2.8344,2.8208,2.874,2.9017,2.8625,2.8858,2.9074,2.9168,2.9505,2.9852,3.0095,3.0445,3.0759,3.1084,3.111,3.1165,3.1311,3.1287,3.1287,3.1287,3.1432,3.1632,3.1872,3.109,3.0097,2.8875,2.8388,2.7517,2.644,2.644,2.644,2.644,2.644,2.644,2.644,2.644,2.644,2.644,2.644,2.6514,2.6635,2.6635,2.6635,2.6635,2.6635,2.6635,2.6588,2.6482,2.6525,2.6588,2.6482,2.762,2.8772,2.8143,3.0078,3.2058,3.1432,3.2186,3.3028,3.3028,3.3028,3.302,3.2984,3.2485,3.1924,3.1461,2.9902,2.8499,2.7889,2.7808,2.7808,2.7808,2.7808,2.7808,2.7808,2.7808,2.7808,2.7808,2.7808,2.7808,2.7808,2.7808,2.7808,2.7808,2.7676,2.7533,2.7406,2.7406,2.7343,2.7206,2.7343,2.7406,2.7406,2.7676,2.7808,2.385,2.5071,2.6226,2.6554,2.7035,2.7312,2.6915,2.7062,2.7336,2.7468,2.7336,2.7336,2.7716,2.7689,2.765,2.7781,2.8239,2.848,2.8221,2.8793,2.9057,2.8568,2.8598,2.8774,2.8925,2.9317,2.9664,2.9908,3.0532,3.0912,3.0978,3.1179,3.1287,3.1287,3.1287,3.1287,3.1287,3.1487,3.1752,3.207,3.1443,3.0765,3.004,2.958,2.8414,2.6784,2.6517,2.644,2.644,2.644,2.644,2.644,2.644,2.644,2.644,2.644,2.644,2.644,2.644,2.644,2.644,2.644,2.644,2.644,2.644,2.644,2.6466,2.6697,2.8209,2.958,2.8875,3.0883,3.2799,3.1905,3.239,3.3028,3.3028,3.3081,3.3253,3.3742,3.3113,3.2553,3.2642,3.1141,2.9432,2.8008,2.7808,2.7808,2.7808,2.7808,2.7808,2.7808,2.7808,2.7808,2.7808,2.7808,2.7808,2.7808,2.7808,2.7808,2.7808,2.7808,2.7697,2.7507,2.7427,2.7349,2.7254,2.7322,2.7396,2.7406,2.7623,2.7728,2.5514,2.61,2.654,2.7177,2.6761,2.6311,2.673,2.6841,2.7033,2.7636,2.7101,2.6777,2.765,2.7317,2.712,2.7702,2.8239,2.848,2.8221,2.8942,2.9188,2.8327,2.8753,2.8885,2.8313,2.9034,2.9664,2.9908,3.0532,3.1005,3.1258,3.1273,3.1287,3.1287,3.1287,3.1287,3.1287,3.1313,3.1603,3.207,3.1997,3.1696,3.1075,2.9054,2.8041,2.781,2.685,2.644,2.644,2.644,2.644,2.644,2.644,2.644,2.644,2.644,2.644,2.644,2.644,2.644,2.644,2.644,2.644,2.644,2.644,2.644,2.663,2.7579,2.8772,2.9938,3.0768,3.2033,3.3028,3.2901,3.2977,3.3028,3.3028,3.3226,3.3503,3.3781,3.3926,3.3471,3.1739,3.1275,3.0371,2.8143,2.7808,2.7808,2.7808,2.7808,2.7808,2.7808,2.7808,2.7808,2.7808,2.7808,2.7808,2.7808,2.7808,2.7808,2.7808,2.7808,2.7781,2.776,2.7538,2.7406,2.7401,2.728,2.7301,2.7406,2.7427,2.756,2.2994,2.4099,2.5125,2.5084,2.5678,2.6311,2.633,2.61,2.6094,2.6838,2.6996,2.7069,2.7186,2.7317,2.7444,2.7539,2.8142,2.8546,2.8449,2.9074,2.9347,2.8832,2.8797,2.8788,2.8766,2.9105,2.9479,2.9894,3.0532,3.0938,3.1057,3.1205,3.1287,3.1287,3.1287,3.1287,3.1287,3.1458,3.162,3.1844,3.1539,3.1597,3.1929,2.9954,2.9054,2.8952,2.7184,2.644,2.644,2.644,2.644,2.644,2.644,2.644,2.644,2.644,2.644,2.644,2.644,2.644,2.644,2.644,2.644,2.6543,2.7169,2.7374,2.7605,2.8721,2.9847,3.0768,3.1177,3.2186,3.3028,3.3028,3.3028,3.3028,3.3028,3.3253,3.3504,3.3755,3.4045,3.4028,3.351,3.2217,3.0979,3.0036,2.8715,2.7808,2.7808,2.7808,2.7808,2.7808,2.7808,2.7808,2.7808,2.7808,2.7808,2.7808,2.7808,2.7808,2.7808,2.7808,2.7808,2.7808,2.7697,2.756,2.7406,2.7512,2.7512,2.7406,2.756,2.7697,2.1596,2.2718,2.3879,2.377,2.4591,2.5454,2.5771,2.5546,2.5474,2.6277,2.674,2.6998,2.7009,2.7265,2.7491,2.7436,2.7984,2.848,2.855,2.9051,2.9356,2.9171,2.8915,2.8814,2.8955,2.9171,2.9436,2.9799,3.0389,3.0806,3.0909,3.1084,3.1218,3.1311,3.1287,3.1287,3.1287,3.1473,3.1618,3.1686,3.1389,3.1645,3.2285,3.0776,2.9942,2.9631,2.7722,2.6722,2.644,2.644,2.644,2.644,2.644,2.644,2.644,2.644,2.644,2.644,2.644,2.644,2.644,2.644,2.644,2.6558,2.721,2.7667,2.8223,2.9318,3.0451,3.1381,3.1713,3.2416,3.3028,3.3028,3.3028,3.3028,3.3028,3.3319,3.3609,3.3794,3.415,3.4373,3.4274,3.2633,3.1168,3.0833,2.9077,2.7808,2.7808,2.7808,2.7808,2.7808,2.7808,2.7808,2.7808,2.7808,2.7808,2.7808,2.7808,2.7808,2.7808,2.7808,2.7808,2.7808,2.7808,2.7697,2.7538,2.7623,2.7623,2.7538,2.765,2.7728,2.2538,2.2731,2.3165,2.4058,2.3618,2.3381,2.4925,2.5275,2.5474,2.6277,2.6245,2.6338,2.723,2.7088,2.6962,2.7349,2.7856,2.8287,2.8546,2.8915,2.9145,2.9168,2.9168,2.9004,2.8625,2.9143,2.9554,2.9532,3.0016,3.05,3.0896,3.0909,3.1031,3.1298,3.1287,3.1287,3.1287,3.1287,3.1432,3.1686,3.1938,3.207,3.2058,3.1269,3.0484,2.9682,2.8491,2.74,2.644,2.644,2.644,2.644,2.644,2.644,2.644,2.644,2.644,2.644,2.644,2.644,2.644,2.644,2.644,2.6398,2.614,2.6974,2.8189,2.9107,3.0292,3.156,3.2722,3.3028,3.3028,3.3028,3.3028,3.3028,3.3028,3.3451,3.3834,3.3808,3.4335,3.4422,3.3265,3.208,3.0898,2.974,2.8553,2.7808,2.7808,2.7808,2.7808,2.7808,2.7808,2.7808,2.7808,2.7808,2.7808,2.7808,2.7808,2.7808,2.7808,2.7808,2.7808,2.7808,2.7808,2.7808,2.7808,2.7538,2.7533,2.7781,2.7538,2.7533,2.1337,2.2126,2.3008,2.3284,2.3618,2.4169,2.5295,2.5533,2.5692,2.6317,2.6094,2.5936,2.6391,2.7043,2.7523,2.7658,2.8116,2.8568,2.8915,2.9228,2.9479,2.9667,2.936,2.9264,2.9499,2.9373,2.9356,2.9518,3.0039,3.0385,3.05,3.093,3.1218,3.1311,3.1287,3.1287,3.1287,3.1287,3.1326,3.1407,3.1698,3.1805,3.1782,3.118,3.0778,3.0447,2.8729,2.781,2.7451,2.6722,2.644,2.644,2.644,2.644,2.644,2.644,2.644,2.644,2.644,2.644,2.644,2.644,2.6309,2.6441,2.7859,2.8487,2.9058,3.0942,3.1788,3.2168,3.2548,3.2858,3.3028,3.3028,3.3028,3.3028,3.3028,3.3464,3.3808,3.3808,3.4348,3.4663,3.4313,3.3265,3.208,3.0925,2.974,2.8715,2.7889,2.7808,2.7808,2.7808,2.7808,2.7808,2.7808,2.7808,2.7808,2.7808,2.7808,2.7808,2.7808,2.7808,2.7808,2.7808,2.7808,2.7808,2.7808,2.7724,2.7724,2.7808,2.7724,2.7724,2.108,2.1963,2.2837,2.3096,2.3483,2.4071,2.5256,2.5256,2.5197,2.5856,2.5903,2.585,2.6015,2.6798,2.7491,2.7631,2.7997,2.8445,2.8876,2.9202,2.9492,2.9759,2.9598,2.9584,2.9894,2.9641,2.9518,2.969,3.0,3.0279,3.055,3.0917,3.1192,3.1311,3.1287,3.1287,3.1287,3.1287,3.1287,3.1287,3.1447,3.1592,3.1662,3.1347,3.1092,3.0841,2.9633,2.8666,2.7927,2.725,2.675,2.6414,2.6319,2.6366,2.644,2.644,2.644,2.644,2.644,2.644,2.644,2.644,2.6256,2.6348,2.8026,2.8741,2.9321,3.109,3.2007,3.2454,3.2454,3.2649,3.2871,3.3002,3.3028,3.3055,3.316,3.353,3.3847,3.3952,3.4414,3.4797,3.4797,3.3817,3.2623,3.1347,3.0141,2.8965,2.7731,2.7587,2.7592,2.7644,2.7644,2.7676,2.7808,2.7808,2.7808,2.7808,2.7808,2.7808,2.7808,2.7808,2.7808,2.7808,2.7808,2.7808,2.7808,2.7808,2.7808,2.7808,2.7808,2.7808,2.1625,2.2172,2.2701,2.3353,2.333,2.3499,2.4952,2.4602,2.4246,2.5057,2.5619,2.5975,2.6021,2.6448,2.6935,2.7407,2.7645,2.7979,2.8533,2.8902,2.9237,2.9554,2.9786,2.9934,2.996,2.9947,2.9934,2.9934,2.9947,3.0257,3.0859,3.0936,3.1044,3.1298,3.13,3.13,3.1287,3.13,3.13,3.1287,3.1287,3.1432,3.1671,3.1698,3.1419,3.0955,3.0917,2.9838,2.8073,2.7885,2.7257,2.6372,2.6172,2.6214,2.6419,2.644,2.644,2.644,2.644,2.644,2.644,2.644,2.6246,2.6169,2.7057,2.8065,2.9114,2.9993,3.1286,3.2401,3.2401,3.2453,3.2558,3.2911,3.3015,3.3133,3.3385,3.3649,3.39,3.4136,3.4519,3.4797,3.4797,3.3897,3.2642,3.1132,2.9979,2.8783,2.7396,2.7206,2.7238,2.7396,2.7401,2.7507,2.7728,2.7787,2.7787,2.7787,2.7781,2.7808,2.7808,2.7808,2.7808,2.7808,2.7808,2.7808,2.7808,2.7808,2.7808,2.7808,2.7808,2.7808,2.173,2.2172,2.2701,2.3353,2.4278,2.5045,2.5216,2.5097,2.4919,2.4835,2.4921,2.5211,2.5902,2.6139,2.6693,2.8081,2.7847,2.7864,2.8894,2.884,2.9012,2.9759,2.9894,3.0026,3.0203,3.0042,2.9934,2.9934,3.0121,3.0421,3.0896,3.1097,3.1232,3.1311,3.1487,3.1487,3.1287,3.1487,3.1487,3.1287,3.1287,3.135,3.1392,3.1581,3.1629,3.1477,3.108,3.0197,2.899,2.8252,2.7236,2.6136,2.6313,2.6256,2.6172,2.6351,2.644,2.644,2.644,2.644,2.644,2.644,2.6129,2.6081,2.785,2.8379,2.8805,3.0776,3.1582,3.1859,3.1859,3.2175,3.248,3.2571,3.2845,3.3133,3.3385,3.3649,3.39,3.4136,3.4519,3.4797,3.4797,3.4556,3.3607,3.1265,3.0659,2.9701,2.7501,2.7206,2.7227,2.7254,2.7264,2.7333,2.7486,2.7507,2.7507,2.7507,2.7676,2.7808,2.7808,2.7808,2.7808,2.7808,2.7808,2.7808,2.7808,2.7808,2.7808,2.7808,2.7808,2.7808,2.2067,2.2657,2.3149,2.3092,2.3752,2.434,2.4082,2.4251,2.4415,2.4201,2.4421,2.4915,2.5711,2.5863,2.6239,2.7401,2.7576,2.7824,2.8436,2.881,2.9104,2.9292,2.9779,3.0069,2.9987,3.0231,3.03,3.0121,3.0243,3.0529,3.1071,3.111,3.1165,3.1311,3.1445,3.1421,3.1287,3.1552,3.1552,3.1287,3.1287,3.1287,3.1287,3.1458,3.1579,3.1675,3.1383,3.0804,2.9958,2.8871,2.7851,2.6876,2.6307,2.6051,2.6041,2.6062,2.6161,2.6267,2.6408,2.644,2.644,2.644,2.6427,2.6655,2.8288,2.8838,2.9266,3.1009,3.15,3.1526,3.1647,3.191,3.2163,3.2401,3.2611,3.2925,3.3504,3.3728,3.3965,3.4387,3.4651,3.4797,3.4797,3.4797,3.3901,3.1292,3.091,2.9973,2.7362,2.7031,2.7031,2.7031,2.7031,2.7127,2.7296,2.7317,2.7343,2.7406,2.7538,2.7676,2.7808,2.7808,2.7808,2.7808,2.7808,2.7808,2.7808,2.7808,2.7808,2.7808,2.7808,2.7808,2.2437,2.3193,2.3646,2.2832,2.2788,2.2858,2.2617,2.3053,2.3503,2.3445,2.4103,2.4888,2.5487,2.5659,2.5883,2.6304,2.7141,2.7763,2.7795,2.8727,2.9219,2.8726,2.9598,3.0108,2.9693,3.032,3.0627,3.0348,3.0335,3.0606,3.1194,3.1071,3.1071,3.1298,3.1326,3.1326,3.1287,3.1513,3.1513,3.1287,3.1287,3.1287,3.1287,3.1287,3.1419,3.162,3.166,3.1331,3.0704,2.9504,2.8665,2.7986,2.6403,2.5973,2.6219,2.5891,2.5893,2.6098,2.6341,2.6517,2.6697,2.6876,2.7209,2.7735,2.8723,2.9391,3.0031,3.101,3.1287,3.1339,3.1566,3.1647,3.1818,3.2295,3.2479,3.2807,3.3662,3.3873,3.4058,3.4678,3.4797,3.4797,3.4797,3.4797,3.3901,3.1292,3.091,2.99,2.7176,2.6825,2.6815,2.6773,2.6773,2.6857,2.7142,2.7164,2.7185,2.7317,2.7317,2.7454,2.7728,2.7728,2.776,2.7808,2.7808,2.7808,2.7808,2.7808,2.7808,2.7808,2.7808,2.7808,2.2525,2.3053,2.3453,2.2999,2.2898,2.2858,2.2617,2.3053,2.3432,2.3096,2.3902,2.4835,2.5256,2.5698,2.6015,2.6087,2.6866,2.7547,2.7768,2.8318,2.8805,2.903,2.9614,3.0066,3.0177,3.0132,3.0158,3.0309,3.0335,3.0514,3.0938,3.115,3.1258,3.1287,3.15,3.1513,3.1287,3.1326,3.1326,3.1287,3.1287,3.1287,3.1287,3.1287,3.1313,3.1366,3.1592,3.1136,3.0204,2.9565,2.9096,2.8639,2.697,2.6695,2.7141,2.6538,2.6203,2.6098,2.6341,2.7004,2.7913,2.89,2.9136,2.9182,2.9992,3.0167,3.0247,3.1062,3.1287,3.13,3.1364,3.1513,3.1765,3.2057,3.2568,3.3134,3.3702,3.4005,3.4295,3.4705,3.4797,3.4797,3.4797,3.4797,3.3901,3.1292,3.091,2.99,2.7176,2.6825,2.6751,2.6525,2.6504,2.6599,2.6857,2.6878,2.6889,2.6931,2.6931,2.7069,2.7454,2.7459,2.756,2.7808,2.7808,2.7808,2.7808,2.7808,2.7808,2.7808,2.7808,2.7808,2.2718,2.3145,2.3432,2.3039,2.3096,2.3167,2.2841,2.3158,2.3511,2.3452,2.3887,2.4419,2.4868,2.5151,2.5461,2.5975,2.6404,2.6932,2.7711,2.8406,2.8889,2.884,2.9486,2.9944,2.9894,3.0066,3.0177,3.0322,3.0335,3.05,3.0896,3.1018,3.1163,3.1311,3.1419,3.1339,3.1097,3.1097,3.1097,3.1097,3.1097,3.097,3.0777,3.0777,3.0777,3.0777,3.0885,3.0857,3.0694,2.9821,2.9696,2.9889,2.8374,2.806,2.8371,2.7823,2.7324,2.7078,2.7612,2.7893,2.8195,2.9349,2.9948,3.0237,3.0454,3.0826,3.1189,3.126,3.1287,3.1287,3.1287,3.1487,3.1752,3.2029,3.2568,3.3187,3.3715,3.4045,3.4321,3.4705,3.4797,3.4744,3.4519,3.4651,3.4064,3.1866,3.1186,3.0138,2.7935,2.7189,2.6741,2.6446,2.644,2.6467,2.6624,2.6609,2.6609,2.6609,2.6751,2.6895,2.708,2.7296,2.7459,2.7591,2.7728,2.7808,2.7808,2.7808,2.7808,2.7808,2.7808,2.7808,2.3052,0.0,2.3717,2.3341,2.3448,2.3551,0.0,2.3409,2.367,2.3876,2.4016,2.4221,2.4599,2.4763,2.5072,2.583,2.5949,2.6357,2.7552,2.8225,2.8573,2.8502,2.916,2.9565,2.9475,2.9825,3.0082,3.0135,3.0214,3.0369,3.065,3.073,3.0875,3.1075,3.1051,3.097,3.0769,3.0859,3.0909,3.0909,3.0909,3.0756,3.045,3.0361,3.0335,3.0335,3.0335,3.0608,3.0993,2.9889,3.0064,3.0853,2.9397,2.9121,2.9464,2.8843,2.8296,2.7953,2.8767,2.8853,2.875,2.9774,3.0697,3.1333,3.0991,3.15,3.207,3.1605,3.1432,3.1405,3.1471,3.1579,3.1765,3.2083,3.262,3.3187,3.3715,3.4045,3.4294,3.4612,3.4744,3.4651,3.4189,3.4413,3.4067,3.2236,3.1259,3.0121,2.8405,2.7302,2.6546,2.6277,2.6298,2.633,2.633,2.6383,2.644,2.644,2.6646,2.6773,2.6825,2.718,2.737,2.7406,2.7676,2.7808,2.7808,2.7808,2.7808,2.7808,2.7808,2.7808,0.0,2.4216,2.452,2.4269,2.4055,2.3871,2.3844,2.3876,0.0,2.391,2.4295,2.4639,2.4678,2.4973,2.5322,2.5639,2.5672,2.6081,2.7257,2.718,2.7296,2.8107,2.8467,2.8805,2.9145,2.9211,2.932,2.9584,2.9825,2.9973,2.9987,3.024,3.0385,3.0387,3.0387,3.0374,3.0361,3.073,3.0909,3.0909,3.0909,3.0872,3.0846,3.05,3.0335,3.0335,3.0335,3.0348,3.0319,2.9535,3.0018,3.109,2.917,2.9096,2.9981,2.9077,2.8429,2.8109,2.8991,2.9751,3.0429,3.1015,3.1956,3.2769,3.2141,3.2179,3.2387,3.2096,3.1844,3.1713,3.1963,3.1857,3.1818,3.2321,3.2753,3.3187,3.3715,3.4045,3.4202,3.4255,3.4546,3.4599,3.3965,3.4084,3.3662,3.1973,3.086,2.9568,2.7873,2.6753,2.5999,2.5731,2.5935,2.6062,2.6062,2.6288,2.644,2.644,2.6461,2.6567,2.6815,2.7084,2.728,2.7406,2.7676,2.7808,2.7808,2.7808,2.7808,2.7808,2.7808,2.7808,2.3905,2.4427,2.4665,2.4566,2.4479,2.4348,2.4182,2.4029,2.3963,2.4135,2.4182,2.4261,2.4414,2.4564,2.4893,2.554,2.5665,2.5989,2.6917,2.7273,2.7628,2.8129,2.8639,2.907,2.937,2.9034,2.9087,2.9746,2.972,2.9838,3.0161,3.0269,3.0164,2.9865,2.9852,2.9908,3.0082,3.0382,3.0527,3.054,3.0783,3.0701,3.0297,3.0145,3.0,2.9852,2.9852,2.9934,0.0,2.9743,3.0209,3.1012,3.043,3.055,3.1073,3.0708,3.0142,2.9661,3.0313,3.0538,3.0628,3.1301,3.206,3.2636,3.2387,3.215,3.1912,3.1671,3.162,3.1699,3.1805,3.1991,3.2216,3.2426,3.2898,3.3345,3.3543,3.3794,3.3979,3.3979,3.4084,3.4005,3.3425,3.3544,3.3309,3.2118,3.1193,3.0103,2.8636,2.7475,2.6489,2.5743,2.5893,2.595,2.569,2.5844,2.5946,2.5946,2.6119,2.6235,2.633,2.6751,2.7084,2.728,2.746,2.7644,2.7808,2.7808,2.7808,2.7808,2.7808,2.7808,2.4097,2.4572,2.4861,2.4861,2.4861,2.4769,2.4393,2.4156,2.4069,2.4174,2.4024,2.3989,2.4248,2.4301,2.4525,2.5243,2.5467,2.5791,2.6488,2.7093,2.7628,2.801,2.8542,2.8951,2.9219,2.8831,2.8923,2.9736,2.9571,2.9641,3.0164,3.0121,2.9908,2.9568,2.9554,2.9637,2.9812,3.0069,3.0243,3.0335,3.059,3.0548,3.0221,3.0036,2.9868,2.9786,2.9693,2.9772,2.9934,2.9934,3.0218,3.0611,3.0785,3.1115,3.1421,3.1421,3.1113,3.0704,3.123,3.1141,3.0895,3.1596,3.2043,3.2347,3.2347,3.2096,3.1765,3.1592,3.1618,3.1699,3.1792,3.207,3.2361,3.2428,3.2886,3.3345,3.3424,3.3649,3.3808,3.3808,3.3887,3.3742,3.3147,3.3266,3.3122,3.2226,3.1342,3.0316,2.9001,2.7862,2.6712,2.5595,2.5745,2.5823,2.5542,2.5672,2.5767,2.5668,2.584,2.5925,2.5925,2.6404,2.6783,2.6957,2.7259,2.7507,2.7676,2.776,2.7808,2.7808,2.7808,2.7808,2.4253,2.4755,2.5275,2.5275,2.5275,2.5097,2.4451,2.4301,2.4221,2.3963,2.391,2.3989,2.4248,2.4301,2.4374,2.4658,2.5019,2.5454,2.5975,2.6501,2.7059,2.7729,2.8023,2.8278,2.8559,2.8563,2.8844,2.9492,2.9326,2.9396,2.9931,2.9667,2.9554,2.9554,2.9554,2.9554,2.9554,2.9812,3.0056,3.0335,3.0335,3.055,3.0896,3.0244,3.0105,3.0309,3.0042,2.9934,2.9934,2.9934,2.9934,2.9934,2.9934,3.0336,3.0909,3.0909,3.0909,3.0978,3.1487,3.15,3.1379,3.1897,3.2081,3.2057,3.2081,3.2081,3.2081,3.2081,3.1884,3.1739,3.1991,3.207,3.2149,3.2413,3.2767,3.3133,3.3385,3.3623,3.3821,3.3821,3.4018,3.3966,3.3174,3.3253,3.3122,3.2226,3.12,3.0044,2.8751,2.7683,2.6525,2.5223,2.5418,2.5657,2.5657,2.5904,2.5935,2.5668,2.5657,2.5657,2.5657,2.6172,2.644,2.6451,2.7074,2.7406,2.7406,2.7676,2.7808,2.7808,2.7808,2.7808,2.4466,2.4697,2.4933,2.5203,2.5058,2.4756,2.4374,2.4174,2.395,2.3696,2.363,2.3656,2.3736,2.3902,2.4103,2.4374,2.5064,2.5659,2.6008,2.6501,2.7138,2.7971,2.8142,2.8401,2.8915,2.8991,2.9149,2.9528,2.9326,2.9396,2.9931,2.9667,2.9554,2.9554,2.9554,2.9554,2.9554,2.9812,3.0056,3.0335,3.0603,3.0783,3.0909,3.0714,3.0521,3.0322,3.0243,3.0203,3.0203,3.0203,3.0118,2.9947,3.0135,3.0332,3.055,3.082,3.1018,3.1165,3.1139,3.1205,3.1298,3.1258,3.1511,3.1765,3.1579,3.1537,3.1537,3.1537,3.1485,3.1485,3.1726,3.207,3.2374,3.2441,3.2767,3.3055,3.3134,3.3226,3.3292,3.3292,3.3332,3.3214,3.2715,3.2702,3.261,3.216,3.1797,3.0951,2.9077,2.8569,2.7652,2.5691,2.5756,2.5836,2.5668,2.5745,2.5731,2.5668,2.584,2.5935,2.5935,2.6256,2.6525,2.672,2.7079,2.7317,2.7406,2.7676,2.7808,2.7808,2.7808,2.7808,2.4453,2.4526,2.4598,2.4827,2.4788,2.4566,2.4095,2.3876,2.3646,2.3343,2.3216,2.3242,2.3617,2.381,2.4082,2.4615,2.5223,2.5791,2.6153,2.6693,2.7338,2.8103,2.8287,2.855,2.9092,2.9168,2.9119,2.9017,2.8977,2.9149,2.9611,2.9466,2.9426,2.9554,2.9554,2.9554,2.9554,2.9716,2.9908,3.0174,3.0511,3.0756,3.0909,3.0909,3.0835,3.0711,3.0593,3.0564,3.0564,3.0564,3.0369,3.0108,3.0256,3.0424,3.059,3.082,3.1047,3.1284,3.1123,3.1152,3.1284,3.1123,3.1284,3.1511,3.1339,3.1287,3.1287,3.1287,3.1287,3.1326,3.1487,3.1752,3.2017,3.2136,3.2478,3.2806,3.2806,3.3042,3.32,3.32,3.32,3.3082,3.2767,3.2689,3.2583,3.2255,3.2216,3.1467,2.9402,2.9127,2.8229,2.5917,2.5977,2.6108,2.584,2.583,2.5788,2.5668,2.5819,2.5893,2.5893,2.603,2.6298,2.6677,2.6936,2.7185,2.7406,2.7676,2.7808,2.7808,2.7808,2.7808,2.4301,2.4301,2.4301,2.4301,2.4474,2.4466,2.3696,2.3516,2.3405,2.2986,2.2705,2.2802,2.3654,2.3871,2.4206,2.5071,2.5487,2.5903,2.6388,2.7024,2.7613,2.8116,2.8384,2.866,2.9057,2.9105,2.8859,2.8274,2.8427,2.8713,2.9053,2.9119,2.9277,2.9541,2.9554,2.9554,2.9554,2.9554,2.968,2.9973,3.0203,3.054,3.0949,3.0949,3.1047,3.1273,3.1044,3.0949,3.0949,3.0949,3.0719,3.0385,3.0385,3.059,3.0909,3.0909,3.1047,3.1287,3.1287,3.1287,3.1287,3.1287,3.1287,3.1287,3.1287,3.1287,3.1287,3.1287,3.1287,3.1287,3.1287,3.1287,3.1366,3.1632,3.2071,3.2454,3.2454,3.2939,3.3398,3.3346,3.3385,3.3319,3.3042,3.3015,3.2936,3.2596,3.2518,3.18,2.978,2.9451,2.8473,2.6128,2.6212,2.633,2.6119,2.6098,2.5977,2.5741,2.5745,2.5745,2.5745,2.5745,2.5967,2.6446,2.6741,2.7042,2.7406,2.7676,2.7808,2.7808,2.7808,2.7808,2.4301,2.4301,2.4301,2.4301,2.4334,2.4253,2.3662,2.3516,2.3353,2.2767,2.2591,2.2652,2.3078,2.3557,2.4103,2.4697,2.5639,2.6383,2.6683,2.7122,2.7613,2.8116,2.805,2.8168,2.8647,2.8677,2.8625,2.8506,2.8524,2.8506,2.8401,2.8894,2.9277,2.9541,2.9554,2.9554,2.9554,2.9554,2.9772,3.0253,3.0295,3.0645,3.1218,3.1218,3.1245,3.1311,3.1245,3.1218,3.1218,3.1218,3.1047,3.0793,3.0793,3.0833,3.0909,3.0909,3.1047,3.1287,3.1287,3.1287,3.1287,3.1287,3.1287,3.1287,3.1287,3.1287,3.1287,3.1287,3.1287,3.1287,3.1287,3.1287,3.1366,3.1632,3.2071,3.2454,3.2454,3.2819,3.3055,3.2741,3.2911,3.3003,3.2662,3.2858,3.3041,3.2924,3.2936,3.2427,3.1064,3.0172,2.9103,2.7655,2.6874,2.6419,2.6351,2.6366,2.6319,2.6267,2.6267,2.6267,2.6267,2.6267,2.643,2.6715,2.7,2.7227,2.7406,2.7676,2.7808,2.7808,2.7808,2.7808,2.4301,2.4301,2.4301,2.4301,2.4301,2.4201,2.3797,2.3622,2.3379,2.2841,2.2749,2.2788,2.2916,2.357,2.4274,2.4887,2.5797,2.6593,2.7035,2.7394,2.775,2.8151,2.8063,2.8089,2.837,2.8375,2.8344,2.8212,2.8199,2.8155,2.8019,2.855,2.9074,2.9518,2.9554,2.9554,2.9554,2.9554,2.969,2.9947,3.0214,3.0516,3.0854,3.1155,3.1287,3.1287,3.1287,3.1287,3.1287,3.1287,3.1218,3.1097,3.1097,3.1097,3.1097,3.1097,3.1179,3.1287,3.1287,3.1287,3.1287,3.1287,3.1287,3.1287,3.1287,3.1287,3.1287,3.1287,3.1287,3.1287,3.1287,3.1287,3.135,3.1485,3.1699,3.195,3.2045,3.2345,3.2503,3.2295,3.2531,3.2689,3.2505,3.278,3.3028,3.3028,3.3028,3.262,3.1458,3.0384,2.9515,2.89,2.7389,2.644,2.644,2.644,2.644,2.644,2.644,2.644,2.644,2.6309,2.6493,2.7,2.7021,2.7227,2.7591,2.7728,2.7808,2.7808,2.7808,2.7808,2.4274,2.4301,2.4301,2.4301,2.4301,2.4235,2.3976,2.3731,2.348,2.3122,2.3039,2.3052,2.3087,2.3789,2.4591,2.5295,2.6028,2.6725,2.7389,2.7671,2.7887,2.8089,2.8137,2.8137,2.8137,2.8137,2.8023,2.7808,2.7795,2.7795,2.7795,2.8252,2.8779,2.9351,2.9462,2.9515,2.9554,2.9554,2.9558,2.9611,3.0095,3.0348,3.0437,3.1025,3.1287,3.1287,3.1287,3.1287,3.1287,3.1287,3.1287,3.1287,3.1287,3.1287,3.1287,3.1287,3.1287,3.1287,3.1287,3.1287,3.1287,3.1287,3.1287,3.1287,3.1287,3.1287,3.1287,3.1287,3.1287,3.1287,3.1287,3.1287,3.1287,3.1287,3.1287,3.1366,3.162,3.1857,3.2016,3.2016,3.2242,3.2441,3.2413,3.2753,3.3028,3.3028,3.3028,3.2697,3.1713,3.0512,2.9733,2.9733,2.7748,2.644,2.644,2.644,2.644,2.644,2.644,2.644,2.644,2.6235,2.644,2.7142,2.6947,2.7132,2.7698,2.7698,2.7698,2.7702,2.7724,2.7724,2.4187,2.4301,2.4301,2.4301,2.4301,2.4235,2.3976,2.3902,2.3765,2.3498,2.3445,2.3524,2.372,2.4237,2.4921,2.5804,2.6409,2.6994,2.765,2.7768,2.7808,2.7826,2.7847,2.7847,2.7847,2.7847,2.7834,2.7795,2.7795,2.7795,2.7795,2.8076,2.837,2.869,2.9043,2.9317,2.9554,2.9554,2.9664,2.9904,3.0187,3.05,3.0846,3.1152,3.1287,3.1287,3.1287,3.1287,3.1287,3.1287,3.1287,3.1287,3.1287,3.1287,3.1287,3.1287,3.1287,3.1287,3.1287,3.1287,3.1287,3.1287,3.1287,3.1287,3.1287,3.1287,3.1287,3.1287,3.1287,3.1287,3.1287,3.1287,3.1287,3.1287,3.1287,3.1366,3.162,3.1713,3.1739,3.1739,3.2149,3.2375,3.2162,3.2634,3.3028,3.3028,3.3028,3.2977,3.2824,3.1024,2.9733,2.9733,2.7748,2.644,2.644,2.644,2.644,2.644,2.644,2.644,2.644,2.6393,2.6535,2.6868,2.6836,2.6989,2.7301,2.7301,2.7301,2.7275,2.7396,2.7396,2.3797,2.4087,2.4301,2.4301,2.4301,2.4255,2.4161,2.4116,2.4037,2.3797,2.385,2.3902,2.3717,2.4248,2.481,2.5211,2.5915,2.654,2.6983,2.7346,2.7587,2.7587,2.7689,2.7795,2.7795,2.7795,2.7795,2.7795,2.7795,2.7795,2.7795,2.8058,2.8305,2.8572,2.8964,2.9277,2.9554,2.9554,2.9598,2.9707,2.9987,3.0253,3.059,3.0928,3.1152,3.1287,3.1287,3.1287,3.1287,3.1287,3.1287,3.1287,3.1287,3.1287,3.1287,3.1287,3.1287,3.1287,3.1287,3.1287,3.1287,3.1287,3.1287,3.1287,3.1287,3.1287,3.1287,3.1287,3.1287,3.1287,3.1287,3.1287,3.1287,3.1287,3.1287,3.1337,3.1458,3.1485,3.1485,3.1485,3.1765,3.2043,3.2057,3.2425,3.2793,3.3015,3.3028,3.3028,3.3028,3.1611,3.0384,2.9784,2.8286,2.7092,2.6502,2.644,2.644,2.644,2.644,2.644,2.644,2.644,2.6556,2.6825,2.6825,2.6957,2.7206,2.7206,2.7206,2.7206,2.7259,2.7286,2.3295,2.3731,2.4116,2.4261,2.4301,2.4301,2.4301,2.4301,2.4248,2.4037,2.4156,2.4187,2.3802,2.4242,2.4737,2.4835,2.5527,2.6146,2.6388,2.6904,2.7288,2.7389,2.7587,2.7716,2.7795,2.7795,2.7795,2.7795,2.7795,2.7795,2.7795,2.7971,2.8247,2.855,2.8876,2.9175,2.9554,2.9554,2.9554,2.9532,2.9812,3.0029,3.0253,3.0703,3.1005,3.1205,3.1271,3.1287,3.1287,3.1287,3.1287,3.1287,3.1287,3.1287,3.1287,3.1287,3.1287,3.1287,3.1287,3.1287,3.1287,3.1287,3.1287,3.1287,3.1287,3.1287,3.1287,3.1287,3.1287,3.1287,3.1287,3.1287,3.1287,3.1287,3.1287,3.1287,3.1287,3.1287,3.1287,3.1287,3.1458,3.166,3.1937,3.2242,3.2558,3.2858,3.2989,3.3002,3.2911,3.1892,3.0835,2.9835,2.8696,2.7554,2.6517,2.644,2.6419,2.633,2.633,2.6298,2.6246,2.6298,2.644,2.6635,2.6683,2.6815,2.701,2.701,2.701,2.701,2.7074,2.7089,2.2666,2.3246,2.367,2.4187,2.4301,2.4301,2.4301,2.4301,2.4301,2.4287,2.4287,2.4287,2.4261,2.4487,2.4803,2.517,2.5712,2.6146,2.6388,2.6657,2.6988,2.7362,2.7436,2.7534,2.7768,2.7795,2.7795,2.7795,2.7795,2.7795,2.7795,2.7808,2.805,2.855,2.8598,2.8897,2.9554,2.9554,2.9554,2.9532,2.9812,2.9934,2.9973,3.0611,3.0923,3.0949,3.1179,3.1287,3.1287,3.1287,3.1287,3.1287,3.1287,3.1287,3.1287,3.1287,3.1287,3.1287,3.1287,3.1287,3.1287,3.1287,3.1287,3.1287,3.1287,3.1287,3.1287,3.1287,3.1287,3.1287,3.1287,3.1287,3.1287,3.1287,3.1287,3.1287,3.1287,3.1287,3.1287,3.1287,3.1324,3.1405,3.1671,3.2136,3.2467,3.248,3.2806,3.2911,3.2545,3.1573,3.0625,2.9812,2.8696,2.7554,2.6517,2.644,2.6345,2.6098,2.6062,2.5956,2.5699,2.5935,2.6062,2.6098,2.6345,2.6446,2.6482,2.6482,2.6482,2.6482,2.6741,2.6694,2.2161,2.2666,2.3035,2.3656,2.3929,2.4037,2.4037,2.4169,2.4301,2.4301,2.4301,2.4301,2.4301,2.4374,2.4532,2.4835,2.5059,2.5362,2.5876,2.6173,2.6442,2.6746,2.7143,2.7441,2.7547,2.7711,2.7795,2.7795,2.7795,2.7795,2.7795,2.7795,2.8037,2.855,2.8585,2.8884,2.9554,2.9554,2.9554,2.9554,2.965,2.9772,2.9934,3.0168,3.0518,3.0923,3.1005,3.1126,3.1287,3.1287,3.1287,3.1287,3.1287,3.1287,3.1287,3.1287,3.1287,3.1287,3.1287,3.1287,3.1287,3.1287,3.1287,3.1287,3.1287,3.1287,3.1287,3.1287,3.1287,3.1287,3.1287,3.1287,3.1287,3.1287,3.1287,3.1287,3.1287,3.1287,3.1287,3.1287,3.1287,3.1337,3.1419,3.1726,3.2017,3.2201,3.232,3.2371,3.2241,3.1878,3.1105,2.9649,2.9126,2.815,2.6345,2.6193,2.6062,2.583,2.5784,2.584,2.5914,2.5988,2.6041,2.6041,2.6298,2.6366,2.6193,2.6366,2.644,2.6451,2.6535,2.6525,2.1426,2.2042,2.2644,2.3097,2.3493,2.377,2.377,2.3897,2.4055,2.4142,2.4169,2.4195,2.4287,2.4301,2.4348,2.4526,2.4626,2.4842,2.5263,2.5678,2.6015,2.6284,2.6845,2.7262,2.7389,2.7439,2.7523,2.7658,2.7671,2.7689,2.7795,2.7795,2.7997,2.8449,2.8533,2.8844,2.9409,2.9515,2.9554,2.9554,2.9554,2.9637,2.9812,2.9894,3.0168,3.0584,3.0677,3.0888,3.1152,3.1152,3.1218,3.1287,3.1287,3.1287,3.1287,3.1287,3.1245,3.1152,3.1152,3.1218,3.1287,3.1287,3.1287,3.1287,3.1287,3.1287,3.1287,3.1287,3.1287,3.1287,3.1287,3.1287,3.1287,3.1287,3.1287,3.1287,3.1287,3.1287,3.1287,3.1287,3.1287,3.1287,3.1287,3.1421,3.1645,3.191,3.1925,3.191,3.1818,3.1884,3.1249,2.9399,2.9209,2.8317,2.6091,2.5914,2.5844,2.5587,2.5602,2.5633,2.5707,2.5817,2.5859,2.5859,2.614,2.6224,2.6041,2.6298,2.644,2.644,2.644,2.644,2.0503,2.1466,2.2499,2.2525,2.3013,2.3471,2.3471,2.3503,2.3577,2.385,2.3897,2.3958,2.4235,2.4287,2.4287,2.4301,2.45,2.4678,2.4691,2.5224,2.5738,2.6022,2.6488,2.6949,2.7323,2.7049,2.6988,2.7362,2.7375,2.7508,2.779,2.7781,2.7913,2.8182,2.8449,2.8739,2.9132,2.9409,2.9518,2.9518,2.9554,2.9554,2.9545,2.9789,2.9944,2.9947,3.0214,3.055,3.0896,3.0896,3.1044,3.126,3.126,3.126,3.126,3.126,3.1099,3.0896,3.0896,3.1071,3.126,3.126,3.126,3.126,3.126,3.126,3.1284,3.1273,3.1273,3.1273,3.1311,3.1287,3.1287,3.1287,3.1287,3.1287,3.1287,3.1287,3.1287,3.1287,3.1287,3.1287,3.1287,3.1287,3.1379,3.162,3.166,3.1592,3.135,3.1513,3.0991,2.9198,2.8948,2.8077,2.5896,2.5672,2.5602,2.5464,2.5443,2.5348,2.5091,2.5337,2.5454,2.5454,2.5859,2.603,2.603,2.6298,2.644,2.644,2.644,2.644,2.1222,2.135,2.1446,2.2112,2.2547,2.2824,2.2824,2.2964,2.3188,2.3564,2.3648,2.3709,2.3963,2.4016,2.4082,2.4255,2.4348,2.4479,2.4671,2.4842,2.5151,2.5692,2.6074,2.6298,2.6417,2.6672,2.6854,2.6975,2.6988,2.7141,2.7508,2.7521,2.7724,2.8168,2.8261,2.8436,2.8726,2.9083,2.9286,2.9264,2.9439,2.9554,2.9532,2.9624,2.9746,2.9934,3.0013,3.02,3.0487,3.0487,3.0516,3.0595,3.0595,3.0595,3.0595,3.0595,3.0543,3.0487,3.0487,3.054,3.0595,3.0595,3.0595,3.0595,3.0595,3.0595,3.0659,3.0928,3.1042,3.1057,3.1234,3.1287,3.1287,3.1287,3.1287,3.1287,3.1287,3.1287,3.1287,3.1287,3.1287,3.1287,3.1287,3.1287,3.1313,3.1392,3.1405,3.1379,3.13,3.1353,3.0988,2.9907,2.9144,2.8132,2.6763,2.5959,2.5419,2.5186,2.52,2.5218,2.5358,2.5422,2.5454,2.5454,2.5859,2.5956,2.5777,2.6224,2.644,2.644,2.644,2.644,1.812,1.7829,1.7984,1.9431,1.9217,1.9311,2.1809,2.1583,2.1275,2.2943,2.3259,2.3369,2.3691,2.3818,2.3963,2.4103,2.4221,2.4366,2.4519,2.4613,2.4829,2.521,2.5375,2.5553,2.5705,2.6074,2.6369,2.6501,2.6599,2.6796,2.7149,2.7302,2.7547,2.7856,2.8063,2.8274,2.8423,2.8735,2.8915,2.8915,2.9051,2.9241,2.9383,2.9383,2.9518,2.9772,2.9772,2.9921,3.0174,3.0174,3.0216,3.0335,3.0335,3.0335,3.0295,3.0069,3.0056,3.0174,3.0174,3.023,3.0335,3.0335,3.0335,3.0335,3.0335,3.0335,3.0361,3.0603,3.0666,3.0682,3.0854,3.0893,3.0933,3.1099,3.115,3.1152,3.1284,3.1287,3.1287,3.1287,3.1287,3.1287,3.1287,3.1287,3.1287,3.1287,3.1287,3.1287,3.1287,3.1287,3.1135,3.0671,2.9671,2.845,2.6984,2.5893,2.5228,2.508,2.508,2.5168,2.5281,2.5306,2.5306,2.5306,2.5641,2.5732,2.557,2.5939,2.6093,2.6093,2.6093,2.6093,1.4015,1.3738,1.445,1.6422,1.5463,1.5338,0.0,1.9521,1.8558,2.1644,2.23,2.2549,2.3251,2.3585,2.3773,2.3844,2.4076,2.4261,2.4261,2.4474,2.4658,2.4658,2.4665,2.4835,2.5176,2.5434,2.5725,2.5995,2.6219,2.6467,2.6762,2.7149,2.7362,2.7423,2.7847,2.8103,2.8142,2.8384,2.8506,2.8533,2.855,2.8752,2.9092,2.9092,2.9202,2.9439,2.9439,2.9561,2.9789,2.9852,2.999,3.0253,3.0253,3.019,3.0072,2.9614,2.9588,2.9789,2.9789,2.9937,3.0137,3.0137,3.0137,3.0137,3.0137,3.0164,3.0214,3.0216,3.0256,3.0282,3.0322,3.0335,3.0411,3.0756,3.0846,3.0912,3.1128,3.1207,3.1258,3.1258,3.1284,3.1287,3.1287,3.1287,3.1287,3.1287,3.1287,3.1287,3.1287,3.1287,3.1287,3.1287,3.0451,2.912,2.7169,2.5906,2.5202,2.508,2.508,2.5069,2.5038,2.5059,2.5048,2.4995,2.5284,2.5401,2.538,2.5549,2.5651,2.5651,2.5647,2.5604,0.0,0.0,0.0,0.0,0.0,0.0,0.0,1.6868,1.6781,1.7861,1.834,1.9334,2.1951,2.2639,2.2977,2.3493,2.381,2.3989,2.3989,2.419,2.4374,2.4374,2.4566,2.4737,2.479,2.5144,2.5454,2.5712,2.5791,2.6015,2.6501,2.6783,2.7075,2.7389,2.7508,2.7658,2.7874,2.7918,2.805,2.8252,2.8467,2.8612,2.87,2.87,2.8704,2.8779,2.8779,2.8783,2.8861,2.9166,2.9475,2.9703,2.9703,2.9381,2.8914,2.8818,2.8783,2.8835,2.8835,2.8875,2.8905,2.8905,2.8905,2.8905,2.8905,2.9143,2.9426,2.965,2.9852,3.0056,3.0269,3.0335,3.0348,3.0424,3.0437,3.045,3.0503,3.0748,3.0978,3.0978,3.1163,3.1287,3.1287,3.1287,3.1287,3.1287,3.1287,3.1287,3.1287,3.1287,3.1287,3.1287,3.1117,3.0513,2.9242,2.7411,2.5979,2.5129,2.508,2.4971,2.477,2.495,2.4876,2.4459,2.4908,2.5048,2.4834,2.5292,2.5493,2.5503,2.5598,2.5267,0.0,0.0,0.0,0.0,0.0,0.0,0.0,0.0,0.0,0.0,0.0,1.9379,1.951,0.0,2.2609,2.2806,2.3321,2.3757,2.3884,2.4029,2.409,2.409,2.4235,2.4348,2.4474,2.4769,2.5026,2.5171,2.5355,2.5632,2.6028,2.6298,2.6587,2.6911,2.7056,2.718,2.7304,2.7304,2.737,2.7493,2.7839,2.8063,2.8186,2.8318,2.8463,2.8585,2.8585,2.8585,2.8598,2.8788,2.8933,2.9038,2.877,2.848,2.8186,2.8186,2.8265,2.8384,2.8384,2.8467,2.8585,2.8585,2.8585,2.8585,2.8585,2.8713,2.888,2.9025,2.917,2.9292,2.9414,2.9595,2.9786,2.9908,3.0016,3.0174,3.0295,3.0487,3.0603,3.0603,3.0888,3.111,3.111,3.0943,3.088,3.106,3.111,3.1139,3.1284,3.1287,3.1221,3.1123,3.111,3.0678,2.9645,2.8106,2.6814,2.592,2.5254,2.477,2.4514,2.4596,2.4577,2.4298,2.4543,2.463,2.448,2.4746,2.4887,2.4887,2.4954,2.4793,0.0,0.0,0.0,0.0,0.0,0.0,0.0,0.0,0.0,0.0,0.0,0.0,0.0,0.0,0.0,2.2182,2.2859,2.348,2.3699,2.372,2.3778,2.3897,2.391,2.3997,2.4274,2.4506,2.4626,2.4678,2.4973,2.5295,2.5573,2.5844,2.6074,2.6356,2.658,2.673,2.6815,2.6775,2.6775,2.6828,2.7128,0.0,2.7636,2.7839,2.802,2.8243,2.8243,2.8243,2.8256,2.8309,2.8335,2.8305,2.78,2.7602,2.7602,2.7602,2.7747,2.791,2.791,2.8068,2.8243,2.8243,2.8283,2.8344,2.827,2.8401,0.0,2.8454,2.8607,2.873,2.8612,2.8876,2.9185,2.9334,2.9522,2.974,3.0042,3.0124,3.02,3.0253,3.0537,3.0783,3.0783,3.055,3.0435,3.0677,3.0767,3.0849,3.1009,3.1075,3.1023,3.0809,3.0783,3.045,2.9606,2.8508,2.7533,2.6828,2.5491,2.4532,2.4121,2.4163,2.4142,2.4058,2.409,2.4142,2.4184,2.4227,2.4248,2.4271,2.418,2.4364,0.0,0.0,0.0,0.0,0.0,0.0,0.0,0.0,0.0,0.0,0.0,0.0,0.0,0.0,0.0,0.0,2.2635,2.3025,2.3034,2.3065,2.3262,2.3826,2.391,2.3997,2.4274,2.4308,2.444,2.4665,2.4718,2.492,2.5282,2.556,0.0,0.0,0.0,2.6356,2.6815,2.6599,2.6599,2.6815,2.6854,2.6915,2.6941,2.6959,2.7007,2.7012,2.7012,2.7012,2.7059,2.7386,2.7547,2.7508,2.7093,2.6941,2.6941,2.6941,2.6967,2.6994,2.6994,0.0,0.0,2.7012,2.7259,2.7473,2.7146,2.7756,2.848,2.801,2.8625,2.932,2.8717,2.8876,2.9092,2.8765,2.8704,2.8831,2.9202,2.9466,2.9716,2.9934,3.02,3.0374,3.0374,3.0371,3.0279,3.0066,3.025,3.0319,3.0105,3.0279,3.0414,3.0411,3.0374,0.0,3.0233,2.8811,2.7775,2.7356,2.579,2.4429,2.3474,2.3652,2.3567,2.3098,2.3323,2.3546,2.3781,2.4003,2.4122,2.4137,2.3781,2.419,0.0,0.0,0.0,0.0,0.0,0.0,0.0,0.0,0.0,0.0,0.0,0.0,0.0,0.0,0.0,0.0,2.2006,2.249,2.249,2.2617,2.2863,2.3289,2.3541,2.3783,2.4055,2.4208,2.4334,2.4453,2.4447,2.4579,2.492,2.5039,2.525,2.5579,2.5593,2.5712,2.5909,2.581,2.581,2.5942,2.6232,2.639,2.6383,2.6691,2.6815,2.6815,2.6815,2.6815,2.6849,2.7001,2.7075,2.6996,0.0,0.0,0.0,0.0,2.635,2.6605,2.6762,2.6975,2.7188,2.7352,2.7505,2.7605,2.7444,2.7747,2.8068,2.7861,2.8137,2.8454,2.8195,2.8375,2.8546,2.8384,2.8454,2.8625,2.8788,2.8906,2.9025,2.9134,2.9552,0.0,2.9375,2.9489,2.9654,2.9693,2.9934,3.0108,3.0137,3.0279,3.0269,3.0108,3.0095,3.0095,3.0095,2.8945,0.0,0.0,0.0,2.4724,2.3592,2.3654,0.0,0.0,0.0,2.3338,2.3382,2.3477,0.0,0.0,2.3679,2.3919,0.0,0.0,0.0,0.0,0.0,0.0,0.0,0.0,0.0,0.0,0.0,0.0,0.0,0.0,0.0,0.0,2.1469,2.2071,2.2071,2.227,2.2538,2.2797,2.314,2.344,2.3628,2.3971,2.4201,2.4201,2.4261,2.4374,2.4579,2.4579,2.4743,2.5104,2.5104,2.5144,2.5275,2.5275,2.5275,2.5275,2.5659,2.5837,2.585,2.6219,2.6396,2.6396,2.6396,2.6396,2.6396,2.6396,2.6396,2.6324,2.5553,2.5394,2.5546,2.5546,2.5837,2.6271,2.6507,2.6819,2.7051,2.7241,2.7373,2.7417,2.7417,2.761,2.7781,2.7724,2.7826,2.7971,2.7834,2.7984,2.8142,2.8006,2.8116,2.8252,2.8252,2.8296,2.8375,2.8454,2.8788,2.8951,2.8542,2.8761,2.907,2.9245,2.9522,2.9799,2.9963,3.0069,3.0029,2.9852,2.9838,2.9838,2.9838,2.8968,2.8181,2.7597,2.6474,2.5416,2.4457,2.428,2.4071,2.3808,2.3808,2.3706,0.0,0.0,0.0,0.0,0.0,0.0,0.0,0.0,0.0,0.0,0.0,0.0,0.0,0.0,0.0,0.0,0.0,0.0,0.0,0.0,0.0,0.0,0.0,0.0,2.18,2.2001,2.2287,2.2525,2.2802,2.2955,2.2968,2.3544,2.3923,2.3923,2.4174,2.4301,2.4314,2.4314,2.4427,2.4711,2.4705,2.4875,2.5275,2.5275,2.5275,2.5275,2.5288,2.5282,2.5282,2.5315,2.5308,2.5308,2.5308,2.5308,2.5308,2.5308,2.5308,2.5308,2.5288,2.5275,2.5288,2.5288,2.5454,2.5712,2.5995,2.6081,2.6094,2.6107,2.6284,2.6467,2.6467,2.7101,2.7742,2.7494,2.7979,2.8427,2.794,2.7984,2.805,2.7547,2.7449,2.7441,2.7441,2.7645,2.79,2.8142,2.8019,2.7927,2.8155,2.8423,2.8598,2.8589,2.8942,0.0,2.9185,2.9422,2.9558,2.9568,2.9568,2.9568,2.9568,2.894,2.8392,2.7989,2.7241,2.6587,2.6192,2.5662,2.5293,2.501,2.5018,2.4833,2.4454,0.0,0.0,0.0,0.0,0.0,0.0,0.0,0.0,0.0,0.0,0.0,0.0,0.0,0.0,0.0,0.0,0.0,0.0,0.0,0.0,0.0,0.0,0.0,0.0,2.1459,2.1921,2.2014,2.2411,2.2617,2.2437,2.2938,2.3359,2.3643,2.3884,2.4135,2.4287,2.4301,2.434,2.4427,2.4427,2.4498,2.4623,2.4623,2.4623,2.4623,2.4802,2.4875,2.4907,2.5163,2.5275,2.5275,2.5275,2.5275,2.5275,2.5275,2.5018,2.4623,2.4623,2.488,2.5275,2.5275,2.5546,2.5929,2.6015,2.6153,2.633,2.6514,2.6625,2.6683,2.6683,2.6915,2.7146,2.7041,2.7204,2.7367,2.7191,2.7404,2.7618,2.7441,2.7547,2.7671,2.7671,2.7592,2.7626,2.7874,2.7365,2.6975,2.723,2.7712,2.7997,2.7843,2.8375,2.8765,2.8765,2.8844,2.8897,2.8897,2.9149,2.9175,2.891,2.8942,2.863,2.7772,2.7323,2.6749,2.602,2.5742,2.5506,2.5322,2.5322,2.4986,2.424,0.0,0.0,0.0,0.0,0.0,0.0,0.0,0.0,0.0,0.0,0.0,0.0,0.0,0.0,0.0,0.0,0.0,0.0,0.0,0.0,0.0,0.0,0.0,0.0,0.0,0.0,2.1545,2.198,0.0,2.1716,2.2279,2.2731,2.2881,2.3303,2.3694,2.4003,2.409,2.4195,2.4301,2.4301,2.4301,2.4301,2.4301,2.4301,2.4301,2.4479,2.4553,2.4553,2.4808,2.4919,2.4919,2.4919,2.4919,2.4919,2.4919,2.4629,2.4156,2.4156,2.4412,2.4793,2.488,2.5289,2.5784,2.5876,2.6081,2.6317,2.6501,2.6422,2.6277,2.6369,2.6231,2.6118,2.6454,2.6554,2.6586,2.6783,2.7022,2.7162,2.7069,2.7188,2.7286,2.7201,2.7038,2.7024,2.7378,2.6988,2.6599,2.6657,2.712,2.7452,2.7415,2.7834,2.8252,2.8546,2.8585,2.8585,2.8585,2.8801,2.884,2.8598,2.8801,2.8673,2.7989,2.7698,2.7303,2.6695,2.6606,2.6353,2.5941,2.595,2.5515,0.0,0.0,0.0,0.0,0.0,0.0,0.0,0.0,0.0,0.0,0.0,0.0,0.0,0.0,0.0,0.0,0.0,0.0,0.0,0.0,0.0,0.0,0.0,0.0,0.0,0.0,0.0,2.1173,2.1492,0.0,0.0,0.0,0.0,2.1727,2.2424,2.3043,2.3419,2.3704,2.3976,2.4221,2.4229,2.4261,2.4274,2.4301,2.4301,2.4301,2.4301,2.4301,2.4301,2.4301,2.4301,2.4301,2.4301,2.4301,2.4301,2.4274,2.4103,2.3884,2.3857,2.3844,2.3897,2.4169,2.4662,2.5249,2.5533,2.5804,2.5955,2.5962,2.5613,2.5275,2.548,2.5118,0.0,0.0,2.5936,2.6081,2.6599,2.6749,2.6717,2.648,2.6462,2.6396,2.6146,2.606,2.6205,2.6678,2.6757,2.6631,2.6375,0.0,2.6843,2.7217,2.7331,2.7631,2.8388,2.8519,2.8546,2.8546,2.8559,2.8559,2.8546,2.8559,2.8559,2.8559,2.8305,2.8182,2.8208,2.8155,2.7699,2.6815,2.6796,0.0,0.0,0.0,0.0,0.0,0.0,0.0,0.0,0.0,0.0,0.0,0.0,0.0,0.0,0.0,0.0,0.0,0.0,0.0,0.0,0.0,0.0,0.0,0.0,0.0,0.0,1.9897,2.0477,2.085,2.1001,2.0912,0.0,0.0,0.0,0.0,0.0,0.0,2.2503,2.2758,2.3012,2.3271,2.3567,2.381,2.4016,2.4195,2.4301,2.4301,2.4301,2.4301,2.4301,2.4301,2.4301,2.4301,2.4301,2.4301,2.4261,2.3876,2.3683,2.3577,2.3088,2.3012,2.3249,2.38,2.4127,2.4365,2.511,2.5217,2.5,2.4809,2.4643,2.4497,2.4159,0.0,0.0,0.0,0.0,2.4649,2.5461,2.5817,2.6048,2.6369,2.6586,2.6717,2.6638,2.6488,2.6271,2.6008,2.5553,2.5152,2.4869,2.5047,0.0,2.5356,0.0,2.683,2.7209,2.7699,2.7997,2.7997,2.816,2.8199,2.801,2.816,2.8278,2.8278,2.8058,2.8076,2.8454,2.7638,2.6967,2.6546,0.0,0.0,0.0,0.0,0.0,0.0,0.0,0.0,0.0,0.0,0.0,0.0,0.0,0.0,0.0,0.0,0.0,0.0,0.0,0.0,0.0,0.0,0.0,0.0,0.0,0.0,0.0,1.916,1.9712,1.9998,2.0037,1.9932,0.0,0.0,0.0,0.0,0.0,0.0,0.0,0.0,0.0,2.2578,2.2916,2.3171,2.3294,2.357,2.38,2.3968,2.4063,2.4182,2.4301,2.4301,2.4301,2.4301,2.4301,2.4071,2.3702,2.3577,2.3212,2.2722,0.0,0.0,0.0,0.0,2.3285,2.3589,2.4246,2.4351,2.4142,2.4003,0.0,0.0,0.0,0.0,0.0,0.0,0.0,2.3902,2.4655,2.5256,2.5725,2.6028,2.6298,2.6467,2.6467,2.5784,2.5085,2.478,2.4498,2.4197,2.3763,2.3966,0.0,0.0,0.0,2.6139,2.6757,2.7383,2.7795,2.7795,2.794,2.7944,2.7808,2.794,2.801,2.801,2.7777,2.7689,2.7788,2.6843,2.606,0.0,0.0,0.0,0.0,0.0,0.0,0.0,0.0,0.0,0.0,0.0,0.0,0.0,0.0,0.0,0.0,0.0,0.0,0.0,0.0,0.0,0.0,0.0,0.0,0.0,0.0,0.0,0.0,0.0,1.8931,1.9035,0.0,0.0,0.0,0.0,0.0,0.0,0.0,0.0,0.0,0.0,0.0,0.0,0.0,2.238,2.238,2.2705,2.303,2.3344,2.3594,2.3839,2.4058,2.4058,2.4071,2.4129,2.405,0.0,2.2955,2.3189,0.0,0.0,0.0,0.0,0.0,0.0,0.0,0.0,0.0,0.0,0.0,0.0,0.0,0.0,0.0,0.0,0.0,0.0,0.0,0.0,0.0,0.0,2.5355,2.5355,2.5599,2.5804,2.5744,2.4549,2.349,2.3405,2.3572,2.3518,0.0,0.0,0.0,0.0,0.0,0.0,2.6533,2.7299,2.7742,2.7742,2.7768,2.7781,2.7763,2.7742,2.7716,2.7676,2.7375,2.7038,2.6723,2.5949,0.0,0.0,0.0,0.0,0.0,0.0,0.0,0.0,0.0,0.0,0.0,0.0,0.0,0.0,0.0,0.0,0.0,0.0,0.0,0.0,0.0,0.0,0.0,0.0,0.0,0.0,0.0,0.0,0.0,0.0,0.0,0.0,0.0,0.0,0.0,0.0,0.0,0.0,0.0,0.0,0.0,0.0,0.0,0.0,0.0,0.0,0.0,0.0,0.0,0.0,2.2679,2.2802,2.2872,2.2872,2.2973,2.3139,2.2718,2.2688,2.2889,2.2318,0.0,0.0,0.0,0.0,0.0,0.0,0.0,0.0,0.0,0.0,0.0,0.0,0.0,0.0,0.0,0.0,0.0,0.0,0.0,0.0,0.0,0.0,2.39,2.39,2.4259,2.4491,2.4034,0.0,0.0,0.0,0.0,0.0,0.0,0.0,0.0,0.0,0.0,0.0,2.5731,2.6808,2.7468,2.7468,2.7671,2.7724,2.7494,2.7468,2.732,2.7007,2.6331,2.6042,0.0,0.0,0.0,0.0,0.0,0.0,0.0,0.0,0.0,0.0,0.0,0.0,0.0,0.0,0.0,0.0,0.0,0.0,0.0,0.0,0.0,0.0,0.0,0.0,0.0,0.0,0.0,0.0,0.0,0.0,0.0,0.0,0.0,0.0,0.0,0.0,0.0,0.0,0.0,0.0,0.0,0.0,0.0,0.0,0.0,0.0,0.0,0.0,0.0,0.0,0.0,0.0,0.0,0.0,0.0,0.0,0.0,0.0,2.1839,2.1403,0.0,0.0,0.0,0.0,0.0,0.0,0.0,0.0,0.0,0.0,0.0,0.0,0.0,0.0,0.0,0.0,0.0,0.0,0.0,0.0,0.0,0.0,0.0,0.0,0.0,0.0,0.0,0.0,0.0,0.0,0.0,0.0,0.0,0.0,0.0,0.0,0.0,0.0,0.0,0.0,2.5335,2.6417,2.7101,2.7101,2.7212,2.7238,2.7114,2.7101,2.6838,2.6265,2.5738,0.0,0.0,0.0,0.0,0.0,0.0,0.0,0.0,0.0,0.0,0.0,0.0,0.0,0.0,0.0,0.0,0.0,0.0,0.0,0.0,0.0,0.0,0.0,0.0,0.0,0.0,0.0,0.0,0.0,0.0,0.0,0.0,0.0,0.0,0.0,0.0,0.0,0.0,0.0,0.0,0.0,0.0,0.0,0.0,0.0,0.0,0.0,0.0,0.0,0.0,0.0,0.0,0.0,0.0,0.0,0.0,0.0,0.0,0.0,2.0839,2.0094,0.0,0.0,0.0,0.0,0.0,0.0,0.0,0.0,0.0,0.0,0.0,0.0,0.0,0.0,0.0,0.0,0.0,0.0,0.0,0.0,0.0,0.0,0.0,0.0,0.0,0.0,0.0,0.0,0.0,0.0,0.0,0.0,0.0,0.0,0.0,0.0,0.0,0.0,0.0,0.0,2.4948,2.5428,2.5914,2.6674,2.6789,2.6802,2.6736,2.6757,2.6383,2.5507,2.5097,0.0,0.0,0.0,0.0,0.0,0.0,0.0,0.0,0.0,0.0,0.0,0.0,0.0,0.0,0.0,0.0,0.0,0.0,0.0,0.0,0.0,0.0,0.0,0.0,0.0,0.0,0.0,0.0,0.0,0.0,0.0,0.0,0.0,0.0,0.0,0.0,0.0,0.0,0.0,0.0,0.0,0.0,0.0,0.0,0.0,0.0,0.0,0.0,0.0,0.0,0.0,0.0,0.0,0.0,0.0,0.0,0.0,0.0,0.0,0.0,0.0,0.0,0.0,0.0,0.0,0.0,0.0,0.0,0.0,0.0,0.0,0.0,0.0,0.0,0.0,0.0,0.0,0.0,0.0,0.0,0.0,0.0,0.0,0.0,0.0,0.0,0.0,0.0,0.0,0.0,0.0,0.0,0.0,0.0,0.0,0.0,0.0,0.0,0.0,0.0,0.0,2.4212,2.297,2.2927,2.6139,2.6691,2.6723,2.6494,2.6467,2.5981,2.4836,0.0,0.0,0.0,0.0,0.0,0.0,0.0,0.0,0.0,0.0,0.0,0.0,0.0,0.0,0.0,0.0,0.0,0.0,0.0,0.0,0.0,0.0,0.0,0.0,0.0,0.0,0.0,0.0,0.0,0.0,0.0,0.0,0.0,0.0,0.0,0.0,0.0,0.0,0.0,0.0,0.0,0.0,0.0,0.0,0.0,0.0,0.0,0.0,0.0,0.0,0.0,0.0,0.0,0.0,0.0,0.0,0.0,0.0,0.0,0.0,0.0,0.0,0.0,0.0,0.0,0.0,0.0,0.0,0.0,0.0,0.0,0.0,0.0,0.0,0.0,0.0,0.0,0.0,0.0,0.0,0.0,0.0,0.0,0.0,0.0,0.0,0.0,0.0,0.0,0.0,0.0,0.0,0.0,0.0,0.0,0.0,0.0,0.0,0.0,0.0,0.0,0.0,2.1032,1.9247,1.8339,1.9755,2.1889,2.3178,2.3065,2.4975,2.556,2.4082,0.0,0.0,0.0,0.0,0.0,0.0,0.0,0.0,0.0,0.0,0.0,0.0,0.0,0.0,0.0,0.0,0.0,0.0,0.0,0.0,0.0,0.0,0.0,0.0,0.0,0.0,0.0,0.0,0.0,0.0,0.0,0.0,0.0,0.0,0.0,0.0,0.0,0.0,0.0,0.0,0.0,0.0,0.0,0.0,0.0,0.0,0.0,0.0,0.0,0.0,0.0,0.0,0.0,0.0,0.0,0.0,0.0,0.0,0.0,0.0,0.0,0.0,0.0,0.0,0.0,0.0,0.0,0.0,0.0,0.0,0.0,0.0,0.0,0.0,0.0,0.0,0.0,0.0,0.0,0.0,0.0,0.0,0.0,0.0,0.0,0.0,0.0,0.0,0.0,0.0,0.0,0.0,0.0,0.0,0.0,0.0,0.0,0.0,0.0,0.0,0.0,0.0,1.7668,1.6458,1.555,1.555,1.8637,2.0684,2.0684,2.3818,2.5111,2.3453,0.0,0.0,0.0,0.0,0.0,0.0,0.0,0.0,0.0,0.0,0.0,0.0,0.0,0.0,0.0,0.0,0.0,0.0,0.0,0.0,0.0,0.0,0.0,0.0,0.0,0.0,0.0,0.0,0.0,0.0,0.0,0.0,0.0,0.0,0.0,0.0,0.0,0.0,0.0,0.0,0.0,0.0,0.0,0.0,0.0,0.0,0.0,0.0,0.0,0.0,0.0,0.0,0.0,0.0,0.0,0.0,0.0,0.0,0.0,0.0,0.0,0.0,0.0,0.0,0.0,0.0,0.0,0.0,0.0,0.0,0.0,0.0,0.0,0.0,0.0,0.0,0.0,0.0,0.0,0.0,0.0,0.0,0.0,0.0,0.0,0.0,0.0,0.0,0.0,0.0,0.0,0.0,0.0,0.0,0.0,0.0,0.0,0.0,0.0,0.0,0.0,0.0,1.4583,1.5176,1.555,1.555,1.8464,2.0411,2.0411,2.34,2.4615,0.0,0.0,0.0,0.0,0.0,0.0,0.0,0.0,0.0,0.0,0.0,0.0,0.0,0.0,0.0,0.0,0.0,0.0,0.0,0.0,0.0,0.0,0.0,0.0,0.0,0.0,0.0,0.0,0.0,0.0,0.0,0.0,0.0,0.0,0.0,0.0,0.0,0.0,0.0,0.0,0.0,0.0,0.0,0.0,0.0,0.0,0.0,0.0,0.0,0.0,0.0,0.0,0.0,0.0,0.0,0.0,0.0,0.0,0.0,0.0,0.0,0.0,0.0,0.0,0.0,0.0,0.0,0.0,0.0,0.0,0.0,0.0,0.0,0.0,0.0,0.0,0.0,0.0,0.0,0.0,0.0,0.0,0.0,0.0,0.0,0.0,0.0,0.0,0.0,0.0,0.0,0.0,0.0,0.0,0.0,0.0,0.0,0.0,0.0,0.0,0.0,0.0,0.0,1.0945,0.9463,0.8411,0.0,1.3495,1.6838,1.6838,2.217,2.4781,2.3047,0.0,0.0,0.0,0.0,0.0,0.0,0.0,0.0,0.0,0.0,0.0,0.0,0.0,0.0,0.0,0.0,0.0,0.0,0.0,0.0,0.0,0.0,0.0,0.0,0.0,0.0,0.0,0.0,0.0,0.0,0.0,0.0,0.0,0.0,0.0,0.0,0.0,0.0,0.0,0.0,0.0,0.0,0.0,0.0,0.0,0.0,0.0,0.0,0.0,0.0,0.0,0.0,0.0,0.0,0.0,0.0,0.0,0.0,0.0,0.0,0.0,0.0,0.0,0.0,0.0,0.0,0.0,0.0,0.0,0.0,0.0,0.0,0.0,0.0,0.0,0.0,0.0,0.0,0.0,0.0,0.0,0.0,0.0,0.0,0.0,0.0,0.0,0.0,0.0,0.0,0.0,0.0,0.0,0.0,0.0,0.0,0.0,0.0,0.0,0.0,0.0,0.0,0.0,0.7253,0.6549,0.0,0.9988,1.3181,1.3176,1.834,2.0951,1.9522,0.0,0.0,0.0,0.0,0.0,0.0,0.0,0.0,0.0,0.0,0.0,0.0,0.0,0.0,0.0,0.0,0.0,0.0,0.0,0.0,0.0,0.0,0.0,0.0,0.0,0.0,0.0,0.0,0.0,0.0,0.0,0.0,0.0,0.0,0.0,0.0,0.0,0.0,0.0,0.0,0.0,0.0,0.0,0.0,0.0,0.0,0.0,0.0,0.0,0.0,0.0,0.0,0.0,0.0,0.0,0.0,0.0,0.0,0.0,0.0,0.0,0.0,0.0,0.0,0.0,0.0,0.0,0.0,0.0,0.0,0.0,0.0,0.0,0.0,0.0,0.0,0.0,0.0,0.0,0.0,0.0,0.0,0.0,0.0,0.0,0.0,0.0,0.0,0.0,0.0,0.0,0.0,0.0,0.0,0.0,0.0,0.0,0.0,0.0,0.0,0.0,0.0,0.0,0.7753,0.8672,0.5412,0.798,0.9906,0.9904,1.2902,1.4443,1.3652,1.337,0.0,0.0,0.0,0.0,0.0,0.0,0.0,0.0,0.0,0.0,0.0,0.0,0.0,0.0,0.0,0.0,0.0,0.0,0.0,0.0,0.0,0.0,0.0,0.0,0.0,0.0,0.0,0.0,0.0,0.0,0.0,0.0,0.0,0.0,0.0,0.0,0.0,0.0,0.0,0.0,0.0,0.0,0.0,0.0,0.0,0.0,0.0,0.0,0.0,0.0,0.0,0.0,0.0,0.0,0.0,0.0,0.0,0.0,0.0,0.0,0.0,0.0,0.0,0.0,0.0,0.0,0.0,0.0,0.0,0.0,0.0,0.0,0.0,0.0,0.0,0.0,0.0,0.0,0.0,0.0,0.0,0.0,0.0,0.0,0.0,0.0,0.0,0.0,0.0,0.0,0.0,0.0,0.0,0.0,0.0,0.0,0.0,0.0,0.0,0.0,0.0,0.0,0.5682,0.6004,0.5285,0.802,0.9909,0.9904,1.2983,1.4556,1.3652,1.3458,0.0,0.0,0.0,0.0,0.0,0.0,0.0,0.0,0.0,0.0,0.0,0.0,0.0,0.0,0.0,0.0,0.0,0.0,0.0,0.0,0.0,0.0,0.0,0.0,0.0,0.0,0.0,0.0,0.0,0.0,0.0,0.0,0.0,0.0,0.0,0.0,0.0,0.0,0.0,0.0,0.0,0.0,0.0,0.0,0.0,0.0,0.0,0.0,0.0,0.0,0.0,0.0,0.0,0.0,0.0,0.0,0.0,0.0,0.0,0.0,0.0,0.0,0.0,0.0,0.0,0.0,0.0,0.0,0.0,0.0,0.0,0.0,0.0,0.0,0.0,0.0,0.0,0.0,0.0,0.0,0.0,0.0,0.0,0.0,0.0,0.0,0.0,0.0,0.0,0.0,0.0,0.0,0.0,0.0,0.0,0.0,0.0,0.0,0.0,0.0,0.0,0.0,0.4788,0.4953,0.5133,0.6676,0.7696,0.7682,0.9362,1.0155,0.956,1.0458,0.0,0.0,0.0,0.0,0.0,0.0,0.0,0.0,0.0,0.0,0.0,0.0,0.0,0.0,0.0,0.0,0.0,0.0,0.0,0.0,0.0,0.0,0.0,0.0,0.0,0.0,0.0,0.0,0.0,0.0,0.0,0.0,0.0,0.0,0.0,0.0,0.0,0.0,0.0,0.0,0.0,0.0,0.0,0.0,0.0,0.0,0.0,0.0,0.0,0.0,0.0,0.0,0.0,0.0,0.0,0.0,0.0,0.0,0.0,0.0,0.0,0.0,0.0,0.0,0.0,0.0,0.0,0.0,0.0,0.0,0.0,0.0,0.0,0.0,0.0,0.0,0.0,0.0,0.0,0.0,0.0,0.0,0.0,0.0,0.0,0.0,0.0,0.0,0.0,0.0,0.0,0.0,0.0,0.0,0.0,0.0,0.0,0.0,0.0,0.0,0.0,0.0,0.0,0.4786,0.5003,0.5037,0.5059,0.5044,0.5042,0.4922,0.4674,0.0,0.0,0.0,0.0,0.0,0.0,0.0,0.0,0.0,0.0,0.0,0.0,0.0,0.0,0.0,0.0,0.0,0.0,0.0,0.0,0.0,0.0,0.0,0.0,0.0,0.0,0.0,0.0,0.0,0.0,0.0,0.0,0.0,0.0,0.0,0.0,0.0,0.0,0.0,0.0,0.0,0.0,0.0,0.0,0.0,0.0,0.0,0.0,0.0,0.0,0.0,0.0,0.0,0.0,0.0,0.0,0.0,0.0,0.0,0.0,0.0,0.0,0.0,0.0,0.0,0.0,0.0,0.0,0.0,0.0,0.0,0.0,0.0,0.0,0.0,0.0,0.0,0.0,0.0,0.0,0.0,0.0,0.0,0.0,0.0,0.0,0.0,0.0,0.0,0.0,0.0,0.0,0.0,0.0,0.0,0.0,0.0,0.0,0.0,0.0,0.0,0.0,0.0,0.0,0.0,0.4883,0.4989,0.5058,0.5062,0.4951,0.482,0.4671,0.0,0.0,0.0,0.0,0.0,0.0,0.0,0.0,0.0,0.0,0.0,0.0,0.0,0.0]}]]]